<?xml version="1.0" encoding="UTF-8" standalone="no" ?>
<gpx xmlns="http://www.topografix.com/GPX/1/1" creator="https://MapMagic.app" xmlns:xsi="http://www.w3.org/2001/XMLSchema-instance" xsi:schemaLocation="http://www.topografix.com/GPX/1/1 http://www.topografix.com/GPX/1/1/gpx.xsd" version="1.1">
	<wpt lat="54.842880" lon="21.520286">
		<name>КП1</name>
		<desc>КП1</desc>
		<type>Generic</type>
	</wpt>
	<wpt lat="54.636321" lon="21.806440">
		<name>КП2</name>
		<desc>КП2</desc>
		<type>Generic</type>
	</wpt>
	<wpt lat="54.408791" lon="22.014782">
		<name>КП3</name>
		<desc>КП3</desc>
		<type>Generic</type>
	</wpt>
	<wpt lat="54.618891" lon="21.228054">
		<name>КП 4</name>
		<type>Generic</type>
	</wpt>
	<trk>
		<name>300_Ключ_Наполеона_2026</name>
		<desc>300_Ключ_Наполеона_2026</desc>
		<trkseg>
			<trkpt lat="54.709020" lon="20.553000"><ele>6.8</ele><time>2020-08-31T00:00:00Z</time></trkpt>
			<trkpt lat="54.709020" lon="20.553000"><ele>6.8</ele><time>2020-08-31T00:00:00Z</time></trkpt>
			<trkpt lat="54.709200" lon="20.553040"><ele>7.0</ele><time>2020-08-31T00:00:00Z</time></trkpt>
			<trkpt lat="54.709180" lon="20.553290"><ele>7.0</ele><time>2020-08-31T00:00:00Z</time></trkpt>
			<trkpt lat="54.709170" lon="20.553520"><ele>6.8</ele><time>2020-08-31T00:00:00Z</time></trkpt>
			<trkpt lat="54.709150" lon="20.553780"><ele>6.5</ele><time>2020-08-31T00:00:00Z</time></trkpt>
			<trkpt lat="54.709180" lon="20.553790"><ele>6.5</ele><time>2020-08-31T00:00:00Z</time></trkpt>
			<trkpt lat="54.709210" lon="20.553830"><ele>6.5</ele><time>2020-08-31T00:00:00Z</time></trkpt>
			<trkpt lat="54.709240" lon="20.554100"><ele>6.3</ele><time>2020-08-31T00:00:01Z</time></trkpt>
			<trkpt lat="54.709350" lon="20.554330"><ele>6.4</ele><time>2020-08-31T00:00:01Z</time></trkpt>
			<trkpt lat="54.709260" lon="20.555800"><ele>5.5</ele><time>2020-08-31T00:00:01Z</time></trkpt>
			<trkpt lat="54.709160" lon="20.557270"><ele>5.7</ele><time>2020-08-31T00:00:01Z</time></trkpt>
			<trkpt lat="54.708950" lon="20.561760"><ele>7.8</ele><time>2020-08-31T00:00:01Z</time></trkpt>
			<trkpt lat="54.708890" lon="20.563240"><ele>7.0</ele><time>2020-08-31T00:00:01Z</time></trkpt>
			<trkpt lat="54.708850" lon="20.563920"><ele>7.2</ele><time>2020-08-31T00:00:02Z</time></trkpt>
			<trkpt lat="54.708770" lon="20.567050"><ele>7.3</ele><time>2020-08-31T00:00:02Z</time></trkpt>
			<trkpt lat="54.708740" lon="20.567880"><ele>7.2</ele><time>2020-08-31T00:00:02Z</time></trkpt>
			<trkpt lat="54.708640" lon="20.569060"><ele>7.7</ele><time>2020-08-31T00:00:02Z</time></trkpt>
			<trkpt lat="54.708590" lon="20.569530"><ele>7.6</ele><time>2020-08-31T00:00:02Z</time></trkpt>
			<trkpt lat="54.708540" lon="20.569940"><ele>7.5</ele><time>2020-08-31T00:00:02Z</time></trkpt>
			<trkpt lat="54.708390" lon="20.571190"><ele>7.1</ele><time>2020-08-31T00:00:03Z</time></trkpt>
			<trkpt lat="54.708270" lon="20.572240"><ele>7.8</ele><time>2020-08-31T00:00:03Z</time></trkpt>
			<trkpt lat="54.708250" lon="20.572440"><ele>7.9</ele><time>2020-08-31T00:00:03Z</time></trkpt>
			<trkpt lat="54.708140" lon="20.573530"><ele>7.1</ele><time>2020-08-31T00:00:03Z</time></trkpt>
			<trkpt lat="54.707950" lon="20.575120"><ele>7.7</ele><time>2020-08-31T00:00:03Z</time></trkpt>
			<trkpt lat="54.707860" lon="20.575920"><ele>8.3</ele><time>2020-08-31T00:00:03Z</time></trkpt>
			<trkpt lat="54.707650" lon="20.577630"><ele>7.3</ele><time>2020-08-31T00:00:03Z</time></trkpt>
			<trkpt lat="54.707610" lon="20.577980"><ele>8.1</ele><time>2020-08-31T00:00:04Z</time></trkpt>
			<trkpt lat="54.707080" lon="20.582170"><ele>7.5</ele><time>2020-08-31T00:00:04Z</time></trkpt>
			<trkpt lat="54.706970" lon="20.583100"><ele>7.9</ele><time>2020-08-31T00:00:04Z</time></trkpt>
			<trkpt lat="54.706940" lon="20.583270"><ele>8.0</ele><time>2020-08-31T00:00:04Z</time></trkpt>
			<trkpt lat="54.706910" lon="20.583490"><ele>8.1</ele><time>2020-08-31T00:00:04Z</time></trkpt>
			<trkpt lat="54.706890" lon="20.583660"><ele>8.1</ele><time>2020-08-31T00:00:04Z</time></trkpt>
			<trkpt lat="54.706840" lon="20.584050"><ele>8.2</ele><time>2020-08-31T00:00:05Z</time></trkpt>
			<trkpt lat="54.706740" lon="20.584680"><ele>8.0</ele><time>2020-08-31T00:00:05Z</time></trkpt>
			<trkpt lat="54.706570" lon="20.585540"><ele>7.2</ele><time>2020-08-31T00:00:05Z</time></trkpt>
			<trkpt lat="54.706460" lon="20.586020"><ele>6.6</ele><time>2020-08-31T00:00:05Z</time></trkpt>
			<trkpt lat="54.706290" lon="20.586670"><ele>5.7</ele><time>2020-08-31T00:00:05Z</time></trkpt>
			<trkpt lat="54.706220" lon="20.586920"><ele>5.2</ele><time>2020-08-31T00:00:05Z</time></trkpt>
			<trkpt lat="54.706180" lon="20.587050"><ele>5.0</ele><time>2020-08-31T00:00:06Z</time></trkpt>
			<trkpt lat="54.705630" lon="20.588830"><ele>4.1</ele><time>2020-08-31T00:00:06Z</time></trkpt>
			<trkpt lat="54.705330" lon="20.589940"><ele>3.8</ele><time>2020-08-31T00:00:06Z</time></trkpt>
			<trkpt lat="54.705260" lon="20.590200"><ele>3.8</ele><time>2020-08-31T00:00:06Z</time></trkpt>
			<trkpt lat="54.704950" lon="20.591690"><ele>3.8</ele><time>2020-08-31T00:00:06Z</time></trkpt>
			<trkpt lat="54.704740" lon="20.592900"><ele>3.9</ele><time>2020-08-31T00:00:06Z</time></trkpt>
			<trkpt lat="54.704650" lon="20.593490"><ele>3.7</ele><time>2020-08-31T00:00:06Z</time></trkpt>
			<trkpt lat="54.704540" lon="20.594360"><ele>3.1</ele><time>2020-08-31T00:00:07Z</time></trkpt>
			<trkpt lat="54.704260" lon="20.596890"><ele>2.1</ele><time>2020-08-31T00:00:07Z</time></trkpt>
			<trkpt lat="54.704080" lon="20.598420"><ele>2.0</ele><time>2020-08-31T00:00:07Z</time></trkpt>
			<trkpt lat="54.704000" lon="20.599250"><ele>1.7</ele><time>2020-08-31T00:00:07Z</time></trkpt>
			<trkpt lat="54.703970" lon="20.599740"><ele>1.4</ele><time>2020-08-31T00:00:07Z</time></trkpt>
			<trkpt lat="54.703920" lon="20.600610"><ele>1.1</ele><time>2020-08-31T00:00:07Z</time></trkpt>
			<trkpt lat="54.703910" lon="20.601480"><ele>0.8</ele><time>2020-08-31T00:00:08Z</time></trkpt>
			<trkpt lat="54.703920" lon="20.602500"><ele>1.1</ele><time>2020-08-31T00:00:08Z</time></trkpt>
			<trkpt lat="54.703970" lon="20.603490"><ele>2.9</ele><time>2020-08-31T00:00:08Z</time></trkpt>
			<trkpt lat="54.704060" lon="20.604470"><ele>5.0</ele><time>2020-08-31T00:00:08Z</time></trkpt>
			<trkpt lat="54.704140" lon="20.605150"><ele>5.7</ele><time>2020-08-31T00:00:08Z</time></trkpt>
			<trkpt lat="54.704230" lon="20.605830"><ele>5.1</ele><time>2020-08-31T00:00:08Z</time></trkpt>
			<trkpt lat="54.704470" lon="20.607170"><ele>3.7</ele><time>2020-08-31T00:00:09Z</time></trkpt>
			<trkpt lat="54.704790" lon="20.608380"><ele>3.4</ele><time>2020-08-31T00:00:09Z</time></trkpt>
			<trkpt lat="54.704870" lon="20.608700"><ele>3.2</ele><time>2020-08-31T00:00:09Z</time></trkpt>
			<trkpt lat="54.704890" lon="20.608740"><ele>3.2</ele><time>2020-08-31T00:00:09Z</time></trkpt>
			<trkpt lat="54.705280" lon="20.610270"><ele>1.9</ele><time>2020-08-31T00:00:09Z</time></trkpt>
			<trkpt lat="54.705680" lon="20.611910"><ele>2.1</ele><time>2020-08-31T00:00:09Z</time></trkpt>
			<trkpt lat="54.705790" lon="20.612410"><ele>1.3</ele><time>2020-08-31T00:00:09Z</time></trkpt>
			<trkpt lat="54.705950" lon="20.613240"><ele>1.5</ele><time>2020-08-31T00:00:10Z</time></trkpt>
			<trkpt lat="54.706110" lon="20.614130"><ele>2.3</ele><time>2020-08-31T00:00:10Z</time></trkpt>
			<trkpt lat="54.706290" lon="20.615460"><ele>4.1</ele><time>2020-08-31T00:00:10Z</time></trkpt>
			<trkpt lat="54.706520" lon="20.617160"><ele>4.9</ele><time>2020-08-31T00:00:10Z</time></trkpt>
			<trkpt lat="54.706710" lon="20.618460"><ele>2.8</ele><time>2020-08-31T00:00:10Z</time></trkpt>
			<trkpt lat="54.706860" lon="20.619490"><ele>1.5</ele><time>2020-08-31T00:00:10Z</time></trkpt>
			<trkpt lat="54.707010" lon="20.620680"><ele>1.0</ele><time>2020-08-31T00:00:11Z</time></trkpt>
			<trkpt lat="54.707110" lon="20.621530"><ele>0.7</ele><time>2020-08-31T00:00:11Z</time></trkpt>
			<trkpt lat="54.707170" lon="20.622310"><ele>2.1</ele><time>2020-08-31T00:00:11Z</time></trkpt>
			<trkpt lat="54.707240" lon="20.623470"><ele>3.0</ele><time>2020-08-31T00:00:11Z</time></trkpt>
			<trkpt lat="54.707250" lon="20.623750"><ele>3.0</ele><time>2020-08-31T00:00:11Z</time></trkpt>
			<trkpt lat="54.707280" lon="20.624870"><ele>5.1</ele><time>2020-08-31T00:00:11Z</time></trkpt>
			<trkpt lat="54.707310" lon="20.626150"><ele>7.4</ele><time>2020-08-31T00:00:12Z</time></trkpt>
			<trkpt lat="54.707300" lon="20.627060"><ele>9.1</ele><time>2020-08-31T00:00:12Z</time></trkpt>
			<trkpt lat="54.707230" lon="20.628970"><ele>10.4</ele><time>2020-08-31T00:00:12Z</time></trkpt>
			<trkpt lat="54.707190" lon="20.629860"><ele>9.2</ele><time>2020-08-31T00:00:12Z</time></trkpt>
			<trkpt lat="54.707130" lon="20.630770"><ele>8.1</ele><time>2020-08-31T00:00:12Z</time></trkpt>
			<trkpt lat="54.707040" lon="20.631700"><ele>7.5</ele><time>2020-08-31T00:00:12Z</time></trkpt>
			<trkpt lat="54.706980" lon="20.632230"><ele>8.0</ele><time>2020-08-31T00:00:12Z</time></trkpt>
			<trkpt lat="54.706900" lon="20.632830"><ele>8.7</ele><time>2020-08-31T00:00:13Z</time></trkpt>
			<trkpt lat="54.706730" lon="20.633870"><ele>9.2</ele><time>2020-08-31T00:00:13Z</time></trkpt>
			<trkpt lat="54.706040" lon="20.637640"><ele>9.3</ele><time>2020-08-31T00:00:13Z</time></trkpt>
			<trkpt lat="54.705810" lon="20.638760"><ele>9.0</ele><time>2020-08-31T00:00:13Z</time></trkpt>
			<trkpt lat="54.705120" lon="20.642420"><ele>9.0</ele><time>2020-08-31T00:00:13Z</time></trkpt>
			<trkpt lat="54.705050" lon="20.642810"><ele>9.4</ele><time>2020-08-31T00:00:13Z</time></trkpt>
			<trkpt lat="54.704730" lon="20.644870"><ele>11.2</ele><time>2020-08-31T00:00:14Z</time></trkpt>
			<trkpt lat="54.703250" lon="20.653000"><ele>17.3</ele><time>2020-08-31T00:00:14Z</time></trkpt>
			<trkpt lat="54.702620" lon="20.656440"><ele>17.6</ele><time>2020-08-31T00:00:14Z</time></trkpt>
			<trkpt lat="54.702530" lon="20.657080"><ele>16.4</ele><time>2020-08-31T00:00:14Z</time></trkpt>
			<trkpt lat="54.702400" lon="20.658200"><ele>11.8</ele><time>2020-08-31T00:00:14Z</time></trkpt>
			<trkpt lat="54.702280" lon="20.659510"><ele>11.7</ele><time>2020-08-31T00:00:14Z</time></trkpt>
			<trkpt lat="54.702240" lon="20.659940"><ele>11.7</ele><time>2020-08-31T00:00:15Z</time></trkpt>
			<trkpt lat="54.701720" lon="20.666030"><ele>12.4</ele><time>2020-08-31T00:00:15Z</time></trkpt>
			<trkpt lat="54.701590" lon="20.667610"><ele>13.0</ele><time>2020-08-31T00:00:15Z</time></trkpt>
			<trkpt lat="54.701520" lon="20.668470"><ele>13.8</ele><time>2020-08-31T00:00:15Z</time></trkpt>
			<trkpt lat="54.701450" lon="20.669510"><ele>14.9</ele><time>2020-08-31T00:00:15Z</time></trkpt>
			<trkpt lat="54.701420" lon="20.670370"><ele>13.5</ele><time>2020-08-31T00:00:15Z</time></trkpt>
			<trkpt lat="54.701360" lon="20.670820"><ele>12.3</ele><time>2020-08-31T00:00:15Z</time></trkpt>
			<trkpt lat="54.701290" lon="20.671150"><ele>11.2</ele><time>2020-08-31T00:00:16Z</time></trkpt>
			<trkpt lat="54.701220" lon="20.671330"><ele>10.4</ele><time>2020-08-31T00:00:16Z</time></trkpt>
			<trkpt lat="54.701140" lon="20.671470"><ele>9.7</ele><time>2020-08-31T00:00:16Z</time></trkpt>
			<trkpt lat="54.701030" lon="20.671570"><ele>9.0</ele><time>2020-08-31T00:00:16Z</time></trkpt>
			<trkpt lat="54.700930" lon="20.671620"><ele>8.5</ele><time>2020-08-31T00:00:16Z</time></trkpt>
			<trkpt lat="54.700830" lon="20.671620"><ele>7.9</ele><time>2020-08-31T00:00:16Z</time></trkpt>
			<trkpt lat="54.700700" lon="20.671590"><ele>7.0</ele><time>2020-08-31T00:00:17Z</time></trkpt>
			<trkpt lat="54.700600" lon="20.671510"><ele>6.3</ele><time>2020-08-31T00:00:17Z</time></trkpt>
			<trkpt lat="54.700510" lon="20.671380"><ele>5.6</ele><time>2020-08-31T00:00:17Z</time></trkpt>
			<trkpt lat="54.700430" lon="20.671200"><ele>5.1</ele><time>2020-08-31T00:00:17Z</time></trkpt>
			<trkpt lat="54.700370" lon="20.670980"><ele>4.7</ele><time>2020-08-31T00:00:17Z</time></trkpt>
			<trkpt lat="54.700350" lon="20.670750"><ele>4.8</ele><time>2020-08-31T00:00:17Z</time></trkpt>
			<trkpt lat="54.700360" lon="20.670540"><ele>5.3</ele><time>2020-08-31T00:00:18Z</time></trkpt>
			<trkpt lat="54.700400" lon="20.670360"><ele>6.1</ele><time>2020-08-31T00:00:18Z</time></trkpt>
			<trkpt lat="54.700450" lon="20.670220"><ele>7.1</ele><time>2020-08-31T00:00:18Z</time></trkpt>
			<trkpt lat="54.700530" lon="20.670080"><ele>8.4</ele><time>2020-08-31T00:00:18Z</time></trkpt>
			<trkpt lat="54.700620" lon="20.669960"><ele>9.9</ele><time>2020-08-31T00:00:18Z</time></trkpt>
			<trkpt lat="54.700740" lon="20.669840"><ele>11.7</ele><time>2020-08-31T00:00:18Z</time></trkpt>
			<trkpt lat="54.700830" lon="20.669830"><ele>12.8</ele><time>2020-08-31T00:00:18Z</time></trkpt>
			<trkpt lat="54.701020" lon="20.669840"><ele>13.5</ele><time>2020-08-31T00:00:19Z</time></trkpt>
			<trkpt lat="54.701300" lon="20.669890"><ele>14.2</ele><time>2020-08-31T00:00:19Z</time></trkpt>
			<trkpt lat="54.701730" lon="20.669940"><ele>15.1</ele><time>2020-08-31T00:00:19Z</time></trkpt>
			<trkpt lat="54.701790" lon="20.669940"><ele>15.1</ele><time>2020-08-31T00:00:19Z</time></trkpt>
			<trkpt lat="54.701890" lon="20.669900"><ele>15.2</ele><time>2020-08-31T00:00:19Z</time></trkpt>
			<trkpt lat="54.701950" lon="20.669860"><ele>15.3</ele><time>2020-08-31T00:00:19Z</time></trkpt>
			<trkpt lat="54.702070" lon="20.669750"><ele>15.6</ele><time>2020-08-31T00:00:20Z</time></trkpt>
			<trkpt lat="54.702310" lon="20.669510"><ele>16.5</ele><time>2020-08-31T00:00:20Z</time></trkpt>
			<trkpt lat="54.702580" lon="20.669310"><ele>17.2</ele><time>2020-08-31T00:00:20Z</time></trkpt>
			<trkpt lat="54.702910" lon="20.669160"><ele>16.5</ele><time>2020-08-31T00:00:20Z</time></trkpt>
			<trkpt lat="54.702940" lon="20.669280"><ele>16.1</ele><time>2020-08-31T00:00:20Z</time></trkpt>
			<trkpt lat="54.703300" lon="20.670460"><ele>15.1</ele><time>2020-08-31T00:00:20Z</time></trkpt>
			<trkpt lat="54.703330" lon="20.670570"><ele>15.3</ele><time>2020-08-31T00:00:21Z</time></trkpt>
			<trkpt lat="54.703590" lon="20.671470"><ele>16.8</ele><time>2020-08-31T00:00:21Z</time></trkpt>
			<trkpt lat="54.703790" lon="20.672170"><ele>17.6</ele><time>2020-08-31T00:00:21Z</time></trkpt>
			<trkpt lat="54.703930" lon="20.673260"><ele>18.8</ele><time>2020-08-31T00:00:21Z</time></trkpt>
			<trkpt lat="54.703980" lon="20.673810"><ele>18.3</ele><time>2020-08-31T00:00:21Z</time></trkpt>
			<trkpt lat="54.703960" lon="20.674710"><ele>17.6</ele><time>2020-08-31T00:00:21Z</time></trkpt>
			<trkpt lat="54.703940" lon="20.675380"><ele>17.0</ele><time>2020-08-31T00:00:22Z</time></trkpt>
			<trkpt lat="54.703940" lon="20.675380"><ele>17.0</ele><time>2020-08-31T00:00:22Z</time></trkpt>
			<trkpt lat="54.703930" lon="20.675750"><ele>16.5</ele><time>2020-08-31T00:00:22Z</time></trkpt>
			<trkpt lat="54.703920" lon="20.676650"><ele>15.2</ele><time>2020-08-31T00:00:22Z</time></trkpt>
			<trkpt lat="54.703890" lon="20.677520"><ele>16.1</ele><time>2020-08-31T00:00:22Z</time></trkpt>
			<trkpt lat="54.703830" lon="20.678070"><ele>17.5</ele><time>2020-08-31T00:00:23Z</time></trkpt>
			<trkpt lat="54.703820" lon="20.678220"><ele>17.9</ele><time>2020-08-31T00:00:23Z</time></trkpt>
			<trkpt lat="54.703810" lon="20.678380"><ele>18.2</ele><time>2020-08-31T00:00:23Z</time></trkpt>
			<trkpt lat="54.703210" lon="20.684350"><ele>22.6</ele><time>2020-08-31T00:00:23Z</time></trkpt>
			<trkpt lat="54.702940" lon="20.686510"><ele>20.1</ele><time>2020-08-31T00:00:24Z</time></trkpt>
			<trkpt lat="54.702140" lon="20.693570"><ele>11.5</ele><time>2020-08-31T00:00:24Z</time></trkpt>
			<trkpt lat="54.701450" lon="20.700770"><ele>8.7</ele><time>2020-08-31T00:00:24Z</time></trkpt>
			<trkpt lat="54.701430" lon="20.701460"><ele>8.7</ele><time>2020-08-31T00:00:24Z</time></trkpt>
			<trkpt lat="54.701440" lon="20.702060"><ele>8.4</ele><time>2020-08-31T00:00:25Z</time></trkpt>
			<trkpt lat="54.701440" lon="20.702800"><ele>8.0</ele><time>2020-08-31T00:00:25Z</time></trkpt>
			<trkpt lat="54.701440" lon="20.704710"><ele>8.0</ele><time>2020-08-31T00:00:25Z</time></trkpt>
			<trkpt lat="54.701440" lon="20.705660"><ele>8.6</ele><time>2020-08-31T00:00:25Z</time></trkpt>
			<trkpt lat="54.701460" lon="20.707260"><ele>10.7</ele><time>2020-08-31T00:00:26Z</time></trkpt>
			<trkpt lat="54.701490" lon="20.710720"><ele>11.5</ele><time>2020-08-31T00:00:26Z</time></trkpt>
			<trkpt lat="54.701650" lon="20.719820"><ele>14.0</ele><time>2020-08-31T00:00:26Z</time></trkpt>
			<trkpt lat="54.701630" lon="20.721190"><ele>14.0</ele><time>2020-08-31T00:00:27Z</time></trkpt>
			<trkpt lat="54.701770" lon="20.731850"><ele>10.8</ele><time>2020-08-31T00:00:27Z</time></trkpt>
			<trkpt lat="54.701770" lon="20.732330"><ele>10.3</ele><time>2020-08-31T00:00:27Z</time></trkpt>
			<trkpt lat="54.701780" lon="20.732910"><ele>10.7</ele><time>2020-08-31T00:00:27Z</time></trkpt>
			<trkpt lat="54.701800" lon="20.734750"><ele>14.2</ele><time>2020-08-31T00:00:28Z</time></trkpt>
			<trkpt lat="54.701810" lon="20.735160"><ele>14.2</ele><time>2020-08-31T00:00:28Z</time></trkpt>
			<trkpt lat="54.701840" lon="20.737750"><ele>12.9</ele><time>2020-08-31T00:00:28Z</time></trkpt>
			<trkpt lat="54.701850" lon="20.737860"><ele>13.2</ele><time>2020-08-31T00:00:28Z</time></trkpt>
			<trkpt lat="54.702060" lon="20.737870"><ele>14.3</ele><time>2020-08-31T00:00:29Z</time></trkpt>
			<trkpt lat="54.703000" lon="20.738000"><ele>17.9</ele><time>2020-08-31T00:00:29Z</time></trkpt>
			<trkpt lat="54.703670" lon="20.738120"><ele>17.5</ele><time>2020-08-31T00:00:29Z</time></trkpt>
			<trkpt lat="54.704190" lon="20.738260"><ele>16.0</ele><time>2020-08-31T00:00:29Z</time></trkpt>
			<trkpt lat="54.704970" lon="20.738450"><ele>13.9</ele><time>2020-08-31T00:00:30Z</time></trkpt>
			<trkpt lat="54.705240" lon="20.738610"><ele>12.9</ele><time>2020-08-31T00:00:30Z</time></trkpt>
			<trkpt lat="54.705340" lon="20.738680"><ele>12.5</ele><time>2020-08-31T00:00:30Z</time></trkpt>
			<trkpt lat="54.705420" lon="20.738760"><ele>12.3</ele><time>2020-08-31T00:00:31Z</time></trkpt>
			<trkpt lat="54.705670" lon="20.739080"><ele>11.4</ele><time>2020-08-31T00:00:31Z</time></trkpt>
			<trkpt lat="54.706220" lon="20.739800"><ele>8.8</ele><time>2020-08-31T00:00:31Z</time></trkpt>
			<trkpt lat="54.706860" lon="20.740450"><ele>5.7</ele><time>2020-08-31T00:00:31Z</time></trkpt>
			<trkpt lat="54.707580" lon="20.740870"><ele>4.0</ele><time>2020-08-31T00:00:32Z</time></trkpt>
			<trkpt lat="54.708750" lon="20.741330"><ele>5.3</ele><time>2020-08-31T00:00:32Z</time></trkpt>
			<trkpt lat="54.709550" lon="20.741460"><ele>6.5</ele><time>2020-08-31T00:00:32Z</time></trkpt>
			<trkpt lat="54.710500" lon="20.741430"><ele>6.6</ele><time>2020-08-31T00:00:32Z</time></trkpt>
			<trkpt lat="54.711680" lon="20.741450"><ele>8.0</ele><time>2020-08-31T00:00:33Z</time></trkpt>
			<trkpt lat="54.712660" lon="20.741450"><ele>8.4</ele><time>2020-08-31T00:00:33Z</time></trkpt>
			<trkpt lat="54.713190" lon="20.741360"><ele>9.8</ele><time>2020-08-31T00:00:33Z</time></trkpt>
			<trkpt lat="54.713860" lon="20.741240"><ele>9.6</ele><time>2020-08-31T00:00:33Z</time></trkpt>
			<trkpt lat="54.714190" lon="20.741090"><ele>9.3</ele><time>2020-08-31T00:00:34Z</time></trkpt>
			<trkpt lat="54.714510" lon="20.740850"><ele>9.2</ele><time>2020-08-31T00:00:34Z</time></trkpt>
			<trkpt lat="54.715440" lon="20.739820"><ele>8.8</ele><time>2020-08-31T00:00:34Z</time></trkpt>
			<trkpt lat="54.716250" lon="20.738900"><ele>10.1</ele><time>2020-08-31T00:00:34Z</time></trkpt>
			<trkpt lat="54.716950" lon="20.738020"><ele>13.4</ele><time>2020-08-31T00:00:35Z</time></trkpt>
			<trkpt lat="54.717240" lon="20.737650"><ele>14.7</ele><time>2020-08-31T00:00:35Z</time></trkpt>
			<trkpt lat="54.717730" lon="20.736500"><ele>13.3</ele><time>2020-08-31T00:00:35Z</time></trkpt>
			<trkpt lat="54.717950" lon="20.736290"><ele>13.2</ele><time>2020-08-31T00:00:36Z</time></trkpt>
			<trkpt lat="54.718080" lon="20.736260"><ele>13.3</ele><time>2020-08-31T00:00:36Z</time></trkpt>
			<trkpt lat="54.718410" lon="20.736350"><ele>13.9</ele><time>2020-08-31T00:00:36Z</time></trkpt>
			<trkpt lat="54.721030" lon="20.738170"><ele>12.8</ele><time>2020-08-31T00:00:36Z</time></trkpt>
			<trkpt lat="54.723970" lon="20.740220"><ele>11.8</ele><time>2020-08-31T00:00:37Z</time></trkpt>
			<trkpt lat="54.724080" lon="20.740240"><ele>11.8</ele><time>2020-08-31T00:00:37Z</time></trkpt>
			<trkpt lat="54.724470" lon="20.740230"><ele>11.8</ele><time>2020-08-31T00:00:37Z</time></trkpt>
			<trkpt lat="54.725250" lon="20.739980"><ele>12.0</ele><time>2020-08-31T00:00:37Z</time></trkpt>
			<trkpt lat="54.725850" lon="20.739660"><ele>12.5</ele><time>2020-08-31T00:00:38Z</time></trkpt>
			<trkpt lat="54.727190" lon="20.738540"><ele>12.6</ele><time>2020-08-31T00:00:38Z</time></trkpt>
			<trkpt lat="54.727630" lon="20.738110"><ele>12.0</ele><time>2020-08-31T00:00:38Z</time></trkpt>
			<trkpt lat="54.727730" lon="20.738020"><ele>11.8</ele><time>2020-08-31T00:00:38Z</time></trkpt>
			<trkpt lat="54.728630" lon="20.737190"><ele>10.7</ele><time>2020-08-31T00:00:39Z</time></trkpt>
			<trkpt lat="54.731090" lon="20.734270"><ele>11.0</ele><time>2020-08-31T00:00:39Z</time></trkpt>
			<trkpt lat="54.731790" lon="20.733730"><ele>11.3</ele><time>2020-08-31T00:00:39Z</time></trkpt>
			<trkpt lat="54.732030" lon="20.733670"><ele>11.9</ele><time>2020-08-31T00:00:40Z</time></trkpt>
			<trkpt lat="54.732320" lon="20.733690"><ele>12.6</ele><time>2020-08-31T00:00:40Z</time></trkpt>
			<trkpt lat="54.732780" lon="20.733830"><ele>13.2</ele><time>2020-08-31T00:00:40Z</time></trkpt>
			<trkpt lat="54.738540" lon="20.736170"><ele>17.1</ele><time>2020-08-31T00:00:40Z</time></trkpt>
			<trkpt lat="54.739210" lon="20.736200"><ele>16.7</ele><time>2020-08-31T00:00:41Z</time></trkpt>
			<trkpt lat="54.740400" lon="20.736070"><ele>14.0</ele><time>2020-08-31T00:00:41Z</time></trkpt>
			<trkpt lat="54.740910" lon="20.735940"><ele>13.0</ele><time>2020-08-31T00:00:41Z</time></trkpt>
			<trkpt lat="54.741600" lon="20.735760"><ele>13.0</ele><time>2020-08-31T00:00:41Z</time></trkpt>
			<trkpt lat="54.744670" lon="20.734960"><ele>16.3</ele><time>2020-08-31T00:00:42Z</time></trkpt>
			<trkpt lat="54.745870" lon="20.741090"><ele>13.0</ele><time>2020-08-31T00:00:42Z</time></trkpt>
			<trkpt lat="54.745980" lon="20.741980"><ele>13.3</ele><time>2020-08-31T00:00:42Z</time></trkpt>
			<trkpt lat="54.745990" lon="20.742440"><ele>13.7</ele><time>2020-08-31T00:00:42Z</time></trkpt>
			<trkpt lat="54.746120" lon="20.747440"><ele>13.0</ele><time>2020-08-31T00:00:43Z</time></trkpt>
			<trkpt lat="54.746210" lon="20.748390"><ele>15.1</ele><time>2020-08-31T00:00:43Z</time></trkpt>
			<trkpt lat="54.746240" lon="20.748810"><ele>15.9</ele><time>2020-08-31T00:00:43Z</time></trkpt>
			<trkpt lat="54.746450" lon="20.749590"><ele>16.2</ele><time>2020-08-31T00:00:44Z</time></trkpt>
			<trkpt lat="54.748740" lon="20.756560"><ele>15.9</ele><time>2020-08-31T00:07:01Z</time></trkpt>
			<trkpt lat="54.749430" lon="20.759120"><ele>16.9</ele><time>2020-08-31T00:09:13Z</time></trkpt>
			<trkpt lat="54.749450" lon="20.761830"><ele>14.9</ele><time>2020-08-31T00:11:18Z</time></trkpt>
			<trkpt lat="54.748830" lon="20.774530"><ele>14.4</ele><time>2020-08-31T00:21:00Z</time></trkpt>
			<trkpt lat="54.748790" lon="20.781090"><ele>12.1</ele><time>2020-08-31T00:26:09Z</time></trkpt>
			<trkpt lat="54.748990" lon="20.787390"><ele>18.2</ele><time>2020-08-31T00:31:16Z</time></trkpt>
			<trkpt lat="54.749210" lon="20.788000"><ele>20.8</ele><time>2020-08-31T00:31:52Z</time></trkpt>
			<trkpt lat="54.755090" lon="20.798970"><ele>25.0</ele><time>2020-08-31T00:44:11Z</time></trkpt>
			<trkpt lat="54.761230" lon="20.799140"><ele>18.0</ele><time>2020-08-31T00:52:11Z</time></trkpt>
			<trkpt lat="54.768910" lon="20.808150"><ele>12.3</ele><time>2020-08-31T01:04:26Z</time></trkpt>
			<trkpt lat="54.769150" lon="20.808650"><ele>12.0</ele><time>2020-08-31T01:04:56Z</time></trkpt>
			<trkpt lat="54.769240" lon="20.809060"><ele>12.2</ele><time>2020-08-31T01:05:16Z</time></trkpt>
			<trkpt lat="54.769760" lon="20.812250"><ele>12.7</ele><time>2020-08-31T01:07:49Z</time></trkpt>
			<trkpt lat="54.769990" lon="20.813370"><ele>13.0</ele><time>2020-08-31T01:08:44Z</time></trkpt>
			<trkpt lat="54.770810" lon="20.816400"><ele>12.0</ele><time>2020-08-31T01:11:18Z</time></trkpt>
			<trkpt lat="54.773430" lon="20.824950"><ele>9.9</ele><time>2020-08-31T01:18:42Z</time></trkpt>
			<trkpt lat="54.773650" lon="20.826100"><ele>9.2</ele><time>2020-08-31T01:19:37Z</time></trkpt>
			<trkpt lat="54.774170" lon="20.832060"><ele>8.5</ele><time>2020-08-31T01:24:13Z</time></trkpt>
			<trkpt lat="54.774370" lon="20.832970"><ele>8.5</ele><time>2020-08-31T01:24:58Z</time></trkpt>
			<trkpt lat="54.775540" lon="20.834290"><ele>9.0</ele><time>2020-08-31T01:26:50Z</time></trkpt>
			<trkpt lat="54.776520" lon="20.835770"><ele>8.1</ele><time>2020-08-31T01:28:33Z</time></trkpt>
			<trkpt lat="54.776760" lon="20.836900"><ele>8.9</ele><time>2020-08-31T01:29:29Z</time></trkpt>
			<trkpt lat="54.779170" lon="20.856530"><ele>10.0</ele><time>2020-08-31T01:45:02Z</time></trkpt>
			<trkpt lat="54.780150" lon="20.862290"><ele>9.5</ele><time>2020-08-31T01:49:40Z</time></trkpt>
			<trkpt lat="54.780570" lon="20.863860"><ele>8.8</ele><time>2020-08-31T01:51:00Z</time></trkpt>
			<trkpt lat="54.781110" lon="20.865540"><ele>9.7</ele><time>2020-08-31T01:52:28Z</time></trkpt>
			<trkpt lat="54.783160" lon="20.871470"><ele>8.6</ele><time>2020-08-31T01:57:47Z</time></trkpt>
			<trkpt lat="54.786533" lon="20.882831"><ele>8.4</ele><time>2020-08-31T02:07:37Z</time></trkpt>
			<trkpt lat="54.786755" lon="20.883687"><ele>8.9</ele><time>2020-08-31T02:08:21Z</time></trkpt>
			<trkpt lat="54.787061" lon="20.885227"><ele>8.5</ele><time>2020-08-31T02:09:36Z</time></trkpt>
			<trkpt lat="54.787044" lon="20.885335"><ele>8.5</ele><time>2020-08-31T02:09:41Z</time></trkpt>
			<trkpt lat="54.787061" lon="20.885227"><ele>8.5</ele><time>2020-08-31T02:09:46Z</time></trkpt>
			<trkpt lat="54.786772" lon="20.885803"><ele>8.8</ele><time>2020-08-31T02:10:21Z</time></trkpt>
			<trkpt lat="54.786534" lon="20.886189"><ele>8.5</ele><time>2020-08-31T02:10:48Z</time></trkpt>
			<trkpt lat="54.786058" lon="20.886554"><ele>8.0</ele><time>2020-08-31T02:11:29Z</time></trkpt>
			<trkpt lat="54.785728" lon="20.886681"><ele>7.8</ele><time>2020-08-31T02:11:56Z</time></trkpt>
			<trkpt lat="54.785534" lon="20.886826"><ele>7.5</ele><time>2020-08-31T02:12:13Z</time></trkpt>
			<trkpt lat="54.785439" lon="20.886917"><ele>7.5</ele><time>2020-08-31T02:12:22Z</time></trkpt>
			<trkpt lat="54.785261" lon="20.887218"><ele>7.8</ele><time>2020-08-31T02:12:42Z</time></trkpt>
			<trkpt lat="54.785030" lon="20.887520"><ele>8.8</ele><time>2020-08-31T02:13:05Z</time></trkpt>
			<trkpt lat="54.784760" lon="20.887720"><ele>9.3</ele><time>2020-08-31T02:13:29Z</time></trkpt>
			<trkpt lat="54.782920" lon="20.888840"><ele>8.5</ele><time>2020-08-31T02:16:05Z</time></trkpt>
			<trkpt lat="54.782720" lon="20.888900"><ele>8.3</ele><time>2020-08-31T02:16:21Z</time></trkpt>
			<trkpt lat="54.782550" lon="20.888870"><ele>8.1</ele><time>2020-08-31T02:16:35Z</time></trkpt>
			<trkpt lat="54.780330" lon="20.887960"><ele>8.6</ele><time>2020-08-31T02:19:39Z</time></trkpt>
			<trkpt lat="54.780160" lon="20.887970"><ele>8.8</ele><time>2020-08-31T02:19:53Z</time></trkpt>
			<trkpt lat="54.770610" lon="20.895040"><ele>8.7</ele><time>2020-08-31T02:33:53Z</time></trkpt>
			<trkpt lat="54.767070" lon="20.897590"><ele>7.9</ele><time>2020-08-31T02:38:57Z</time></trkpt>
			<trkpt lat="54.766890" lon="20.897830"><ele>7.5</ele><time>2020-08-31T02:39:15Z</time></trkpt>
			<trkpt lat="54.766650" lon="20.898440"><ele>7.0</ele><time>2020-08-31T02:39:49Z</time></trkpt>
			<trkpt lat="54.766570" lon="20.898750"><ele>7.0</ele><time>2020-08-31T02:40:05Z</time></trkpt>
			<trkpt lat="54.766580" lon="20.899240"><ele>7.2</ele><time>2020-08-31T02:40:27Z</time></trkpt>
			<trkpt lat="54.766640" lon="20.899630"><ele>7.6</ele><time>2020-08-31T02:40:46Z</time></trkpt>
			<trkpt lat="54.767150" lon="20.901590"><ele>8.9</ele><time>2020-08-31T02:42:25Z</time></trkpt>
			<trkpt lat="54.767140" lon="20.901830"><ele>8.8</ele><time>2020-08-31T02:42:36Z</time></trkpt>
			<trkpt lat="54.767080" lon="20.902120"><ele>8.5</ele><time>2020-08-31T02:42:51Z</time></trkpt>
			<trkpt lat="54.766970" lon="20.902380"><ele>8.1</ele><time>2020-08-31T02:43:06Z</time></trkpt>
			<trkpt lat="54.758210" lon="20.916690"><ele>8.1</ele><time>2020-08-31T02:59:17Z</time></trkpt>
			<trkpt lat="54.758060" lon="20.916960"><ele>8.2</ele><time>2020-08-31T02:59:34Z</time></trkpt>
			<trkpt lat="54.757940" lon="20.917280"><ele>8.1</ele><time>2020-08-31T02:59:52Z</time></trkpt>
			<trkpt lat="54.750770" lon="20.943260"><ele>16.2</ele><time>2020-08-31T03:23:08Z</time></trkpt>
			<trkpt lat="54.750230" lon="20.946480"><ele>16.9</ele><time>2020-08-31T03:25:45Z</time></trkpt>
			<trkpt lat="54.749550" lon="20.951460"><ele>17.9</ele><time>2020-08-31T03:29:45Z</time></trkpt>
			<trkpt lat="54.749320" lon="20.952010"><ele>18.2</ele><time>2020-08-31T03:30:17Z</time></trkpt>
			<trkpt lat="54.748270" lon="20.953860"><ele>17.8</ele><time>2020-08-31T03:32:18Z</time></trkpt>
			<trkpt lat="54.747290" lon="20.955440"><ele>17.4</ele><time>2020-08-31T03:34:05Z</time></trkpt>
			<trkpt lat="54.741840" lon="20.964500"><ele>18.3</ele><time>2020-08-31T03:44:28Z</time></trkpt>
			<trkpt lat="54.738010" lon="20.971070"><ele>19.9</ele><time>2020-08-31T03:51:36Z</time></trkpt>
			<trkpt lat="54.737710" lon="20.971660"><ele>17.2</ele><time>2020-08-31T03:52:10Z</time></trkpt>
			<trkpt lat="54.735090" lon="20.978190"><ele>12.0</ele><time>2020-08-31T03:58:23Z</time></trkpt>
			<trkpt lat="54.734330" lon="20.980010"><ele>13.8</ele><time>2020-08-31T04:00:11Z</time></trkpt>
			<trkpt lat="54.734520" lon="20.980640"><ele>13.9</ele><time>2020-08-31T04:00:45Z</time></trkpt>
			<trkpt lat="54.737500" lon="20.996000"><ele>13.2</ele><time>2020-08-31T04:13:10Z</time></trkpt>
			<trkpt lat="54.737730" lon="20.996840"><ele>13.0</ele><time>2020-08-31T04:13:53Z</time></trkpt>
			<trkpt lat="54.739450" lon="21.000900"><ele>11.0</ele><time>2020-08-31T04:17:50Z</time></trkpt>
			<trkpt lat="54.739360" lon="21.001140"><ele>11.0</ele><time>2020-08-31T04:18:03Z</time></trkpt>
			<trkpt lat="54.738830" lon="21.002150"><ele>11.2</ele><time>2020-08-31T04:19:08Z</time></trkpt>
			<trkpt lat="54.738150" lon="21.004140"><ele>12.2</ele><time>2020-08-31T04:20:58Z</time></trkpt>
			<trkpt lat="54.737100" lon="21.006700"><ele>12.9</ele><time>2020-08-31T04:23:26Z</time></trkpt>
			<trkpt lat="54.736710" lon="21.008290"><ele>12.0</ele><time>2020-08-31T04:24:46Z</time></trkpt>
			<trkpt lat="54.736470" lon="21.009510"><ele>12.1</ele><time>2020-08-31T04:25:45Z</time></trkpt>
			<trkpt lat="54.736480" lon="21.009790"><ele>12.2</ele><time>2020-08-31T04:25:58Z</time></trkpt>
			<trkpt lat="54.736670" lon="21.010360"><ele>12.0</ele><time>2020-08-31T04:26:28Z</time></trkpt>
			<trkpt lat="54.737120" lon="21.011450"><ele>11.7</ele><time>2020-08-31T04:27:29Z</time></trkpt>
			<trkpt lat="54.737530" lon="21.012290"><ele>12.7</ele><time>2020-08-31T04:28:20Z</time></trkpt>
			<trkpt lat="54.737590" lon="21.012480"><ele>12.8</ele><time>2020-08-31T04:28:30Z</time></trkpt>
			<trkpt lat="54.737720" lon="21.013520"><ele>11.8</ele><time>2020-08-31T04:29:18Z</time></trkpt>
			<trkpt lat="54.737670" lon="21.013910"><ele>11.4</ele><time>2020-08-31T04:29:37Z</time></trkpt>
			<trkpt lat="54.737430" lon="21.014920"><ele>11.1</ele><time>2020-08-31T04:30:27Z</time></trkpt>
			<trkpt lat="54.737320" lon="21.015850"><ele>13.0</ele><time>2020-08-31T04:31:12Z</time></trkpt>
			<trkpt lat="54.737330" lon="21.016370"><ele>13.1</ele><time>2020-08-31T04:31:36Z</time></trkpt>
			<trkpt lat="54.737620" lon="21.020600"><ele>13.5</ele><time>2020-08-31T04:34:56Z</time></trkpt>
			<trkpt lat="54.737060" lon="21.026940"><ele>12.7</ele><time>2020-08-31T04:40:04Z</time></trkpt>
			<trkpt lat="54.736800" lon="21.029290"><ele>13.0</ele><time>2020-08-31T04:42:02Z</time></trkpt>
			<trkpt lat="54.736720" lon="21.030350"><ele>13.0</ele><time>2020-08-31T04:42:55Z</time></trkpt>
			<trkpt lat="54.736710" lon="21.030640"><ele>13.0</ele><time>2020-08-31T04:43:09Z</time></trkpt>
			<trkpt lat="54.736850" lon="21.032590"><ele>14.1</ele><time>2020-08-31T04:44:46Z</time></trkpt>
			<trkpt lat="54.736950" lon="21.034690"><ele>21.0</ele><time>2020-08-31T04:46:31Z</time></trkpt>
			<trkpt lat="54.736930" lon="21.035140"><ele>21.3</ele><time>2020-08-31T04:46:53Z</time></trkpt>
			<trkpt lat="54.736800" lon="21.035950"><ele>21.0</ele><time>2020-08-31T04:47:35Z</time></trkpt>
			<trkpt lat="54.736700" lon="21.037060"><ele>20.6</ele><time>2020-08-31T04:48:31Z</time></trkpt>
			<trkpt lat="54.736710" lon="21.037440"><ele>21.1</ele><time>2020-08-31T04:48:50Z</time></trkpt>
			<trkpt lat="54.736840" lon="21.038750"><ele>23.9</ele><time>2020-08-31T04:49:57Z</time></trkpt>
			<trkpt lat="54.737020" lon="21.039490"><ele>23.6</ele><time>2020-08-31T04:50:37Z</time></trkpt>
			<trkpt lat="54.737080" lon="21.039910"><ele>22.7</ele><time>2020-08-31T04:51:00Z</time></trkpt>
			<trkpt lat="54.737330" lon="21.042790"><ele>23.0</ele><time>2020-08-31T04:53:23Z</time></trkpt>
			<trkpt lat="54.737410" lon="21.043340"><ele>22.0</ele><time>2020-08-31T04:53:49Z</time></trkpt>
			<trkpt lat="54.737510" lon="21.043690"><ele>21.6</ele><time>2020-08-31T04:54:07Z</time></trkpt>
			<trkpt lat="54.738090" lon="21.044700"><ele>21.9</ele><time>2020-08-31T04:55:12Z</time></trkpt>
			<trkpt lat="54.738550" lon="21.045720"><ele>20.4</ele><time>2020-08-31T04:56:11Z</time></trkpt>
			<trkpt lat="54.738650" lon="21.046030"><ele>19.6</ele><time>2020-08-31T04:56:27Z</time></trkpt>
			<trkpt lat="54.738830" lon="21.047280"><ele>18.5</ele><time>2020-08-31T04:57:26Z</time></trkpt>
			<trkpt lat="54.739000" lon="21.049250"><ele>19.1</ele><time>2020-08-31T04:58:57Z</time></trkpt>
			<trkpt lat="54.739030" lon="21.049970"><ele>19.6</ele><time>2020-08-31T04:59:30Z</time></trkpt>
			<trkpt lat="54.739020" lon="21.050160"><ele>19.7</ele><time>2020-08-31T04:59:39Z</time></trkpt>
			<trkpt lat="54.738780" lon="21.051540"><ele>20.0</ele><time>2020-08-31T05:00:44Z</time></trkpt>
			<trkpt lat="54.738640" lon="21.053000"><ele>20.2</ele><time>2020-08-31T05:01:50Z</time></trkpt>
			<trkpt lat="54.738020" lon="21.056140"><ele>14.4</ele><time>2020-08-31T05:04:19Z</time></trkpt>
			<trkpt lat="54.737930" lon="21.058760"><ele>12.3</ele><time>2020-08-31T05:06:16Z</time></trkpt>
			<trkpt lat="54.737950" lon="21.058900"><ele>12.4</ele><time>2020-08-31T05:06:23Z</time></trkpt>
			<trkpt lat="54.738210" lon="21.059670"><ele>12.9</ele><time>2020-08-31T05:07:03Z</time></trkpt>
			<trkpt lat="54.740110" lon="21.064050"><ele>11.1</ele><time>2020-08-31T05:11:12Z</time></trkpt>
			<trkpt lat="54.742370" lon="21.069130"><ele>10.9</ele><time>2020-08-31T05:16:05Z</time></trkpt>
			<trkpt lat="54.744160" lon="21.073640"><ele>5.8</ele><time>2020-08-31T05:20:17Z</time></trkpt>
			<trkpt lat="54.747790" lon="21.083040"><ele>9.7</ele><time>2020-08-31T05:29:22Z</time></trkpt>
			<trkpt lat="54.747940" lon="21.083520"><ele>8.1</ele><time>2020-08-31T05:29:47Z</time></trkpt>
			<trkpt lat="54.748030" lon="21.085480"><ele>3.9</ele><time>2020-08-31T05:31:15Z</time></trkpt>
			<trkpt lat="54.748200" lon="21.085490"><ele>3.8</ele><time>2020-08-31T05:31:29Z</time></trkpt>
			<trkpt lat="54.748920" lon="21.085400"><ele>3.7</ele><time>2020-08-31T05:32:25Z</time></trkpt>
			<trkpt lat="54.749650" lon="21.085240"><ele>3.6</ele><time>2020-08-31T05:33:23Z</time></trkpt>
			<trkpt lat="54.750240" lon="21.085010"><ele>4.0</ele><time>2020-08-31T05:34:10Z</time></trkpt>
			<trkpt lat="54.751270" lon="21.084250"><ele>6.3</ele><time>2020-08-31T05:35:38Z</time></trkpt>
			<trkpt lat="54.751650" lon="21.084030"><ele>7.4</ele><time>2020-08-31T05:36:11Z</time></trkpt>
			<trkpt lat="54.752190" lon="21.083810"><ele>8.2</ele><time>2020-08-31T05:36:58Z</time></trkpt>
			<trkpt lat="54.753060" lon="21.083530"><ele>6.8</ele><time>2020-08-31T05:38:14Z</time></trkpt>
			<trkpt lat="54.753270" lon="21.083680"><ele>5.4</ele><time>2020-08-31T05:38:33Z</time></trkpt>
			<trkpt lat="54.753380" lon="21.083970"><ele>4.3</ele><time>2020-08-31T05:38:50Z</time></trkpt>
			<trkpt lat="54.753630" lon="21.085120"><ele>3.6</ele><time>2020-08-31T05:39:51Z</time></trkpt>
			<trkpt lat="54.753720" lon="21.085360"><ele>3.3</ele><time>2020-08-31T05:40:05Z</time></trkpt>
			<trkpt lat="54.753840" lon="21.085540"><ele>3.1</ele><time>2020-08-31T05:40:19Z</time></trkpt>
			<trkpt lat="54.754040" lon="21.085750"><ele>3.0</ele><time>2020-08-31T05:40:39Z</time></trkpt>
			<trkpt lat="54.754290" lon="21.085890"><ele>3.7</ele><time>2020-08-31T05:41:01Z</time></trkpt>
			<trkpt lat="54.755390" lon="21.086270"><ele>7.6</ele><time>2020-08-31T05:42:37Z</time></trkpt>
			<trkpt lat="54.755580" lon="21.086270"><ele>7.5</ele><time>2020-08-31T05:42:53Z</time></trkpt>
			<trkpt lat="54.756920" lon="21.099070"><ele>13.1</ele><time>2020-08-31T05:53:15Z</time></trkpt>
			<trkpt lat="54.756950" lon="21.099600"><ele>12.8</ele><time>2020-08-31T05:53:39Z</time></trkpt>
			<trkpt lat="54.756860" lon="21.105660"><ele>15.0</ele><time>2020-08-31T05:58:20Z</time></trkpt>
			<trkpt lat="54.756760" lon="21.108590"><ele>12.1</ele><time>2020-08-31T06:00:37Z</time></trkpt>
			<trkpt lat="54.756830" lon="21.109080"><ele>12.5</ele><time>2020-08-31T06:01:01Z</time></trkpt>
			<trkpt lat="54.759810" lon="21.118180"><ele>12.8</ele><time>2020-08-31T06:09:06Z</time></trkpt>
			<trkpt lat="54.760310" lon="21.119930"><ele>15.8</ele><time>2020-08-31T06:10:36Z</time></trkpt>
			<trkpt lat="54.761550" lon="21.122330"><ele>15.3</ele><time>2020-08-31T06:13:05Z</time></trkpt>
			<trkpt lat="54.762800" lon="21.125210"><ele>13.4</ele><time>2020-08-31T06:16:03Z</time></trkpt>
			<trkpt lat="54.763570" lon="21.127960"><ele>15.5</ele><time>2020-08-31T06:18:33Z</time></trkpt>
			<trkpt lat="54.763880" lon="21.129780"><ele>17.9</ele><time>2020-08-31T06:20:07Z</time></trkpt>
			<trkpt lat="54.764110" lon="21.130590"><ele>19.7</ele><time>2020-08-31T06:20:48Z</time></trkpt>
			<trkpt lat="54.764220" lon="21.131170"><ele>19.2</ele><time>2020-08-31T06:21:15Z</time></trkpt>
			<trkpt lat="54.764340" lon="21.131610"><ele>18.3</ele><time>2020-08-31T06:21:36Z</time></trkpt>
			<trkpt lat="54.766160" lon="21.135100"><ele>12.7</ele><time>2020-08-31T06:24:59Z</time></trkpt>
			<trkpt lat="54.769130" lon="21.141080"><ele>3.7</ele><time>2020-08-31T06:30:55Z</time></trkpt>
			<trkpt lat="54.769860" lon="21.142610"><ele>2.9</ele><time>2020-08-31T06:32:27Z</time></trkpt>
			<trkpt lat="54.771710" lon="21.146150"><ele>5.1</ele><time>2020-08-31T06:36:07Z</time></trkpt>
			<trkpt lat="54.772150" lon="21.147090"><ele>5.1</ele><time>2020-08-31T06:37:02Z</time></trkpt>
			<trkpt lat="54.773380" lon="21.150890"><ele>1.8</ele><time>2020-08-31T06:40:20Z</time></trkpt>
			<trkpt lat="54.774160" lon="21.154420"><ele>5.3</ele><time>2020-08-31T06:43:21Z</time></trkpt>
			<trkpt lat="54.774610" lon="21.155700"><ele>5.7</ele><time>2020-08-31T06:44:35Z</time></trkpt>
			<trkpt lat="54.774850" lon="21.155570"><ele>5.9</ele><time>2020-08-31T06:44:56Z</time></trkpt>
			<trkpt lat="54.775210" lon="21.155250"><ele>6.5</ele><time>2020-08-31T06:45:31Z</time></trkpt>
			<trkpt lat="54.776330" lon="21.153990"><ele>6.3</ele><time>2020-08-31T06:47:25Z</time></trkpt>
			<trkpt lat="54.781340" lon="21.149190"><ele>5.2</ele><time>2020-08-31T06:55:07Z</time></trkpt>
			<trkpt lat="54.781520" lon="21.148950"><ele>5.6</ele><time>2020-08-31T06:55:25Z</time></trkpt>
			<trkpt lat="54.781580" lon="21.148700"><ele>5.8</ele><time>2020-08-31T06:55:37Z</time></trkpt>
			<trkpt lat="54.781610" lon="21.148100"><ele>5.1</ele><time>2020-08-31T06:56:05Z</time></trkpt>
			<trkpt lat="54.781660" lon="21.144650"><ele>0.4</ele><time>2020-08-31T06:58:48Z</time></trkpt>
			<trkpt lat="54.781700" lon="21.144280"><ele>0.8</ele><time>2020-08-31T06:59:06Z</time></trkpt>
			<trkpt lat="54.781820" lon="21.144000"><ele>1.2</ele><time>2020-08-31T06:59:22Z</time></trkpt>
			<trkpt lat="54.783520" lon="21.141420"><ele>3.8</ele><time>2020-08-31T07:02:28Z</time></trkpt>
			<trkpt lat="54.783980" lon="21.140210"><ele>6.3</ele><time>2020-08-31T07:03:37Z</time></trkpt>
			<trkpt lat="54.784780" lon="21.139010"><ele>9.0</ele><time>2020-08-31T07:05:05Z</time></trkpt>
			<trkpt lat="54.785510" lon="21.138060"><ele>7.8</ele><time>2020-08-31T07:06:21Z</time></trkpt>
			<trkpt lat="54.788450" lon="21.132280"><ele>9.5</ele><time>2020-08-31T07:12:30Z</time></trkpt>
			<trkpt lat="54.789990" lon="21.129460"><ele>8.3</ele><time>2020-08-31T07:15:31Z</time></trkpt>
			<trkpt lat="54.790140" lon="21.129150"><ele>8.2</ele><time>2020-08-31T07:15:50Z</time></trkpt>
			<trkpt lat="54.791780" lon="21.123960"><ele>11.8</ele><time>2020-08-31T07:20:27Z</time></trkpt>
			<trkpt lat="54.791940" lon="21.123540"><ele>11.5</ele><time>2020-08-31T07:20:51Z</time></trkpt>
			<trkpt lat="54.792280" lon="21.123020"><ele>11.5</ele><time>2020-08-31T07:21:28Z</time></trkpt>
			<trkpt lat="54.794070" lon="21.121390"><ele>10.7</ele><time>2020-08-31T07:24:12Z</time></trkpt>
			<trkpt lat="54.796020" lon="21.119520"><ele>11.8</ele><time>2020-08-31T07:27:14Z</time></trkpt>
			<trkpt lat="54.796990" lon="21.118550"><ele>12.2</ele><time>2020-08-31T07:28:46Z</time></trkpt>
			<trkpt lat="54.798190" lon="21.117220"><ele>12.0</ele><time>2020-08-31T07:30:43Z</time></trkpt>
			<trkpt lat="54.798710" lon="21.116720"><ele>11.5</ele><time>2020-08-31T07:31:32Z</time></trkpt>
			<trkpt lat="54.800540" lon="21.115320"><ele>11.9</ele><time>2020-08-31T07:34:14Z</time></trkpt>
			<trkpt lat="54.802090" lon="21.114060"><ele>11.1</ele><time>2020-08-31T07:36:29Z</time></trkpt>
			<trkpt lat="54.802850" lon="21.113170"><ele>11.7</ele><time>2020-08-31T07:37:42Z</time></trkpt>
			<trkpt lat="54.803320" lon="21.112850"><ele>10.9</ele><time>2020-08-31T07:38:22Z</time></trkpt>
			<trkpt lat="54.810980" lon="21.108200"><ele>12.2</ele><time>2020-08-31T07:49:22Z</time></trkpt>
			<trkpt lat="54.816360" lon="21.103830"><ele>12.2</ele><time>2020-08-31T07:57:18Z</time></trkpt>
			<trkpt lat="54.816540" lon="21.103620"><ele>12.1</ele><time>2020-08-31T07:57:36Z</time></trkpt>
			<trkpt lat="54.817310" lon="21.102350"><ele>12.0</ele><time>2020-08-31T07:59:01Z</time></trkpt>
			<trkpt lat="54.817480" lon="21.102160"><ele>12.0</ele><time>2020-08-31T07:59:17Z</time></trkpt>
			<trkpt lat="54.825080" lon="21.097450"><ele>11.9</ele><time>2020-08-31T08:10:05Z</time></trkpt>
			<trkpt lat="54.827970" lon="21.095590"><ele>14.1</ele><time>2020-08-31T08:14:19Z</time></trkpt>
			<trkpt lat="54.828430" lon="21.095420"><ele>13.2</ele><time>2020-08-31T08:14:57Z</time></trkpt>
			<trkpt lat="54.829660" lon="21.094810"><ele>13.9</ele><time>2020-08-31T08:16:42Z</time></trkpt>
			<trkpt lat="54.829950" lon="21.094830"><ele>14.1</ele><time>2020-08-31T08:17:05Z</time></trkpt>
			<trkpt lat="54.830650" lon="21.095270"><ele>13.0</ele><time>2020-08-31T08:18:05Z</time></trkpt>
			<trkpt lat="54.830730" lon="21.095270"><ele>12.7</ele><time>2020-08-31T08:18:11Z</time></trkpt>
			<trkpt lat="54.832470" lon="21.094910"><ele>11.9</ele><time>2020-08-31T08:20:30Z</time></trkpt>
			<trkpt lat="54.833040" lon="21.094820"><ele>12.7</ele><time>2020-08-31T08:21:16Z</time></trkpt>
			<trkpt lat="54.833550" lon="21.094670"><ele>12.5</ele><time>2020-08-31T08:21:57Z</time></trkpt>
			<trkpt lat="54.834370" lon="21.094210"><ele>11.3</ele><time>2020-08-31T08:23:05Z</time></trkpt>
			<trkpt lat="54.834690" lon="21.094130"><ele>11.6</ele><time>2020-08-31T08:23:31Z</time></trkpt>
			<trkpt lat="54.836480" lon="21.092850"><ele>10.0</ele><time>2020-08-31T08:26:03Z</time></trkpt>
			<trkpt lat="54.840030" lon="21.090420"><ele>7.0</ele><time>2020-08-31T08:31:03Z</time></trkpt>
			<trkpt lat="54.840280" lon="21.090060"><ele>7.0</ele><time>2020-08-31T08:31:30Z</time></trkpt>
			<trkpt lat="54.840720" lon="21.089050"><ele>6.3</ele><time>2020-08-31T08:32:32Z</time></trkpt>
			<trkpt lat="54.841260" lon="21.087930"><ele>7.0</ele><time>2020-08-31T08:33:43Z</time></trkpt>
			<trkpt lat="54.842790" lon="21.085300"><ele>9.3</ele><time>2020-08-31T08:36:44Z</time></trkpt>
			<trkpt lat="54.842980" lon="21.085050"><ele>9.6</ele><time>2020-08-31T08:37:05Z</time></trkpt>
			<trkpt lat="54.843320" lon="21.084910"><ele>10.0</ele><time>2020-08-31T08:37:34Z</time></trkpt>
			<trkpt lat="54.843870" lon="21.084910"><ele>10.7</ele><time>2020-08-31T08:38:20Z</time></trkpt>
			<trkpt lat="54.844200" lon="21.084810"><ele>11.1</ele><time>2020-08-31T08:38:46Z</time></trkpt>
			<trkpt lat="54.844690" lon="21.084540"><ele>10.3</ele><time>2020-08-31T08:39:27Z</time></trkpt>
			<trkpt lat="54.845980" lon="21.083970"><ele>7.7</ele><time>2020-08-31T08:41:10Z</time></trkpt>
			<trkpt lat="54.846480" lon="21.083850"><ele>6.7</ele><time>2020-08-31T08:41:50Z</time></trkpt>
			<trkpt lat="54.848090" lon="21.084010"><ele>4.3</ele><time>2020-08-31T08:43:55Z</time></trkpt>
			<trkpt lat="54.849360" lon="21.084210"><ele>5.1</ele><time>2020-08-31T08:45:35Z</time></trkpt>
			<trkpt lat="54.850080" lon="21.085040"><ele>4.0</ele><time>2020-08-31T08:46:44Z</time></trkpt>
			<trkpt lat="54.850200" lon="21.084940"><ele>4.1</ele><time>2020-08-31T08:46:54Z</time></trkpt>
			<trkpt lat="54.850870" lon="21.084140"><ele>2.9</ele><time>2020-08-31T08:47:59Z</time></trkpt>
			<trkpt lat="54.852380" lon="21.088030"><ele>3.4</ele><time>2020-08-31T08:51:34Z</time></trkpt>
			<trkpt lat="54.857900" lon="21.102550"><ele>2.1</ele><time>2020-08-31T09:04:57Z</time></trkpt>
			<trkpt lat="54.859260" lon="21.105430"><ele>2.5</ele><time>2020-08-31T09:07:51Z</time></trkpt>
			<trkpt lat="54.860360" lon="21.108620"><ele>1.5</ele><time>2020-08-31T09:10:43Z</time></trkpt>
			<trkpt lat="54.860600" lon="21.109000"><ele>2.4</ele><time>2020-08-31T09:11:09Z</time></trkpt>
			<trkpt lat="54.860980" lon="21.109360"><ele>3.1</ele><time>2020-08-31T09:11:45Z</time></trkpt>
			<trkpt lat="54.862640" lon="21.110400"><ele>2.2</ele><time>2020-08-31T09:14:07Z</time></trkpt>
			<trkpt lat="54.862800" lon="21.110570"><ele>1.8</ele><time>2020-08-31T09:14:22Z</time></trkpt>
			<trkpt lat="54.862950" lon="21.110940"><ele>0.8</ele><time>2020-08-31T09:14:43Z</time></trkpt>
			<trkpt lat="54.863440" lon="21.112590"><ele>-1.0</ele><time>2020-08-31T09:16:08Z</time></trkpt>
			<trkpt lat="54.864520" lon="21.115910"><ele>0.4</ele><time>2020-08-31T09:19:02Z</time></trkpt>
			<trkpt lat="54.865440" lon="21.118310"><ele>-0.3</ele><time>2020-08-31T09:21:14Z</time></trkpt>
			<trkpt lat="54.866180" lon="21.120500"><ele>0.9</ele><time>2020-08-31T09:23:10Z</time></trkpt>
			<trkpt lat="54.866530" lon="21.121930"><ele>-0.8</ele><time>2020-08-31T09:24:21Z</time></trkpt>
			<trkpt lat="54.866740" lon="21.122980"><ele>-0.1</ele><time>2020-08-31T09:25:12Z</time></trkpt>
			<trkpt lat="54.866790" lon="21.124130"><ele>-0.2</ele><time>2020-08-31T09:26:04Z</time></trkpt>
			<trkpt lat="54.866730" lon="21.125000"><ele>-0.9</ele><time>2020-08-31T09:26:44Z</time></trkpt>
			<trkpt lat="54.866090" lon="21.129120"><ele>-1.6</ele><time>2020-08-31T09:30:01Z</time></trkpt>
			<trkpt lat="54.865410" lon="21.132740"><ele>-1.6</ele><time>2020-08-31T09:32:59Z</time></trkpt>
			<trkpt lat="54.863980" lon="21.141120"><ele>-2.0</ele><time>2020-08-31T09:39:43Z</time></trkpt>
			<trkpt lat="54.863830" lon="21.142370"><ele>-1.5</ele><time>2020-08-31T09:40:42Z</time></trkpt>
			<trkpt lat="54.863820" lon="21.145560"><ele>-3.1</ele><time>2020-08-31T09:43:08Z</time></trkpt>
			<trkpt lat="54.863850" lon="21.146910"><ele>-2.1</ele><time>2020-08-31T09:44:10Z</time></trkpt>
			<trkpt lat="54.864210" lon="21.151330"><ele>-1.5</ele><time>2020-08-31T09:47:36Z</time></trkpt>
			<trkpt lat="54.864180" lon="21.152010"><ele>-1.4</ele><time>2020-08-31T09:48:08Z</time></trkpt>
			<trkpt lat="54.863600" lon="21.157980"><ele>-1.5</ele><time>2020-08-31T09:52:54Z</time></trkpt>
			<trkpt lat="54.863320" lon="21.160530"><ele>-0.4</ele><time>2020-08-31T09:54:58Z</time></trkpt>
			<trkpt lat="54.863170" lon="21.161380"><ele>-0.6</ele><time>2020-08-31T09:55:41Z</time></trkpt>
			<trkpt lat="54.862950" lon="21.162050"><ele>-0.7</ele><time>2020-08-31T09:56:18Z</time></trkpt>
			<trkpt lat="54.862420" lon="21.163260"><ele>-0.3</ele><time>2020-08-31T09:57:31Z</time></trkpt>
			<trkpt lat="54.862270" lon="21.163720"><ele>-0.4</ele><time>2020-08-31T09:57:55Z</time></trkpt>
			<trkpt lat="54.862080" lon="21.164550"><ele>-0.7</ele><time>2020-08-31T09:58:36Z</time></trkpt>
			<trkpt lat="54.861350" lon="21.168510"><ele>-0.6</ele><time>2020-08-31T10:01:47Z</time></trkpt>
			<trkpt lat="54.860560" lon="21.172160"><ele>-1.4</ele><time>2020-08-31T10:04:46Z</time></trkpt>
			<trkpt lat="54.860470" lon="21.172660"><ele>-1.2</ele><time>2020-08-31T10:05:11Z</time></trkpt>
			<trkpt lat="54.860390" lon="21.173510"><ele>-1.0</ele><time>2020-08-31T10:05:52Z</time></trkpt>
			<trkpt lat="54.860300" lon="21.174090"><ele>-0.7</ele><time>2020-08-31T10:06:20Z</time></trkpt>
			<trkpt lat="54.859830" lon="21.176750"><ele>2.6</ele><time>2020-08-31T10:08:32Z</time></trkpt>
			<trkpt lat="54.859590" lon="21.177910"><ele>2.5</ele><time>2020-08-31T10:09:30Z</time></trkpt>
			<trkpt lat="54.859350" lon="21.178670"><ele>2.8</ele><time>2020-08-31T10:10:11Z</time></trkpt>
			<trkpt lat="54.859020" lon="21.179500"><ele>2.2</ele><time>2020-08-31T10:10:59Z</time></trkpt>
			<trkpt lat="54.858480" lon="21.180490"><ele>0.9</ele><time>2020-08-31T10:12:04Z</time></trkpt>
			<trkpt lat="54.857980" lon="21.181250"><ele>1.4</ele><time>2020-08-31T10:12:58Z</time></trkpt>
			<trkpt lat="54.856630" lon="21.183130"><ele>6.0</ele><time>2020-08-31T10:15:21Z</time></trkpt>
			<trkpt lat="54.855970" lon="21.183920"><ele>2.7</ele><time>2020-08-31T10:16:27Z</time></trkpt>
			<trkpt lat="54.856000" lon="21.184060"><ele>2.7</ele><time>2020-08-31T10:16:34Z</time></trkpt>
			<trkpt lat="54.855990" lon="21.184230"><ele>2.8</ele><time>2020-08-31T10:16:42Z</time></trkpt>
			<trkpt lat="54.855480" lon="21.184740"><ele>1.6</ele><time>2020-08-31T10:17:30Z</time></trkpt>
			<trkpt lat="54.855370" lon="21.184580"><ele>1.4</ele><time>2020-08-31T10:17:42Z</time></trkpt>
			<trkpt lat="54.848790" lon="21.191400"><ele>-0.1</ele><time>2020-08-31T10:27:53Z</time></trkpt>
			<trkpt lat="54.848270" lon="21.191890"><ele>-0.3</ele><time>2020-08-31T10:28:40Z</time></trkpt>
			<trkpt lat="54.847850" lon="21.192200"><ele>-0.8</ele><time>2020-08-31T10:29:16Z</time></trkpt>
			<trkpt lat="54.847420" lon="21.192380"><ele>-0.8</ele><time>2020-08-31T10:29:52Z</time></trkpt>
			<trkpt lat="54.846100" lon="21.192500"><ele>-0.4</ele><time>2020-08-31T10:31:37Z</time></trkpt>
			<trkpt lat="54.845820" lon="21.192550"><ele>-0.9</ele><time>2020-08-31T10:32:00Z</time></trkpt>
			<trkpt lat="54.845550" lon="21.192690"><ele>-0.3</ele><time>2020-08-31T10:32:22Z</time></trkpt>
			<trkpt lat="54.845380" lon="21.192830"><ele>-0.0</ele><time>2020-08-31T10:32:37Z</time></trkpt>
			<trkpt lat="54.844740" lon="21.193730"><ele>-0.5</ele><time>2020-08-31T10:33:43Z</time></trkpt>
			<trkpt lat="54.844040" lon="21.194840"><ele>0.2</ele><time>2020-08-31T10:34:58Z</time></trkpt>
			<trkpt lat="54.843980" lon="21.195000"><ele>-0.0</ele><time>2020-08-31T10:35:07Z</time></trkpt>
			<trkpt lat="54.843890" lon="21.195380"><ele>-0.8</ele><time>2020-08-31T10:35:26Z</time></trkpt>
			<trkpt lat="54.843860" lon="21.195810"><ele>-1.5</ele><time>2020-08-31T10:35:45Z</time></trkpt>
			<trkpt lat="54.843940" lon="21.202180"><ele>-2.6</ele><time>2020-08-31T10:40:37Z</time></trkpt>
			<trkpt lat="54.843840" lon="21.204180"><ele>-1.3</ele><time>2020-08-31T10:42:11Z</time></trkpt>
			<trkpt lat="54.843410" lon="21.207800"><ele>-0.2</ele><time>2020-08-31T10:45:07Z</time></trkpt>
			<trkpt lat="54.842810" lon="21.211320"><ele>-0.9</ele><time>2020-08-31T10:48:00Z</time></trkpt>
			<trkpt lat="54.842090" lon="21.213980"><ele>1.0</ele><time>2020-08-31T10:50:21Z</time></trkpt>
			<trkpt lat="54.838100" lon="21.224810"><ele>-1.3</ele><time>2020-08-31T11:00:24Z</time></trkpt>
			<trkpt lat="54.837120" lon="21.227550"><ele>-0.4</ele><time>2020-08-31T11:02:52Z</time></trkpt>
			<trkpt lat="54.833330" lon="21.239950"><ele>3.9</ele><time>2020-08-31T11:13:54Z</time></trkpt>
			<trkpt lat="54.830330" lon="21.249570"><ele>3.5</ele><time>2020-08-31T11:22:26Z</time></trkpt>
			<trkpt lat="54.829280" lon="21.253430"><ele>3.2</ele><time>2020-08-31T11:25:44Z</time></trkpt>
			<trkpt lat="54.825300" lon="21.269940"><ele>4.0</ele><time>2020-08-31T11:39:36Z</time></trkpt>
			<trkpt lat="54.824810" lon="21.272070"><ele>5.5</ele><time>2020-08-31T11:41:22Z</time></trkpt>
			<trkpt lat="54.824410" lon="21.274280"><ele>4.2</ele><time>2020-08-31T11:43:09Z</time></trkpt>
			<trkpt lat="54.821780" lon="21.293440"><ele>4.5</ele><time>2020-08-31T11:58:33Z</time></trkpt>
			<trkpt lat="54.821560" lon="21.295800"><ele>5.0</ele><time>2020-08-31T12:00:22Z</time></trkpt>
			<trkpt lat="54.820320" lon="21.316380"><ele>6.8</ele><time>2020-08-31T12:16:29Z</time></trkpt>
			<trkpt lat="54.820290" lon="21.317140"><ele>7.2</ele><time>2020-08-31T12:17:05Z</time></trkpt>
			<trkpt lat="54.820300" lon="21.317950"><ele>7.8</ele><time>2020-08-31T12:17:43Z</time></trkpt>
			<trkpt lat="54.820370" lon="21.319060"><ele>7.1</ele><time>2020-08-31T12:18:35Z</time></trkpt>
			<trkpt lat="54.820500" lon="21.320350"><ele>5.6</ele><time>2020-08-31T12:19:36Z</time></trkpt>
			<trkpt lat="54.822110" lon="21.333460"><ele>8.4</ele><time>2020-08-31T12:29:58Z</time></trkpt>
			<trkpt lat="54.824150" lon="21.351060"><ele>7.6</ele><time>2020-08-31T12:43:52Z</time></trkpt>
			<trkpt lat="54.824720" lon="21.354450"><ele>7.4</ele><time>2020-08-31T12:46:34Z</time></trkpt>
			<trkpt lat="54.824890" lon="21.355300"><ele>7.0</ele><time>2020-08-31T12:47:16Z</time></trkpt>
			<trkpt lat="54.825080" lon="21.356880"><ele>7.2</ele><time>2020-08-31T12:48:29Z</time></trkpt>
			<trkpt lat="54.825300" lon="21.359640"><ele>7.6</ele><time>2020-08-31T12:50:37Z</time></trkpt>
			<trkpt lat="54.825570" lon="21.362440"><ele>6.2</ele><time>2020-08-31T12:52:55Z</time></trkpt>
			<trkpt lat="54.826280" lon="21.368780"><ele>15.1</ele><time>2020-08-31T12:58:33Z</time></trkpt>
			<trkpt lat="54.826820" lon="21.374370"><ele>19.1</ele><time>2020-08-31T13:03:17Z</time></trkpt>
			<trkpt lat="54.826960" lon="21.376460"><ele>19.3</ele><time>2020-08-31T13:05:00Z</time></trkpt>
			<trkpt lat="54.826960" lon="21.377250"><ele>19.8</ele><time>2020-08-31T13:05:39Z</time></trkpt>
			<trkpt lat="54.826680" lon="21.382150"><ele>20.6</ele><time>2020-08-31T13:09:34Z</time></trkpt>
			<trkpt lat="54.826700" lon="21.382690"><ele>20.8</ele><time>2020-08-31T13:09:59Z</time></trkpt>
			<trkpt lat="54.826840" lon="21.384050"><ele>20.1</ele><time>2020-08-31T13:11:03Z</time></trkpt>
			<trkpt lat="54.827080" lon="21.385270"><ele>20.8</ele><time>2020-08-31T13:12:02Z</time></trkpt>
			<trkpt lat="54.829080" lon="21.393890"><ele>18.7</ele><time>2020-08-31T13:19:05Z</time></trkpt>
			<trkpt lat="54.830780" lon="21.402030"><ele>16.1</ele><time>2020-08-31T13:25:39Z</time></trkpt>
			<trkpt lat="54.831230" lon="21.403190"><ele>16.0</ele><time>2020-08-31T13:26:43Z</time></trkpt>
			<trkpt lat="54.833560" lon="21.407380"><ele>15.8</ele><time>2020-08-31T13:31:16Z</time></trkpt>
			<trkpt lat="54.833920" lon="21.408280"><ele>15.3</ele><time>2020-08-31T13:32:08Z</time></trkpt>
			<trkpt lat="54.834080" lon="21.408970"><ele>15.7</ele><time>2020-08-31T13:32:44Z</time></trkpt>
			<trkpt lat="54.834080" lon="21.409660"><ele>15.8</ele><time>2020-08-31T13:33:17Z</time></trkpt>
			<trkpt lat="54.834010" lon="21.410420"><ele>14.8</ele><time>2020-08-31T13:33:54Z</time></trkpt>
			<trkpt lat="54.833730" lon="21.411730"><ele>12.1</ele><time>2020-08-31T13:35:01Z</time></trkpt>
			<trkpt lat="54.831450" lon="21.423450"><ele>19.7</ele><time>2020-08-31T13:44:36Z</time></trkpt>
			<trkpt lat="54.831320" lon="21.424690"><ele>19.7</ele><time>2020-08-31T13:45:35Z</time></trkpt>
			<trkpt lat="54.831200" lon="21.426600"><ele>18.6</ele><time>2020-08-31T13:47:05Z</time></trkpt>
			<trkpt lat="54.829870" lon="21.433630"><ele>22.2</ele><time>2020-08-31T13:52:49Z</time></trkpt>
			<trkpt lat="54.829790" lon="21.435290"><ele>22.2</ele><time>2020-08-31T13:54:06Z</time></trkpt>
			<trkpt lat="54.829810" lon="21.438040"><ele>22.4</ele><time>2020-08-31T13:56:12Z</time></trkpt>
			<trkpt lat="54.829910" lon="21.439370"><ele>19.7</ele><time>2020-08-31T13:57:14Z</time></trkpt>
			<trkpt lat="54.830070" lon="21.440650"><ele>18.2</ele><time>2020-08-31T13:58:14Z</time></trkpt>
			<trkpt lat="54.831030" lon="21.447300"><ele>17.7</ele><time>2020-08-31T14:03:31Z</time></trkpt>
			<trkpt lat="54.831230" lon="21.448410"><ele>18.1</ele><time>2020-08-31T14:04:24Z</time></trkpt>
			<trkpt lat="54.831760" lon="21.450870"><ele>17.9</ele><time>2020-08-31T14:06:27Z</time></trkpt>
			<trkpt lat="54.831940" lon="21.451880"><ele>17.4</ele><time>2020-08-31T14:07:18Z</time></trkpt>
			<trkpt lat="54.833610" lon="21.463690"><ele>17.3</ele><time>2020-08-31T14:16:37Z</time></trkpt>
			<trkpt lat="54.834050" lon="21.467400"><ele>11.1</ele><time>2020-08-31T14:19:25Z</time></trkpt>
			<trkpt lat="54.834370" lon="21.470530"><ele>7.0</ele><time>2020-08-31T14:21:49Z</time></trkpt>
			<trkpt lat="54.834390" lon="21.471200"><ele>6.3</ele><time>2020-08-31T14:22:19Z</time></trkpt>
			<trkpt lat="54.834320" lon="21.472680"><ele>6.0</ele><time>2020-08-31T14:23:27Z</time></trkpt>
			<trkpt lat="54.834110" lon="21.474520"><ele>8.3</ele><time>2020-08-31T14:24:52Z</time></trkpt>
			<trkpt lat="54.833930" lon="21.475440"><ele>8.2</ele><time>2020-08-31T14:25:36Z</time></trkpt>
			<trkpt lat="54.833070" lon="21.478690"><ele>8.4</ele><time>2020-08-31T14:28:21Z</time></trkpt>
			<trkpt lat="54.832680" lon="21.480660"><ele>7.0</ele><time>2020-08-31T14:29:58Z</time></trkpt>
			<trkpt lat="54.832570" lon="21.481450"><ele>6.9</ele><time>2020-08-31T14:30:36Z</time></trkpt>
			<trkpt lat="54.832510" lon="21.483670"><ele>8.4</ele><time>2020-08-31T14:32:20Z</time></trkpt>
			<trkpt lat="54.832550" lon="21.484350"><ele>8.9</ele><time>2020-08-31T14:32:52Z</time></trkpt>
			<trkpt lat="54.832960" lon="21.488560"><ele>8.6</ele><time>2020-08-31T14:36:21Z</time></trkpt>
			<trkpt lat="54.833140" lon="21.489600"><ele>8.3</ele><time>2020-08-31T14:37:15Z</time></trkpt>
			<trkpt lat="54.837730" lon="21.510700"><ele>13.8</ele><time>2020-08-31T14:55:31Z</time></trkpt>
			<trkpt lat="54.838020" lon="21.511400"><ele>14.5</ele><time>2020-08-31T14:56:09Z</time></trkpt>
			<trkpt lat="54.839570" lon="21.514210"><ele>9.6</ele><time>2020-08-31T14:59:05Z</time></trkpt>
			<trkpt lat="54.840800" lon="21.516540"><ele>8.0</ele><time>2020-08-31T15:01:29Z</time></trkpt>
			<trkpt lat="54.841230" lon="21.517190"><ele>8.3</ele><time>2020-08-31T15:02:14Z</time></trkpt>
			<trkpt lat="54.842730" lon="21.519820"><ele>10.2</ele><time>2020-08-31T15:05:04Z</time></trkpt>
			<trkpt lat="54.843380" lon="21.521130"><ele>9.4</ele><time>2020-08-31T15:06:23Z</time></trkpt>
			<trkpt lat="54.843560" lon="21.521950"><ele>10.1</ele><time>2020-08-31T15:07:03Z</time></trkpt>
			<trkpt lat="54.843590" lon="21.522670"><ele>10.2</ele><time>2020-08-31T15:07:36Z</time></trkpt>
			<trkpt lat="54.842850" lon="21.528930"><ele>8.7</ele><time>2020-08-31T15:12:30Z</time></trkpt>
			<trkpt lat="54.833400" lon="21.533820"><ele>8.4</ele><time>2020-08-31T15:25:45Z</time></trkpt>
			<trkpt lat="54.825450" lon="21.538920"><ele>9.7</ele><time>2020-08-31T15:37:09Z</time></trkpt>
			<trkpt lat="54.825000" lon="21.539310"><ele>10.0</ele><time>2020-08-31T15:37:49Z</time></trkpt>
			<trkpt lat="54.824650" lon="21.539700"><ele>9.7</ele><time>2020-08-31T15:38:22Z</time></trkpt>
			<trkpt lat="54.824350" lon="21.540140"><ele>9.3</ele><time>2020-08-31T15:38:54Z</time></trkpt>
			<trkpt lat="54.823870" lon="21.541040"><ele>9.3</ele><time>2020-08-31T15:39:50Z</time></trkpt>
			<trkpt lat="54.822900" lon="21.543050"><ele>8.7</ele><time>2020-08-31T15:41:53Z</time></trkpt>
			<trkpt lat="54.818920" lon="21.551720"><ele>11.7</ele><time>2020-08-31T15:50:34Z</time></trkpt>
			<trkpt lat="54.817990" lon="21.553590"><ele>12.0</ele><time>2020-08-31T15:52:31Z</time></trkpt>
			<trkpt lat="54.815510" lon="21.557650"><ele>10.7</ele><time>2020-08-31T15:57:07Z</time></trkpt>
			<trkpt lat="54.811400" lon="21.565080"><ele>12.1</ele><time>2020-08-31T16:05:06Z</time></trkpt>
			<trkpt lat="54.808380" lon="21.569710"><ele>11.4</ele><time>2020-08-31T16:10:31Z</time></trkpt>
			<trkpt lat="54.807350" lon="21.570770"><ele>12.8</ele><time>2020-08-31T16:12:07Z</time></trkpt>
			<trkpt lat="54.806650" lon="21.571380"><ele>12.6</ele><time>2020-08-31T16:13:09Z</time></trkpt>
			<trkpt lat="54.805990" lon="21.572020"><ele>12.5</ele><time>2020-08-31T16:14:10Z</time></trkpt>
			<trkpt lat="54.805180" lon="21.573150"><ele>12.1</ele><time>2020-08-31T16:15:33Z</time></trkpt>
			<trkpt lat="54.804050" lon="21.575060"><ele>11.9</ele><time>2020-08-31T16:17:47Z</time></trkpt>
			<trkpt lat="54.803710" lon="21.577070"><ele>13.6</ele><time>2020-08-31T16:19:32Z</time></trkpt>
			<trkpt lat="54.803430" lon="21.578200"><ele>13.1</ele><time>2020-08-31T16:20:35Z</time></trkpt>
			<trkpt lat="54.801300" lon="21.582880"><ele>19.5</ele><time>2020-08-31T16:25:27Z</time></trkpt>
			<trkpt lat="54.800480" lon="21.584360"><ele>17.5</ele><time>2020-08-31T16:27:01Z</time></trkpt>
			<trkpt lat="54.799350" lon="21.583180"><ele>16.8</ele><time>2020-08-31T16:28:46Z</time></trkpt>
			<trkpt lat="54.799160" lon="21.583170"><ele>16.7</ele><time>2020-08-31T16:29:01Z</time></trkpt>
			<trkpt lat="54.799020" lon="21.583450"><ele>16.8</ele><time>2020-08-31T16:29:18Z</time></trkpt>
			<trkpt lat="54.798840" lon="21.584790"><ele>16.5</ele><time>2020-08-31T16:30:21Z</time></trkpt>
			<trkpt lat="54.798540" lon="21.585420"><ele>16.6</ele><time>2020-08-31T16:30:59Z</time></trkpt>
			<trkpt lat="54.796890" lon="21.588140"><ele>15.8</ele><time>2020-08-31T16:34:03Z</time></trkpt>
			<trkpt lat="54.796000" lon="21.589350"><ele>17.6</ele><time>2020-08-31T16:35:35Z</time></trkpt>
			<trkpt lat="54.791490" lon="21.594940"><ele>18.3</ele><time>2020-08-31T16:43:01Z</time></trkpt>
			<trkpt lat="54.790290" lon="21.596470"><ele>18.0</ele><time>2020-08-31T16:45:01Z</time></trkpt>
			<trkpt lat="54.789560" lon="21.597580"><ele>18.0</ele><time>2020-08-31T16:46:18Z</time></trkpt>
			<trkpt lat="54.786080" lon="21.603300"><ele>17.0</ele><time>2020-08-31T16:52:41Z</time></trkpt>
			<trkpt lat="54.785310" lon="21.604380"><ele>17.1</ele><time>2020-08-31T16:54:01Z</time></trkpt>
			<trkpt lat="54.782170" lon="21.607350"><ele>19.2</ele><time>2020-08-31T16:58:53Z</time></trkpt>
			<trkpt lat="54.779800" lon="21.609200"><ele>16.2</ele><time>2020-08-31T17:02:24Z</time></trkpt>
			<trkpt lat="54.776600" lon="21.611570"><ele>19.5</ele><time>2020-08-31T17:07:07Z</time></trkpt>
			<trkpt lat="54.774260" lon="21.613980"><ele>17.9</ele><time>2020-08-31T17:10:43Z</time></trkpt>
			<trkpt lat="54.773810" lon="21.614610"><ele>17.4</ele><time>2020-08-31T17:11:29Z</time></trkpt>
			<trkpt lat="54.773440" lon="21.615440"><ele>17.1</ele><time>2020-08-31T17:12:17Z</time></trkpt>
			<trkpt lat="54.772950" lon="21.616770"><ele>16.0</ele><time>2020-08-31T17:13:30Z</time></trkpt>
			<trkpt lat="54.772520" lon="21.617640"><ele>16.9</ele><time>2020-08-31T17:14:22Z</time></trkpt>
			<trkpt lat="54.769470" lon="21.622860"><ele>18.9</ele><time>2020-08-31T17:20:14Z</time></trkpt>
			<trkpt lat="54.767460" lon="21.626840"><ele>19.9</ele><time>2020-08-31T17:24:23Z</time></trkpt>
			<trkpt lat="54.765890" lon="21.629420"><ele>19.3</ele><time>2020-08-31T17:27:19Z</time></trkpt>
			<trkpt lat="54.763870" lon="21.632500"><ele>20.2</ele><time>2020-08-31T17:30:56Z</time></trkpt>
			<trkpt lat="54.761820" lon="21.636120"><ele>18.9</ele><time>2020-08-31T17:34:51Z</time></trkpt>
			<trkpt lat="54.760380" lon="21.638360"><ele>17.9</ele><time>2020-08-31T17:37:26Z</time></trkpt>
			<trkpt lat="54.759820" lon="21.638930"><ele>17.2</ele><time>2020-08-31T17:38:18Z</time></trkpt>
			<trkpt lat="54.759070" lon="21.639620"><ele>18.6</ele><time>2020-08-31T17:39:25Z</time></trkpt>
			<trkpt lat="54.758800" lon="21.639710"><ele>18.8</ele><time>2020-08-31T17:39:47Z</time></trkpt>
			<trkpt lat="54.758400" lon="21.639410"><ele>19.0</ele><time>2020-08-31T17:40:22Z</time></trkpt>
			<trkpt lat="54.757930" lon="21.639160"><ele>19.0</ele><time>2020-08-31T17:41:01Z</time></trkpt>
			<trkpt lat="54.757530" lon="21.639250"><ele>19.0</ele><time>2020-08-31T17:41:33Z</time></trkpt>
			<trkpt lat="54.756990" lon="21.639540"><ele>18.1</ele><time>2020-08-31T17:42:19Z</time></trkpt>
			<trkpt lat="54.756040" lon="21.640370"><ele>18.7</ele><time>2020-08-31T17:43:44Z</time></trkpt>
			<trkpt lat="54.755660" lon="21.640830"><ele>19.6</ele><time>2020-08-31T17:44:22Z</time></trkpt>
			<trkpt lat="54.755390" lon="21.640940"><ele>20.4</ele><time>2020-08-31T17:44:45Z</time></trkpt>
			<trkpt lat="54.754290" lon="21.640820"><ele>21.1</ele><time>2020-08-31T17:46:17Z</time></trkpt>
			<trkpt lat="54.750170" lon="21.640540"><ele>20.3</ele><time>2020-08-31T17:51:59Z</time></trkpt>
			<trkpt lat="54.749300" lon="21.640560"><ele>19.7</ele><time>2020-08-31T17:53:08Z</time></trkpt>
			<trkpt lat="54.746910" lon="21.642390"><ele>20.9</ele><time>2020-08-31T17:56:36Z</time></trkpt>
			<trkpt lat="54.743190" lon="21.645370"><ele>21.3</ele><time>2020-08-31T18:02:09Z</time></trkpt>
			<trkpt lat="54.741940" lon="21.646690"><ele>18.4</ele><time>2020-08-31T18:04:08Z</time></trkpt>
			<trkpt lat="54.741560" lon="21.647470"><ele>20.0</ele><time>2020-08-31T18:04:56Z</time></trkpt>
			<trkpt lat="54.740950" lon="21.648860"><ele>22.8</ele><time>2020-08-31T18:06:17Z</time></trkpt>
			<trkpt lat="54.740080" lon="21.650070"><ele>21.9</ele><time>2020-08-31T18:07:45Z</time></trkpt>
			<trkpt lat="54.737600" lon="21.653760"><ele>20.1</ele><time>2020-08-31T18:12:05Z</time></trkpt>
			<trkpt lat="54.735210" lon="21.657480"><ele>21.8</ele><time>2020-08-31T18:16:31Z</time></trkpt>
			<trkpt lat="54.734670" lon="21.657760"><ele>22.0</ele><time>2020-08-31T18:17:18Z</time></trkpt>
			<trkpt lat="54.731450" lon="21.658900"><ele>22.4</ele><time>2020-08-31T18:21:47Z</time></trkpt>
			<trkpt lat="54.731120" lon="21.659200"><ele>22.3</ele><time>2020-08-31T18:22:17Z</time></trkpt>
			<trkpt lat="54.729050" lon="21.661370"><ele>20.3</ele><time>2020-08-31T18:25:30Z</time></trkpt>
			<trkpt lat="54.725740" lon="21.664660"><ele>21.6</ele><time>2020-08-31T18:30:46Z</time></trkpt>
			<trkpt lat="54.722920" lon="21.668120"><ele>26.1</ele><time>2020-08-31T18:35:35Z</time></trkpt>
			<trkpt lat="54.722430" lon="21.668390"><ele>26.9</ele><time>2020-08-31T18:36:16Z</time></trkpt>
			<trkpt lat="54.721680" lon="21.668560"><ele>26.8</ele><time>2020-08-31T18:37:15Z</time></trkpt>
			<trkpt lat="54.718160" lon="21.668720"><ele>23.3</ele><time>2020-08-31T18:41:54Z</time></trkpt>
			<trkpt lat="54.716780" lon="21.669420"><ele>23.7</ele><time>2020-08-31T18:43:50Z</time></trkpt>
			<trkpt lat="54.712740" lon="21.673060"><ele>24.0</ele><time>2020-08-31T18:50:00Z</time></trkpt>
			<trkpt lat="54.712140" lon="21.673410"><ele>23.9</ele><time>2020-08-31T18:50:51Z</time></trkpt>
			<trkpt lat="54.711520" lon="21.673320"><ele>24.1</ele><time>2020-08-31T18:51:42Z</time></trkpt>
			<trkpt lat="54.707200" lon="21.672380"><ele>23.2</ele><time>2020-08-31T18:57:36Z</time></trkpt>
			<trkpt lat="54.705600" lon="21.671930"><ele>21.6</ele><time>2020-08-31T18:59:47Z</time></trkpt>
			<trkpt lat="54.703730" lon="21.672830"><ele>22.4</ele><time>2020-08-31T19:02:25Z</time></trkpt>
			<trkpt lat="54.703010" lon="21.673110"><ele>24.7</ele><time>2020-08-31T19:03:25Z</time></trkpt>
			<trkpt lat="54.702180" lon="21.673190"><ele>26.4</ele><time>2020-08-31T19:04:32Z</time></trkpt>
			<trkpt lat="54.701370" lon="21.673100"><ele>26.0</ele><time>2020-08-31T19:05:38Z</time></trkpt>
			<trkpt lat="54.700780" lon="21.672890"><ele>23.8</ele><time>2020-08-31T19:06:27Z</time></trkpt>
			<trkpt lat="54.700410" lon="21.672680"><ele>23.0</ele><time>2020-08-31T19:06:59Z</time></trkpt>
			<trkpt lat="54.700210" lon="21.672480"><ele>23.0</ele><time>2020-08-31T19:07:17Z</time></trkpt>
			<trkpt lat="54.699320" lon="21.673190"><ele>21.6</ele><time>2020-08-31T19:08:37Z</time></trkpt>
			<trkpt lat="54.698710" lon="21.673140"><ele>22.6</ele><time>2020-08-31T19:09:27Z</time></trkpt>
			<trkpt lat="54.698390" lon="21.673300"><ele>23.7</ele><time>2020-08-31T19:09:54Z</time></trkpt>
			<trkpt lat="54.698100" lon="21.673550"><ele>24.4</ele><time>2020-08-31T19:10:20Z</time></trkpt>
			<trkpt lat="54.697830" lon="21.673920"><ele>25.6</ele><time>2020-08-31T19:10:48Z</time></trkpt>
			<trkpt lat="54.696060" lon="21.676850"><ele>26.6</ele><time>2020-08-31T19:14:11Z</time></trkpt>
			<trkpt lat="54.693930" lon="21.679620"><ele>29.6</ele><time>2020-08-31T19:17:53Z</time></trkpt>
			<trkpt lat="54.689630" lon="21.685730"><ele>32.4</ele><time>2020-08-31T19:25:38Z</time></trkpt>
			<trkpt lat="54.681460" lon="21.697760"><ele>26.6</ele><time>2020-08-31T19:39:48Z</time></trkpt>
			<trkpt lat="54.681180" lon="21.698060"><ele>26.5</ele><time>2020-08-31T19:40:15Z</time></trkpt>
			<trkpt lat="54.680900" lon="21.698150"><ele>26.7</ele><time>2020-08-31T19:40:37Z</time></trkpt>
			<trkpt lat="54.675740" lon="21.698200"><ele>27.9</ele><time>2020-08-31T19:47:36Z</time></trkpt>
			<trkpt lat="54.674310" lon="21.698710"><ele>27.5</ele><time>2020-08-31T19:49:34Z</time></trkpt>
			<trkpt lat="54.673410" lon="21.699340"><ele>28.0</ele><time>2020-08-31T19:50:51Z</time></trkpt>
			<trkpt lat="54.671350" lon="21.701040"><ele>29.2</ele><time>2020-08-31T19:53:54Z</time></trkpt>
			<trkpt lat="54.671070" lon="21.701580"><ele>28.1</ele><time>2020-08-31T19:54:28Z</time></trkpt>
			<trkpt lat="54.670820" lon="21.702410"><ele>28.0</ele><time>2020-08-31T19:55:11Z</time></trkpt>
			<trkpt lat="54.670930" lon="21.703810"><ele>29.4</ele><time>2020-08-31T19:56:16Z</time></trkpt>
			<trkpt lat="54.671480" lon="21.707300"><ele>27.8</ele><time>2020-08-31T19:59:03Z</time></trkpt>
			<trkpt lat="54.671450" lon="21.708310"><ele>28.6</ele><time>2020-08-31T19:59:50Z</time></trkpt>
			<trkpt lat="54.671160" lon="21.709760"><ele>27.6</ele><time>2020-08-31T20:01:01Z</time></trkpt>
			<trkpt lat="54.670800" lon="21.710490"><ele>27.0</ele><time>2020-08-31T20:01:45Z</time></trkpt>
			<trkpt lat="54.670390" lon="21.710990"><ele>26.8</ele><time>2020-08-31T20:02:25Z</time></trkpt>
			<trkpt lat="54.669520" lon="21.711420"><ele>26.1</ele><time>2020-08-31T20:03:36Z</time></trkpt>
			<trkpt lat="54.664200" lon="21.713870"><ele>23.6</ele><time>2020-08-31T20:10:58Z</time></trkpt>
			<trkpt lat="54.658940" lon="21.716440"><ele>26.9</ele><time>2020-08-31T20:18:31Z</time></trkpt>
			<trkpt lat="54.655400" lon="21.717630"><ele>21.8</ele><time>2020-08-31T20:23:12Z</time></trkpt>
			<trkpt lat="54.653540" lon="21.718150"><ele>22.6</ele><time>2020-08-31T20:25:38Z</time></trkpt>
			<trkpt lat="54.651550" lon="21.720350"><ele>15.5</ele><time>2020-08-31T20:28:39Z</time></trkpt>
			<trkpt lat="54.651810" lon="21.723460"><ele>12.9</ele><time>2020-08-31T20:31:00Z</time></trkpt>
			<trkpt lat="54.651990" lon="21.728070"><ele>12.7</ele><time>2020-08-31T20:34:34Z</time></trkpt>
			<trkpt lat="54.651690" lon="21.733900"><ele>12.8</ele><time>2020-08-31T20:39:06Z</time></trkpt>
			<trkpt lat="54.651530" lon="21.736300"><ele>13.9</ele><time>2020-08-31T20:41:00Z</time></trkpt>
			<trkpt lat="54.651150" lon="21.740610"><ele>13.3</ele><time>2020-08-31T20:44:25Z</time></trkpt>
			<trkpt lat="54.650790" lon="21.745340"><ele>15.1</ele><time>2020-08-31T20:48:05Z</time></trkpt>
			<trkpt lat="54.650680" lon="21.746160"><ele>15.5</ele><time>2020-08-31T20:48:44Z</time></trkpt>
			<trkpt lat="54.650310" lon="21.747480"><ele>13.9</ele><time>2020-08-31T20:49:51Z</time></trkpt>
			<trkpt lat="54.650100" lon="21.748810"><ele>12.7</ele><time>2020-08-31T20:50:54Z</time></trkpt>
			<trkpt lat="54.648880" lon="21.757450"><ele>11.4</ele><time>2020-08-31T20:57:50Z</time></trkpt>
			<trkpt lat="54.648670" lon="21.758760"><ele>13.0</ele><time>2020-08-31T20:58:54Z</time></trkpt>
			<trkpt lat="54.648520" lon="21.760460"><ele>13.3</ele><time>2020-08-31T21:00:16Z</time></trkpt>
			<trkpt lat="54.648410" lon="21.762690"><ele>15.2</ele><time>2020-08-31T21:02:06Z</time></trkpt>
			<trkpt lat="54.648570" lon="21.765430"><ele>15.5</ele><time>2020-08-31T21:04:20Z</time></trkpt>
			<trkpt lat="54.648750" lon="21.773360"><ele>16.8</ele><time>2020-08-31T21:10:37Z</time></trkpt>
			<trkpt lat="54.649650" lon="21.779590"><ele>13.8</ele><time>2020-08-31T21:15:33Z</time></trkpt>
			<trkpt lat="54.651330" lon="21.786380"><ele>13.4</ele><time>2020-08-31T21:21:10Z</time></trkpt>
			<trkpt lat="54.651740" lon="21.787030"><ele>13.9</ele><time>2020-08-31T21:21:54Z</time></trkpt>
			<trkpt lat="54.654300" lon="21.792540"><ele>14.2</ele><time>2020-08-31T21:27:22Z</time></trkpt>
			<trkpt lat="54.654850" lon="21.793870"><ele>13.4</ele><time>2020-08-31T21:28:37Z</time></trkpt>
			<trkpt lat="54.655750" lon="21.797610"><ele>19.7</ele><time>2020-08-31T21:32:09Z</time></trkpt>
			<trkpt lat="54.656210" lon="21.799200"><ele>19.0</ele><time>2020-08-31T21:33:43Z</time></trkpt>
			<trkpt lat="54.657480" lon="21.801530"><ele>24.0</ele><time>2020-08-31T21:36:31Z</time></trkpt>
			<trkpt lat="54.657710" lon="21.802430"><ele>21.5</ele><time>2020-08-31T21:37:17Z</time></trkpt>
			<trkpt lat="54.658190" lon="21.803760"><ele>18.9</ele><time>2020-08-31T21:38:26Z</time></trkpt>
			<trkpt lat="54.658840" lon="21.805020"><ele>18.0</ele><time>2020-08-31T21:39:40Z</time></trkpt>
			<trkpt lat="54.659520" lon="21.805930"><ele>18.4</ele><time>2020-08-31T21:40:45Z</time></trkpt>
			<trkpt lat="54.660040" lon="21.806440"><ele>18.8</ele><time>2020-08-31T21:41:30Z</time></trkpt>
			<trkpt lat="54.660170" lon="21.806810"><ele>17.6</ele><time>2020-08-31T21:41:49Z</time></trkpt>
			<trkpt lat="54.659360" lon="21.809490"><ele>10.2</ele><time>2020-08-31T21:44:05Z</time></trkpt>
			<trkpt lat="54.658840" lon="21.810570"><ele>10.7</ele><time>2020-08-31T21:45:14Z</time></trkpt>
			<trkpt lat="54.658490" lon="21.811200"><ele>12.4</ele><time>2020-08-31T21:45:57Z</time></trkpt>
			<trkpt lat="54.658250" lon="21.811420"><ele>12.9</ele><time>2020-08-31T21:46:21Z</time></trkpt>
			<trkpt lat="54.657950" lon="21.811580"><ele>13.9</ele><time>2020-08-31T21:46:47Z</time></trkpt>
			<trkpt lat="54.651930" lon="21.813800"><ele>14.2</ele><time>2020-08-31T21:55:18Z</time></trkpt>
			<trkpt lat="54.651400" lon="21.814020"><ele>14.8</ele><time>2020-08-31T21:56:01Z</time></trkpt>
			<trkpt lat="54.650850" lon="21.814130"><ele>15.9</ele><time>2020-08-31T21:56:46Z</time></trkpt>
			<trkpt lat="54.650440" lon="21.814050"><ele>16.2</ele><time>2020-08-31T21:57:19Z</time></trkpt>
			<trkpt lat="54.650030" lon="21.813800"><ele>16.1</ele><time>2020-08-31T21:57:54Z</time></trkpt>
			<trkpt lat="54.649520" lon="21.813140"><ele>16.3</ele><time>2020-08-31T21:58:45Z</time></trkpt>
			<trkpt lat="54.647950" lon="21.810690"><ele>18.8</ele><time>2020-08-31T22:01:34Z</time></trkpt>
			<trkpt lat="54.647400" lon="21.809910"><ele>18.3</ele><time>2020-08-31T22:02:31Z</time></trkpt>
			<trkpt lat="54.647140" lon="21.809620"><ele>18.5</ele><time>2020-08-31T22:02:55Z</time></trkpt>
			<trkpt lat="54.646870" lon="21.809380"><ele>18.1</ele><time>2020-08-31T22:03:20Z</time></trkpt>
			<trkpt lat="54.646390" lon="21.809130"><ele>16.6</ele><time>2020-08-31T22:04:00Z</time></trkpt>
			<trkpt lat="54.644530" lon="21.808860"><ele>15.2</ele><time>2020-08-31T22:06:32Z</time></trkpt>
			<trkpt lat="54.641660" lon="21.807470"><ele>16.1</ele><time>2020-08-31T22:10:47Z</time></trkpt>
			<trkpt lat="54.640230" lon="21.807610"><ele>18.6</ele><time>2020-08-31T22:12:49Z</time></trkpt>
			<trkpt lat="54.640230" lon="21.807620"><ele>18.6</ele><time>2020-08-31T22:12:49Z</time></trkpt>
			<trkpt lat="54.640140" lon="21.807630"><ele>18.9</ele><time>2020-08-31T22:13:09Z</time></trkpt>
			<trkpt lat="54.639530" lon="21.807590"><ele>20.3</ele><time>2020-08-31T22:13:29Z</time></trkpt>
			<trkpt lat="54.639520" lon="21.807600"><ele>20.2</ele><time>2020-08-31T22:13:50Z</time></trkpt>
			<trkpt lat="54.639520" lon="21.807600"><ele>20.2</ele><time>2020-08-31T22:13:50Z</time></trkpt>
			<trkpt lat="54.639480" lon="21.807880"><ele>19.5</ele><time>2020-08-31T22:13:51Z</time></trkpt>
			<trkpt lat="54.639430" lon="21.808140"><ele>19.0</ele><time>2020-08-31T22:13:52Z</time></trkpt>
			<trkpt lat="54.639330" lon="21.808480"><ele>18.7</ele><time>2020-08-31T22:13:53Z</time></trkpt>
			<trkpt lat="54.639280" lon="21.808610"><ele>18.7</ele><time>2020-08-31T22:13:54Z</time></trkpt>
			<trkpt lat="54.639200" lon="21.808750"><ele>18.8</ele><time>2020-08-31T22:13:55Z</time></trkpt>
			<trkpt lat="54.639020" lon="21.808910"><ele>19.3</ele><time>2020-08-31T22:13:56Z</time></trkpt>
			<trkpt lat="54.638780" lon="21.809060"><ele>20.0</ele><time>2020-08-31T22:13:57Z</time></trkpt>
			<trkpt lat="54.638650" lon="21.809170"><ele>20.5</ele><time>2020-08-31T22:13:58Z</time></trkpt>
			<trkpt lat="54.638550" lon="21.809290"><ele>20.9</ele><time>2020-08-31T22:13:59Z</time></trkpt>
			<trkpt lat="54.638420" lon="21.809560"><ele>21.5</ele><time>2020-08-31T22:14:00Z</time></trkpt>
			<trkpt lat="54.638200" lon="21.810110"><ele>22.5</ele><time>2020-08-31T22:14:01Z</time></trkpt>
			<trkpt lat="54.638090" lon="21.810330"><ele>23.0</ele><time>2020-08-31T22:14:02Z</time></trkpt>
			<trkpt lat="54.637980" lon="21.810550"><ele>23.4</ele><time>2020-08-31T22:14:03Z</time></trkpt>
			<trkpt lat="54.637980" lon="21.810620"><ele>23.4</ele><time>2020-08-31T22:14:04Z</time></trkpt>
			<trkpt lat="54.637980" lon="21.810640"><ele>23.4</ele><time>2020-08-31T22:14:05Z</time></trkpt>
			<trkpt lat="54.637980" lon="21.810640"><ele>23.4</ele><time>2020-08-31T22:14:05Z</time></trkpt>
			<trkpt lat="54.637980" lon="21.810620"><ele>23.4</ele><time>2020-08-31T22:14:06Z</time></trkpt>
			<trkpt lat="54.637980" lon="21.810550"><ele>23.5</ele><time>2020-08-31T22:14:07Z</time></trkpt>
			<trkpt lat="54.637480" lon="21.809550"><ele>23.6</ele><time>2020-08-31T22:14:08Z</time></trkpt>
			<trkpt lat="54.637360" lon="21.809340"><ele>23.9</ele><time>2020-08-31T22:14:09Z</time></trkpt>
			<trkpt lat="54.637210" lon="21.809000"><ele>24.2</ele><time>2020-08-31T22:14:10Z</time></trkpt>
			<trkpt lat="54.637050" lon="21.808540"><ele>24.3</ele><time>2020-08-31T22:14:11Z</time></trkpt>
			<trkpt lat="54.636690" lon="21.807400"><ele>23.8</ele><time>2020-08-31T22:14:12Z</time></trkpt>
			<trkpt lat="54.636460" lon="21.806630"><ele>22.8</ele><time>2020-08-31T22:14:13Z</time></trkpt>
			<trkpt lat="54.636420" lon="21.806670"><ele>22.8</ele><time>2020-08-31T22:14:14Z</time></trkpt>
			<trkpt lat="54.636170" lon="21.806880"><ele>22.8</ele><time>2020-08-31T22:14:15Z</time></trkpt>
			<trkpt lat="54.635810" lon="21.807240"><ele>23.4</ele><time>2020-08-31T22:14:16Z</time></trkpt>
			<trkpt lat="54.635780" lon="21.807270"><ele>23.5</ele><time>2020-08-31T22:14:17Z</time></trkpt>
			<trkpt lat="54.635470" lon="21.807570"><ele>24.7</ele><time>2020-08-31T22:14:18Z</time></trkpt>
			<trkpt lat="54.635120" lon="21.807950"><ele>26.4</ele><time>2020-08-31T22:14:19Z</time></trkpt>
			<trkpt lat="54.634890" lon="21.808250"><ele>27.7</ele><time>2020-08-31T22:14:20Z</time></trkpt>
			<trkpt lat="54.634890" lon="21.808250"><ele>27.7</ele><time>2020-08-31T22:14:20Z</time></trkpt>
			<trkpt lat="54.634680" lon="21.808510"><ele>28.5</ele><time>2020-08-31T22:15:43Z</time></trkpt>
			<trkpt lat="54.634390" lon="21.808880"><ele>29.8</ele><time>2020-08-31T22:17:06Z</time></trkpt>
			<trkpt lat="54.634160" lon="21.809190"><ele>31.0</ele><time>2020-08-31T22:18:29Z</time></trkpt>
			<trkpt lat="54.633850" lon="21.809550"><ele>31.6</ele><time>2020-08-31T22:19:52Z</time></trkpt>
			<trkpt lat="54.632950" lon="21.810650"><ele>32.1</ele><time>2020-08-31T22:21:15Z</time></trkpt>
			<trkpt lat="54.632920" lon="21.810700"><ele>32.1</ele><time>2020-08-31T22:22:38Z</time></trkpt>
			<trkpt lat="54.631960" lon="21.811770"><ele>31.1</ele><time>2020-08-31T22:24:01Z</time></trkpt>
			<trkpt lat="54.631900" lon="21.811830"><ele>31.2</ele><time>2020-08-31T22:25:24Z</time></trkpt>
			<trkpt lat="54.630790" lon="21.813130"><ele>33.7</ele><time>2020-08-31T22:26:47Z</time></trkpt>
			<trkpt lat="54.630750" lon="21.813160"><ele>33.7</ele><time>2020-08-31T22:28:10Z</time></trkpt>
			<trkpt lat="54.630640" lon="21.813260"><ele>33.7</ele><time>2020-08-31T22:29:33Z</time></trkpt>
			<trkpt lat="54.630670" lon="21.813580"><ele>34.1</ele><time>2020-08-31T22:30:56Z</time></trkpt>
			<trkpt lat="54.630670" lon="21.814720"><ele>35.3</ele><time>2020-08-31T22:32:19Z</time></trkpt>
			<trkpt lat="54.630660" lon="21.815120"><ele>35.5</ele><time>2020-08-31T22:33:42Z</time></trkpt>
			<trkpt lat="54.630630" lon="21.815490"><ele>35.1</ele><time>2020-08-31T22:35:05Z</time></trkpt>
			<trkpt lat="54.630570" lon="21.816060"><ele>34.7</ele><time>2020-08-31T22:36:28Z</time></trkpt>
			<trkpt lat="54.630460" lon="21.816990"><ele>34.3</ele><time>2020-08-31T22:37:51Z</time></trkpt>
			<trkpt lat="54.630390" lon="21.817520"><ele>34.1</ele><time>2020-08-31T22:39:14Z</time></trkpt>
			<trkpt lat="54.630220" lon="21.819190"><ele>35.7</ele><time>2020-08-31T22:40:37Z</time></trkpt>
			<trkpt lat="54.630170" lon="21.819700"><ele>36.2</ele><time>2020-08-31T22:42:00Z</time></trkpt>
			<trkpt lat="54.630090" lon="21.820570"><ele>36.2</ele><time>2020-08-31T22:43:23Z</time></trkpt>
			<trkpt lat="54.629440" lon="21.829290"><ele>34.3</ele><time>2020-08-31T22:50:09Z</time></trkpt>
			<trkpt lat="54.629380" lon="21.829650"><ele>34.1</ele><time>2020-08-31T22:50:26Z</time></trkpt>
			<trkpt lat="54.627050" lon="21.839440"><ele>38.2</ele><time>2020-08-31T22:59:00Z</time></trkpt>
			<trkpt lat="54.626970" lon="21.840180"><ele>38.5</ele><time>2020-08-31T22:59:35Z</time></trkpt>
			<trkpt lat="54.626310" lon="21.861350"><ele>36.3</ele><time>2020-08-31T23:15:58Z</time></trkpt>
			<trkpt lat="54.625940" lon="21.866060"><ele>35.7</ele><time>2020-08-31T23:19:37Z</time></trkpt>
			<trkpt lat="54.625770" lon="21.866380"><ele>35.2</ele><time>2020-08-31T23:19:57Z</time></trkpt>
			<trkpt lat="54.625740" lon="21.866570"><ele>35.1</ele><time>2020-08-31T23:20:06Z</time></trkpt>
			<trkpt lat="54.625820" lon="21.866800"><ele>35.0</ele><time>2020-08-31T23:20:18Z</time></trkpt>
			<trkpt lat="54.625870" lon="21.866840"><ele>35.0</ele><time>2020-08-31T23:20:23Z</time></trkpt>
			<trkpt lat="54.624880" lon="21.878790"><ele>30.1</ele><time>2020-08-31T23:29:43Z</time></trkpt>
			<trkpt lat="54.624750" lon="21.879340"><ele>29.6</ele><time>2020-08-31T23:30:12Z</time></trkpt>
			<trkpt lat="54.623780" lon="21.882590"><ele>32.3</ele><time>2020-08-31T23:33:08Z</time></trkpt>
			<trkpt lat="54.622930" lon="21.885310"><ele>33.1</ele><time>2020-08-31T23:35:37Z</time></trkpt>
			<trkpt lat="54.622700" lon="21.886300"><ele>34.1</ele><time>2020-08-31T23:36:27Z</time></trkpt>
			<trkpt lat="54.621100" lon="21.895420"><ele>38.0</ele><time>2020-08-31T23:43:57Z</time></trkpt>
			<trkpt lat="54.620610" lon="21.898060"><ele>36.5</ele><time>2020-08-31T23:46:04Z</time></trkpt>
			<trkpt lat="54.620430" lon="21.898620"><ele>36.5</ele><time>2020-08-31T23:46:34Z</time></trkpt>
			<trkpt lat="54.619690" lon="21.900530"><ele>35.8</ele><time>2020-08-31T23:48:20Z</time></trkpt>
			<trkpt lat="54.619290" lon="21.900490"><ele>35.7</ele><time>2020-08-31T23:48:51Z</time></trkpt>
			<trkpt lat="54.617650" lon="21.900760"><ele>33.8</ele><time>2020-08-31T23:51:02Z</time></trkpt>
			<trkpt lat="54.612280" lon="21.901880"><ele>32.8</ele><time>2020-08-31T23:58:17Z</time></trkpt>
			<trkpt lat="54.610170" lon="21.901920"><ele>31.8</ele><time>2020-09-01T00:01:15Z</time></trkpt>
			<trkpt lat="54.609860" lon="21.901820"><ele>31.8</ele><time>2020-09-01T00:01:42Z</time></trkpt>
			<trkpt lat="54.609550" lon="21.901570"><ele>32.1</ele><time>2020-09-01T00:02:11Z</time></trkpt>
			<trkpt lat="54.608010" lon="21.899990"><ele>38.3</ele><time>2020-09-01T00:04:42Z</time></trkpt>
			<trkpt lat="54.607630" lon="21.899790"><ele>38.8</ele><time>2020-09-01T00:05:15Z</time></trkpt>
			<trkpt lat="54.603900" lon="21.899660"><ele>38.9</ele><time>2020-09-01T00:10:22Z</time></trkpt>
			<trkpt lat="54.591440" lon="21.899080"><ele>36.8</ele><time>2020-09-01T00:26:59Z</time></trkpt>
			<trkpt lat="54.591050" lon="21.898900"><ele>36.5</ele><time>2020-09-01T00:27:32Z</time></trkpt>
			<trkpt lat="54.588980" lon="21.897630"><ele>36.2</ele><time>2020-09-01T00:30:30Z</time></trkpt>
			<trkpt lat="54.588640" lon="21.897510"><ele>36.0</ele><time>2020-09-01T00:30:59Z</time></trkpt>
			<trkpt lat="54.588390" lon="21.897480"><ele>36.0</ele><time>2020-09-01T00:31:19Z</time></trkpt>
			<trkpt lat="54.588080" lon="21.897540"><ele>36.1</ele><time>2020-09-01T00:31:44Z</time></trkpt>
			<trkpt lat="54.580850" lon="21.901670"><ele>42.1</ele><time>2020-09-01T00:42:39Z</time></trkpt>
			<trkpt lat="54.579170" lon="21.902680"><ele>41.9</ele><time>2020-09-01T00:45:13Z</time></trkpt>
			<trkpt lat="54.576590" lon="21.903460"><ele>49.2</ele><time>2020-09-01T00:48:56Z</time></trkpt>
			<trkpt lat="54.576210" lon="21.903650"><ele>49.8</ele><time>2020-09-01T00:49:28Z</time></trkpt>
			<trkpt lat="54.576000" lon="21.903860"><ele>49.3</ele><time>2020-09-01T00:49:48Z</time></trkpt>
			<trkpt lat="54.575790" lon="21.904200"><ele>48.0</ele><time>2020-09-01T00:50:11Z</time></trkpt>
			<trkpt lat="54.573460" lon="21.908360"><ele>51.0</ele><time>2020-09-01T00:54:41Z</time></trkpt>
			<trkpt lat="54.573100" lon="21.908650"><ele>49.7</ele><time>2020-09-01T00:55:13Z</time></trkpt>
			<trkpt lat="54.567730" lon="21.909760"><ele>46.0</ele><time>2020-09-01T01:02:21Z</time></trkpt>
			<trkpt lat="54.566930" lon="21.909950"><ele>45.3</ele><time>2020-09-01T01:03:26Z</time></trkpt>
			<trkpt lat="54.566290" lon="21.910240"><ele>45.3</ele><time>2020-09-01T01:04:21Z</time></trkpt>
			<trkpt lat="54.565070" lon="21.910920"><ele>46.1</ele><time>2020-09-01T01:06:06Z</time></trkpt>
			<trkpt lat="54.564630" lon="21.911080"><ele>46.6</ele><time>2020-09-01T01:06:43Z</time></trkpt>
			<trkpt lat="54.563380" lon="21.910980"><ele>47.7</ele><time>2020-09-01T01:08:26Z</time></trkpt>
			<trkpt lat="54.561910" lon="21.912240"><ele>48.7</ele><time>2020-09-01T01:10:40Z</time></trkpt>
			<trkpt lat="54.558520" lon="21.916430"><ele>46.4</ele><time>2020-09-01T01:16:13Z</time></trkpt>
			<trkpt lat="54.555260" lon="21.919010"><ele>48.6</ele><time>2020-09-01T01:21:09Z</time></trkpt>
			<trkpt lat="54.551190" lon="21.921710"><ele>51.6</ele><time>2020-09-01T01:27:18Z</time></trkpt>
			<trkpt lat="54.550110" lon="21.922670"><ele>52.7</ele><time>2020-09-01T01:29:03Z</time></trkpt>
			<trkpt lat="54.548840" lon="21.923920"><ele>55.4</ele><time>2020-09-01T01:31:10Z</time></trkpt>
			<trkpt lat="54.546350" lon="21.925970"><ele>58.2</ele><time>2020-09-01T01:35:09Z</time></trkpt>
			<trkpt lat="54.543840" lon="21.927160"><ele>60.4</ele><time>2020-09-01T01:38:54Z</time></trkpt>
			<trkpt lat="54.543250" lon="21.927500"><ele>62.1</ele><time>2020-09-01T01:39:48Z</time></trkpt>
			<trkpt lat="54.542930" lon="21.927620"><ele>62.4</ele><time>2020-09-01T01:40:16Z</time></trkpt>
			<trkpt lat="54.542480" lon="21.927600"><ele>62.9</ele><time>2020-09-01T01:40:53Z</time></trkpt>
			<trkpt lat="54.541600" lon="21.927400"><ele>63.8</ele><time>2020-09-01T01:42:07Z</time></trkpt>
			<trkpt lat="54.538060" lon="21.927680"><ele>64.9</ele><time>2020-09-01T01:47:03Z</time></trkpt>
			<trkpt lat="54.537750" lon="21.927760"><ele>64.9</ele><time>2020-09-01T01:47:29Z</time></trkpt>
			<trkpt lat="54.537490" lon="21.927880"><ele>65.0</ele><time>2020-09-01T01:47:51Z</time></trkpt>
			<trkpt lat="54.537190" lon="21.928100"><ele>65.2</ele><time>2020-09-01T01:48:18Z</time></trkpt>
			<trkpt lat="54.532130" lon="21.933950"><ele>70.2</ele><time>2020-09-01T01:56:50Z</time></trkpt>
			<trkpt lat="54.530000" lon="21.936320"><ele>73.8</ele><time>2020-09-01T02:00:29Z</time></trkpt>
			<trkpt lat="54.529790" lon="21.936470"><ele>73.5</ele><time>2020-09-01T02:00:49Z</time></trkpt>
			<trkpt lat="54.529570" lon="21.936580"><ele>73.2</ele><time>2020-09-01T02:01:08Z</time></trkpt>
			<trkpt lat="54.529340" lon="21.936620"><ele>73.1</ele><time>2020-09-01T02:01:28Z</time></trkpt>
			<trkpt lat="54.526700" lon="21.936250"><ele>72.0</ele><time>2020-09-01T02:05:12Z</time></trkpt>
			<trkpt lat="54.523900" lon="21.936420"><ele>78.8</ele><time>2020-09-01T02:09:08Z</time></trkpt>
			<trkpt lat="54.523680" lon="21.936500"><ele>78.5</ele><time>2020-09-01T02:09:26Z</time></trkpt>
			<trkpt lat="54.523520" lon="21.936630"><ele>78.4</ele><time>2020-09-01T02:09:41Z</time></trkpt>
			<trkpt lat="54.522050" lon="21.940040"><ele>74.2</ele><time>2020-09-01T02:12:52Z</time></trkpt>
			<trkpt lat="54.520540" lon="21.943330"><ele>66.9</ele><time>2020-09-01T02:15:57Z</time></trkpt>
			<trkpt lat="54.520180" lon="21.943800"><ele>65.9</ele><time>2020-09-01T02:16:31Z</time></trkpt>
			<trkpt lat="54.518010" lon="21.946010"><ele>63.6</ele><time>2020-09-01T02:19:52Z</time></trkpt>
			<trkpt lat="54.517520" lon="21.946670"><ele>64.0</ele><time>2020-09-01T02:20:43Z</time></trkpt>
			<trkpt lat="54.514400" lon="21.951240"><ele>63.4</ele><time>2020-09-01T02:26:12Z</time></trkpt>
			<trkpt lat="54.514190" lon="21.951480"><ele>63.7</ele><time>2020-09-01T02:26:32Z</time></trkpt>
			<trkpt lat="54.513980" lon="21.951620"><ele>63.9</ele><time>2020-09-01T02:26:50Z</time></trkpt>
			<trkpt lat="54.513720" lon="21.951710"><ele>64.0</ele><time>2020-09-01T02:27:11Z</time></trkpt>
			<trkpt lat="54.510610" lon="21.951660"><ele>62.0</ele><time>2020-09-01T02:31:16Z</time></trkpt>
			<trkpt lat="54.510070" lon="21.951780"><ele>62.2</ele><time>2020-09-01T02:32:00Z</time></trkpt>
			<trkpt lat="54.505280" lon="21.954050"><ele>67.7</ele><time>2020-09-01T02:39:10Z</time></trkpt>
			<trkpt lat="54.501540" lon="21.955780"><ele>69.1</ele><time>2020-09-01T02:44:41Z</time></trkpt>
			<trkpt lat="54.501070" lon="21.956150"><ele>69.9</ele><time>2020-09-01T02:45:25Z</time></trkpt>
			<trkpt lat="54.498520" lon="21.959420"><ele>77.9</ele><time>2020-09-01T02:49:59Z</time></trkpt>
			<trkpt lat="54.498160" lon="21.959750"><ele>77.8</ele><time>2020-09-01T02:50:34Z</time></trkpt>
			<trkpt lat="54.497460" lon="21.960270"><ele>77.7</ele><time>2020-09-01T02:51:40Z</time></trkpt>
			<trkpt lat="54.497290" lon="21.960430"><ele>77.7</ele><time>2020-09-01T02:51:57Z</time></trkpt>
			<trkpt lat="54.496410" lon="21.961830"><ele>77.0</ele><time>2020-09-01T02:53:41Z</time></trkpt>
			<trkpt lat="54.496170" lon="21.962130"><ele>77.5</ele><time>2020-09-01T02:54:06Z</time></trkpt>
			<trkpt lat="54.490240" lon="21.967020"><ele>94.9</ele><time>2020-09-01T03:04:34Z</time></trkpt>
			<trkpt lat="54.489970" lon="21.967340"><ele>95.6</ele><time>2020-09-01T03:05:05Z</time></trkpt>
			<trkpt lat="54.489730" lon="21.967670"><ele>96.0</ele><time>2020-09-01T03:05:35Z</time></trkpt>
			<trkpt lat="54.489490" lon="21.968090"><ele>96.5</ele><time>2020-09-01T03:06:08Z</time></trkpt>
			<trkpt lat="54.489290" lon="21.968560"><ele>96.7</ele><time>2020-09-01T03:06:41Z</time></trkpt>
			<trkpt lat="54.487600" lon="21.973170"><ele>108.8</ele><time>2020-09-01T03:11:49Z</time></trkpt>
			<trkpt lat="54.487360" lon="21.973580"><ele>110.3</ele><time>2020-09-01T03:12:20Z</time></trkpt>
			<trkpt lat="54.484360" lon="21.976710"><ele>118.8</ele><time>2020-09-01T03:17:16Z</time></trkpt>
			<trkpt lat="54.481870" lon="21.979490"><ele>108.3</ele><time>2020-09-01T03:21:17Z</time></trkpt>
			<trkpt lat="54.480580" lon="21.980450"><ele>103.1</ele><time>2020-09-01T03:23:05Z</time></trkpt>
			<trkpt lat="54.480110" lon="21.981050"><ele>102.6</ele><time>2020-09-01T03:23:50Z</time></trkpt>
			<trkpt lat="54.479610" lon="21.981580"><ele>101.6</ele><time>2020-09-01T03:24:35Z</time></trkpt>
			<trkpt lat="54.479340" lon="21.981730"><ele>101.2</ele><time>2020-09-01T03:24:56Z</time></trkpt>
			<trkpt lat="54.478890" lon="21.981890"><ele>101.3</ele><time>2020-09-01T03:25:31Z</time></trkpt>
			<trkpt lat="54.477520" lon="21.982250"><ele>106.3</ele><time>2020-09-01T03:27:24Z</time></trkpt>
			<trkpt lat="54.476420" lon="21.982610"><ele>109.2</ele><time>2020-09-01T03:29:03Z</time></trkpt>
			<trkpt lat="54.476280" lon="21.982720"><ele>108.8</ele><time>2020-09-01T03:29:16Z</time></trkpt>
			<trkpt lat="54.476160" lon="21.982900"><ele>108.5</ele><time>2020-09-01T03:29:31Z</time></trkpt>
			<trkpt lat="54.474310" lon="21.987160"><ele>107.5</ele><time>2020-09-01T03:34:05Z</time></trkpt>
			<trkpt lat="54.474080" lon="21.987510"><ele>110.9</ele><time>2020-09-01T03:34:32Z</time></trkpt>
			<trkpt lat="54.473910" lon="21.987640"><ele>113.4</ele><time>2020-09-01T03:34:48Z</time></trkpt>
			<trkpt lat="54.472680" lon="21.988080"><ele>128.8</ele><time>2020-09-01T03:36:34Z</time></trkpt>
			<trkpt lat="54.471620" lon="21.988390"><ele>134.4</ele><time>2020-09-01T03:38:05Z</time></trkpt>
			<trkpt lat="54.471380" lon="21.988420"><ele>131.8</ele><time>2020-09-01T03:38:25Z</time></trkpt>
			<trkpt lat="54.470040" lon="21.988410"><ele>120.0</ele><time>2020-09-01T03:40:18Z</time></trkpt>
			<trkpt lat="54.469920" lon="21.988450"><ele>119.2</ele><time>2020-09-01T03:40:28Z</time></trkpt>
			<trkpt lat="54.469800" lon="21.988570"><ele>118.6</ele><time>2020-09-01T03:40:40Z</time></trkpt>
			<trkpt lat="54.469690" lon="21.988500"><ele>118.3</ele><time>2020-09-01T03:40:50Z</time></trkpt>
			<trkpt lat="54.468060" lon="21.988140"><ele>113.4</ele><time>2020-09-01T03:43:11Z</time></trkpt>
			<trkpt lat="54.467840" lon="21.988060"><ele>113.1</ele><time>2020-09-01T03:43:30Z</time></trkpt>
			<trkpt lat="54.464340" lon="21.985370"><ele>122.9</ele><time>2020-09-01T03:49:06Z</time></trkpt>
			<trkpt lat="54.463960" lon="21.985160"><ele>123.3</ele><time>2020-09-01T03:49:41Z</time></trkpt>
			<trkpt lat="54.463760" lon="21.985110"><ele>123.2</ele><time>2020-09-01T03:49:59Z</time></trkpt>
			<trkpt lat="54.461770" lon="21.984830"><ele>125.8</ele><time>2020-09-01T03:53:02Z</time></trkpt>
			<trkpt lat="54.457940" lon="21.984510"><ele>133.2</ele><time>2020-09-01T03:58:47Z</time></trkpt>
			<trkpt lat="54.455440" lon="21.985440"><ele>127.3</ele><time>2020-09-01T04:01:59Z</time></trkpt>
			<trkpt lat="54.455280" lon="21.985540"><ele>126.3</ele><time>2020-09-01T04:02:12Z</time></trkpt>
			<trkpt lat="54.453880" lon="21.987240"><ele>120.5</ele><time>2020-09-01T04:04:21Z</time></trkpt>
			<trkpt lat="54.452360" lon="21.989330"><ele>123.8</ele><time>2020-09-01T04:06:50Z</time></trkpt>
			<trkpt lat="54.450510" lon="21.991760"><ele>120.3</ele><time>2020-09-01T04:09:51Z</time></trkpt>
			<trkpt lat="54.450300" lon="21.992110"><ele>119.1</ele><time>2020-09-01T04:10:14Z</time></trkpt>
			<trkpt lat="54.450130" lon="21.992520"><ele>118.0</ele><time>2020-09-01T04:10:36Z</time></trkpt>
			<trkpt lat="54.449620" lon="21.994110"><ele>112.8</ele><time>2020-09-01T04:11:58Z</time></trkpt>
			<trkpt lat="54.449490" lon="21.994450"><ele>111.7</ele><time>2020-09-01T04:12:17Z</time></trkpt>
			<trkpt lat="54.449300" lon="21.994820"><ele>110.1</ele><time>2020-09-01T04:12:40Z</time></trkpt>
			<trkpt lat="54.448920" lon="21.995330"><ele>108.5</ele><time>2020-09-01T04:13:18Z</time></trkpt>
			<trkpt lat="54.448680" lon="21.995570"><ele>108.2</ele><time>2020-09-01T04:13:40Z</time></trkpt>
			<trkpt lat="54.448400" lon="21.995780"><ele>108.0</ele><time>2020-09-01T04:14:04Z</time></trkpt>
			<trkpt lat="54.443990" lon="21.997930"><ele>108.7</ele><time>2020-09-01T04:20:05Z</time></trkpt>
			<trkpt lat="54.443380" lon="21.998130"><ele>109.2</ele><time>2020-09-01T04:20:52Z</time></trkpt>
			<trkpt lat="54.442180" lon="21.998340"><ele>111.0</ele><time>2020-09-01T04:22:25Z</time></trkpt>
			<trkpt lat="54.441160" lon="21.998440"><ele>108.6</ele><time>2020-09-01T04:23:44Z</time></trkpt>
			<trkpt lat="54.438860" lon="21.998120"><ele>99.5</ele><time>2020-09-01T04:26:42Z</time></trkpt>
			<trkpt lat="54.438150" lon="21.998110"><ele>98.9</ele><time>2020-09-01T04:27:38Z</time></trkpt>
			<trkpt lat="54.437860" lon="21.998170"><ele>98.9</ele><time>2020-09-01T04:28:01Z</time></trkpt>
			<trkpt lat="54.437570" lon="21.998300"><ele>98.9</ele><time>2020-09-01T04:28:25Z</time></trkpt>
			<trkpt lat="54.432220" lon="22.001330"><ele>99.2</ele><time>2020-09-01T04:35:55Z</time></trkpt>
			<trkpt lat="54.431970" lon="22.001400"><ele>99.8</ele><time>2020-09-01T04:36:15Z</time></trkpt>
			<trkpt lat="54.431410" lon="22.001490"><ele>100.9</ele><time>2020-09-01T04:37:01Z</time></trkpt>
			<trkpt lat="54.428540" lon="22.001900"><ele>99.1</ele><time>2020-09-01T04:40:55Z</time></trkpt>
			<trkpt lat="54.428170" lon="22.002010"><ele>99.3</ele><time>2020-09-01T04:41:25Z</time></trkpt>
			<trkpt lat="54.426580" lon="22.002830"><ele>101.9</ele><time>2020-09-01T04:43:38Z</time></trkpt>
			<trkpt lat="54.425130" lon="22.003620"><ele>99.5</ele><time>2020-09-01T04:45:40Z</time></trkpt>
			<trkpt lat="54.424660" lon="22.004030"><ele>98.1</ele><time>2020-09-01T04:46:22Z</time></trkpt>
			<trkpt lat="54.419500" lon="22.009630"><ele>96.8</ele><time>2020-09-01T04:54:25Z</time></trkpt>
			<trkpt lat="54.416340" lon="22.013870"><ele>87.9</ele><time>2020-09-01T04:59:23Z</time></trkpt>
			<trkpt lat="54.415950" lon="22.014200"><ele>85.0</ele><time>2020-09-01T04:59:55Z</time></trkpt>
			<trkpt lat="54.414210" lon="22.015470"><ele>77.7</ele><time>2020-09-01T05:02:19Z</time></trkpt>
			<trkpt lat="54.414010" lon="22.015570"><ele>77.4</ele><time>2020-09-01T05:02:35Z</time></trkpt>
			<trkpt lat="54.413790" lon="22.015650"><ele>77.1</ele><time>2020-09-01T05:02:53Z</time></trkpt>
			<trkpt lat="54.412310" lon="22.015770"><ele>73.6</ele><time>2020-09-01T05:04:50Z</time></trkpt>
			<trkpt lat="54.410950" lon="22.016560"><ele>71.2</ele><time>2020-09-01T05:06:44Z</time></trkpt>
			<trkpt lat="54.409810" lon="22.016590"><ele>74.9</ele><time>2020-09-01T05:08:14Z</time></trkpt>
			<trkpt lat="54.409700" lon="22.016530"><ele>75.3</ele><time>2020-09-01T05:08:23Z</time></trkpt>
			<trkpt lat="54.409540" lon="22.016350"><ele>75.9</ele><time>2020-09-01T05:08:40Z</time></trkpt>
			<trkpt lat="54.409090" lon="22.014830"><ele>78.5</ele><time>2020-09-01T05:10:12Z</time></trkpt>
			<trkpt lat="54.408830" lon="22.013250"><ele>79.0</ele><time>2020-09-01T05:11:41Z</time></trkpt>
			<trkpt lat="54.408766" lon="22.012787"><ele>79.0</ele><time>2020-09-01T05:12:02Z</time></trkpt>
			<trkpt lat="54.408530" lon="22.012770"><ele>79.4</ele><time>2020-09-01T05:12:33Z</time></trkpt>
			<trkpt lat="54.408340" lon="22.012790"><ele>79.6</ele><time>2020-09-01T05:12:51Z</time></trkpt>
			<trkpt lat="54.408200" lon="22.012740"><ele>79.7</ele><time>2020-09-01T05:13:04Z</time></trkpt>
			<trkpt lat="54.407130" lon="22.004510"><ele>93.2</ele><time>2020-09-01T05:20:37Z</time></trkpt>
			<trkpt lat="54.406960" lon="22.002970"><ele>93.5</ele><time>2020-09-01T05:22:01Z</time></trkpt>
			<trkpt lat="54.406960" lon="22.002660"><ele>93.9</ele><time>2020-09-01T05:22:18Z</time></trkpt>
			<trkpt lat="54.407270" lon="22.000830"><ele>97.1</ele><time>2020-09-01T05:24:00Z</time></trkpt>
			<trkpt lat="54.408340" lon="21.993760"><ele>98.0</ele><time>2020-09-01T05:29:46Z</time></trkpt>
			<trkpt lat="54.408380" lon="21.993190"><ele>98.0</ele><time>2020-09-01T05:30:12Z</time></trkpt>
			<trkpt lat="54.408140" lon="21.990850"><ele>97.0</ele><time>2020-09-01T05:32:02Z</time></trkpt>
			<trkpt lat="54.406970" lon="21.984420"><ele>104.5</ele><time>2020-09-01T05:37:53Z</time></trkpt>
			<trkpt lat="54.404500" lon="21.971890"><ele>105.8</ele><time>2020-09-01T05:48:26Z</time></trkpt>
			<trkpt lat="54.404040" lon="21.969950"><ele>105.1</ele><time>2020-09-01T05:50:13Z</time></trkpt>
			<trkpt lat="54.403200" lon="21.966770"><ele>109.9</ele><time>2020-09-01T05:53:11Z</time></trkpt>
			<trkpt lat="54.403110" lon="21.966300"><ele>109.9</ele><time>2020-09-01T05:53:36Z</time></trkpt>
			<trkpt lat="54.402750" lon="21.962660"><ele>109.9</ele><time>2020-09-01T05:56:39Z</time></trkpt>
			<trkpt lat="54.402460" lon="21.959070"><ele>110.2</ele><time>2020-09-01T05:59:33Z</time></trkpt>
			<trkpt lat="54.402330" lon="21.957060"><ele>113.1</ele><time>2020-09-01T06:01:09Z</time></trkpt>
			<trkpt lat="54.402100" lon="21.952320"><ele>111.1</ele><time>2020-09-01T06:04:53Z</time></trkpt>
			<trkpt lat="54.401340" lon="21.939760"><ele>112.0</ele><time>2020-09-01T06:14:52Z</time></trkpt>
			<trkpt lat="54.401260" lon="21.938930"><ele>112.2</ele><time>2020-09-01T06:15:33Z</time></trkpt>
			<trkpt lat="54.401060" lon="21.937730"><ele>113.3</ele><time>2020-09-01T06:16:34Z</time></trkpt>
			<trkpt lat="54.400300" lon="21.934750"><ele>117.5</ele><time>2020-09-01T06:19:13Z</time></trkpt>
			<trkpt lat="54.398340" lon="21.930170"><ele>120.1</ele><time>2020-09-01T06:23:52Z</time></trkpt>
			<trkpt lat="54.396630" lon="21.926060"><ele>119.4</ele><time>2020-09-01T06:27:58Z</time></trkpt>
			<trkpt lat="54.396310" lon="21.925390"><ele>120.6</ele><time>2020-09-01T06:28:40Z</time></trkpt>
			<trkpt lat="54.396010" lon="21.924980"><ele>121.6</ele><time>2020-09-01T06:29:12Z</time></trkpt>
			<trkpt lat="54.394160" lon="21.923210"><ele>121.9</ele><time>2020-09-01T06:32:09Z</time></trkpt>
			<trkpt lat="54.388910" lon="21.916730"><ele>125.4</ele><time>2020-09-01T06:41:05Z</time></trkpt>
			<trkpt lat="54.388590" lon="21.916300"><ele>126.5</ele><time>2020-09-01T06:41:38Z</time></trkpt>
			<trkpt lat="54.388340" lon="21.915820"><ele>127.9</ele><time>2020-09-01T06:42:09Z</time></trkpt>
			<trkpt lat="54.388200" lon="21.915400"><ele>128.4</ele><time>2020-09-01T06:42:32Z</time></trkpt>
			<trkpt lat="54.386810" lon="21.910700"><ele>125.2</ele><time>2020-09-01T06:46:41Z</time></trkpt>
			<trkpt lat="54.386570" lon="21.910050"><ele>125.8</ele><time>2020-09-01T06:47:18Z</time></trkpt>
			<trkpt lat="54.386330" lon="21.909670"><ele>125.8</ele><time>2020-09-01T06:47:45Z</time></trkpt>
			<trkpt lat="54.385470" lon="21.908850"><ele>126.6</ele><time>2020-09-01T06:49:07Z</time></trkpt>
			<trkpt lat="54.385110" lon="21.908380"><ele>127.7</ele><time>2020-09-01T06:49:44Z</time></trkpt>
			<trkpt lat="54.384830" lon="21.907830"><ele>127.4</ele><time>2020-09-01T06:50:20Z</time></trkpt>
			<trkpt lat="54.381160" lon="21.899260"><ele>128.5</ele><time>2020-09-01T06:58:44Z</time></trkpt>
			<trkpt lat="54.380870" lon="21.898360"><ele>128.9</ele><time>2020-09-01T06:59:32Z</time></trkpt>
			<trkpt lat="54.380130" lon="21.895040"><ele>127.7</ele><time>2020-09-01T07:02:14Z</time></trkpt>
			<trkpt lat="54.379920" lon="21.894270"><ele>127.1</ele><time>2020-09-01T07:02:51Z</time></trkpt>
			<trkpt lat="54.373800" lon="21.877020"><ele>109.5</ele><time>2020-09-01T07:18:10Z</time></trkpt>
			<trkpt lat="54.373600" lon="21.876350"><ele>111.6</ele><time>2020-09-01T07:18:46Z</time></trkpt>
			<trkpt lat="54.373470" lon="21.875660"><ele>112.8</ele><time>2020-09-01T07:19:21Z</time></trkpt>
			<trkpt lat="54.372270" lon="21.867400"><ele>109.6</ele><time>2020-09-01T07:26:29Z</time></trkpt>
			<trkpt lat="54.370620" lon="21.861200"><ele>122.7</ele><time>2020-09-01T07:32:26Z</time></trkpt>
			<trkpt lat="54.368510" lon="21.852940"><ele>133.1</ele><time>2020-09-01T07:40:23Z</time></trkpt>
			<trkpt lat="54.367700" lon="21.850180"><ele>135.3</ele><time>2020-09-01T07:43:06Z</time></trkpt>
			<trkpt lat="54.366630" lon="21.845910"><ele>141.9</ele><time>2020-09-01T07:47:12Z</time></trkpt>
			<trkpt lat="54.366310" lon="21.844760"><ele>139.7</ele><time>2020-09-01T07:48:11Z</time></trkpt>
			<trkpt lat="54.365950" lon="21.843840"><ele>140.6</ele><time>2020-09-01T07:49:01Z</time></trkpt>
			<trkpt lat="54.364550" lon="21.840700"><ele>140.3</ele><time>2020-09-01T07:52:00Z</time></trkpt>
			<trkpt lat="54.363040" lon="21.837170"><ele>132.1</ele><time>2020-09-01T07:55:26Z</time></trkpt>
			<trkpt lat="54.362720" lon="21.836030"><ele>129.3</ele><time>2020-09-01T07:56:31Z</time></trkpt>
			<trkpt lat="54.361740" lon="21.829450"><ele>142.2</ele><time>2020-09-01T08:02:22Z</time></trkpt>
			<trkpt lat="54.361700" lon="21.824550"><ele>145.8</ele><time>2020-09-01T08:06:23Z</time></trkpt>
			<trkpt lat="54.361560" lon="21.821910"><ele>145.5</ele><time>2020-09-01T08:08:33Z</time></trkpt>
			<trkpt lat="54.361620" lon="21.821060"><ele>145.7</ele><time>2020-09-01T08:09:15Z</time></trkpt>
			<trkpt lat="54.361850" lon="21.820080"><ele>145.6</ele><time>2020-09-01T08:10:06Z</time></trkpt>
			<trkpt lat="54.364850" lon="21.812220"><ele>134.7</ele><time>2020-09-01T08:17:03Z</time></trkpt>
			<trkpt lat="54.365250" lon="21.811050"><ele>132.8</ele><time>2020-09-01T08:18:03Z</time></trkpt>
			<trkpt lat="54.367240" lon="21.803580"><ele>124.3</ele><time>2020-09-01T08:24:09Z</time></trkpt>
			<trkpt lat="54.367450" lon="21.803200"><ele>125.0</ele><time>2020-09-01T08:24:33Z</time></trkpt>
			<trkpt lat="54.372410" lon="21.798030"><ele>120.9</ele><time>2020-09-01T08:32:06Z</time></trkpt>
			<trkpt lat="54.372710" lon="21.797530"><ele>119.6</ele><time>2020-09-01T08:32:37Z</time></trkpt>
			<trkpt lat="54.372890" lon="21.796110"><ele>112.6</ele><time>2020-09-01T08:33:40Z</time></trkpt>
			<trkpt lat="54.373060" lon="21.795410"><ele>110.1</ele><time>2020-09-01T08:34:12Z</time></trkpt>
			<trkpt lat="54.373390" lon="21.794960"><ele>108.8</ele><time>2020-09-01T08:34:43Z</time></trkpt>
			<trkpt lat="54.376650" lon="21.793090"><ele>105.3</ele><time>2020-09-01T08:39:10Z</time></trkpt>
			<trkpt lat="54.376950" lon="21.792640"><ele>107.2</ele><time>2020-09-01T08:39:43Z</time></trkpt>
			<trkpt lat="54.377140" lon="21.791950"><ele>108.6</ele><time>2020-09-01T08:40:20Z</time></trkpt>
			<trkpt lat="54.377440" lon="21.771710"><ele>109.5</ele><time>2020-09-01T08:56:19Z</time></trkpt>
			<trkpt lat="54.377500" lon="21.771070"><ele>109.3</ele><time>2020-09-01T08:56:49Z</time></trkpt>
			<trkpt lat="54.377590" lon="21.765440"><ele>104.0</ele><time>2020-09-01T09:01:07Z</time></trkpt>
			<trkpt lat="54.377480" lon="21.762920"><ele>102.0</ele><time>2020-09-01T09:03:01Z</time></trkpt>
			<trkpt lat="54.375980" lon="21.734610"><ele>93.4</ele><time>2020-09-01T09:25:07Z</time></trkpt>
			<trkpt lat="54.375840" lon="21.731070"><ele>96.7</ele><time>2020-09-01T09:28:06Z</time></trkpt>
			<trkpt lat="54.375570" lon="21.728870"><ele>94.9</ele><time>2020-09-01T09:29:50Z</time></trkpt>
			<trkpt lat="54.373730" lon="21.715990"><ele>91.3</ele><time>2020-09-01T09:40:02Z</time></trkpt>
			<trkpt lat="54.373500" lon="21.714840"><ele>90.5</ele><time>2020-09-01T09:40:58Z</time></trkpt>
			<trkpt lat="54.376000" lon="21.713820"><ele>89.4</ele><time>2020-09-01T09:44:18Z</time></trkpt>
			<trkpt lat="54.376490" lon="21.713650"><ele>89.5</ele><time>2020-09-01T09:44:56Z</time></trkpt>
			<trkpt lat="54.377730" lon="21.712140"><ele>84.8</ele><time>2020-09-01T09:46:52Z</time></trkpt>
			<trkpt lat="54.378080" lon="21.711410"><ele>84.2</ele><time>2020-09-01T09:47:34Z</time></trkpt>
			<trkpt lat="54.378270" lon="21.711150"><ele>83.7</ele><time>2020-09-01T09:47:53Z</time></trkpt>
			<trkpt lat="54.378470" lon="21.710980"><ele>83.3</ele><time>2020-09-01T09:48:10Z</time></trkpt>
			<trkpt lat="54.378950" lon="21.710720"><ele>82.7</ele><time>2020-09-01T09:48:49Z</time></trkpt>
			<trkpt lat="54.379170" lon="21.710540"><ele>82.3</ele><time>2020-09-01T09:49:07Z</time></trkpt>
			<trkpt lat="54.379390" lon="21.710290"><ele>81.5</ele><time>2020-09-01T09:49:28Z</time></trkpt>
			<trkpt lat="54.380870" lon="21.708260"><ele>80.0</ele><time>2020-09-01T09:51:58Z</time></trkpt>
			<trkpt lat="54.381410" lon="21.707420"><ele>80.3</ele><time>2020-09-01T09:52:55Z</time></trkpt>
			<trkpt lat="54.381800" lon="21.707080"><ele>80.5</ele><time>2020-09-01T09:53:30Z</time></trkpt>
			<trkpt lat="54.382610" lon="21.706630"><ele>79.8</ele><time>2020-09-01T09:54:37Z</time></trkpt>
			<trkpt lat="54.383110" lon="21.706280"><ele>78.8</ele><time>2020-09-01T09:55:20Z</time></trkpt>
			<trkpt lat="54.383330" lon="21.706030"><ele>78.4</ele><time>2020-09-01T09:55:41Z</time></trkpt>
			<trkpt lat="54.384090" lon="21.704980"><ele>77.9</ele><time>2020-09-01T09:56:58Z</time></trkpt>
			<trkpt lat="54.385130" lon="21.703820"><ele>76.2</ele><time>2020-09-01T09:58:36Z</time></trkpt>
			<trkpt lat="54.385360" lon="21.703530"><ele>75.8</ele><time>2020-09-01T09:58:59Z</time></trkpt>
			<trkpt lat="54.385710" lon="21.702950"><ele>74.9</ele><time>2020-09-01T09:59:38Z</time></trkpt>
			<trkpt lat="54.386690" lon="21.700940"><ele>75.9</ele><time>2020-09-01T10:01:39Z</time></trkpt>
			<trkpt lat="54.386780" lon="21.700880"><ele>76.0</ele><time>2020-09-01T10:01:47Z</time></trkpt>
			<trkpt lat="54.386820" lon="21.700910"><ele>76.1</ele><time>2020-09-01T10:01:50Z</time></trkpt>
			<trkpt lat="54.387650" lon="21.701980"><ele>77.9</ele><time>2020-09-01T10:03:13Z</time></trkpt>
			<trkpt lat="54.387980" lon="21.702490"><ele>75.9</ele><time>2020-09-01T10:03:48Z</time></trkpt>
			<trkpt lat="54.388260" lon="21.702810"><ele>74.5</ele><time>2020-09-01T10:04:14Z</time></trkpt>
			<trkpt lat="54.388610" lon="21.701800"><ele>74.1</ele><time>2020-09-01T10:05:07Z</time></trkpt>
			<trkpt lat="54.388700" lon="21.701660"><ele>73.5</ele><time>2020-09-01T10:05:17Z</time></trkpt>
			<trkpt lat="54.388790" lon="21.701630"><ele>72.7</ele><time>2020-09-01T10:05:24Z</time></trkpt>
			<trkpt lat="54.388960" lon="21.701790"><ele>71.1</ele><time>2020-09-01T10:05:39Z</time></trkpt>
			<trkpt lat="54.389340" lon="21.702550"><ele>69.6</ele><time>2020-09-01T10:06:25Z</time></trkpt>
			<trkpt lat="54.389970" lon="21.704390"><ele>73.5</ele><time>2020-09-01T10:08:01Z</time></trkpt>
			<trkpt lat="54.390260" lon="21.705010"><ele>72.7</ele><time>2020-09-01T10:08:38Z</time></trkpt>
			<trkpt lat="54.390680" lon="21.705640"><ele>71.8</ele><time>2020-09-01T10:09:21Z</time></trkpt>
			<trkpt lat="54.391140" lon="21.706140"><ele>71.0</ele><time>2020-09-01T10:10:04Z</time></trkpt>
			<trkpt lat="54.391490" lon="21.706670"><ele>71.6</ele><time>2020-09-01T10:10:41Z</time></trkpt>
			<trkpt lat="54.391890" lon="21.707500"><ele>74.5</ele><time>2020-09-01T10:11:34Z</time></trkpt>
			<trkpt lat="54.395350" lon="21.715230"><ele>75.4</ele><time>2020-09-01T10:19:33Z</time></trkpt>
			<trkpt lat="54.396070" lon="21.717660"><ele>80.0</ele><time>2020-09-01T10:21:47Z</time></trkpt>
			<trkpt lat="54.396790" lon="21.719690"><ele>78.8</ele><time>2020-09-01T10:23:43Z</time></trkpt>
			<trkpt lat="54.398630" lon="21.724460"><ele>76.7</ele><time>2020-09-01T10:28:25Z</time></trkpt>
			<trkpt lat="54.400130" lon="21.728590"><ele>82.6</ele><time>2020-09-01T10:32:24Z</time></trkpt>
			<trkpt lat="54.400390" lon="21.729010"><ele>82.5</ele><time>2020-09-01T10:32:54Z</time></trkpt>
			<trkpt lat="54.400640" lon="21.729300"><ele>82.9</ele><time>2020-09-01T10:33:19Z</time></trkpt>
			<trkpt lat="54.401400" lon="21.729850"><ele>80.6</ele><time>2020-09-01T10:34:22Z</time></trkpt>
			<trkpt lat="54.401670" lon="21.730100"><ele>79.6</ele><time>2020-09-01T10:34:46Z</time></trkpt>
			<trkpt lat="54.401820" lon="21.730370"><ele>78.8</ele><time>2020-09-01T10:35:02Z</time></trkpt>
			<trkpt lat="54.402330" lon="21.732060"><ele>76.4</ele><time>2020-09-01T10:36:28Z</time></trkpt>
			<trkpt lat="54.402750" lon="21.733100"><ele>77.0</ele><time>2020-09-01T10:37:24Z</time></trkpt>
			<trkpt lat="54.402910" lon="21.733360"><ele>76.9</ele><time>2020-09-01T10:37:41Z</time></trkpt>
			<trkpt lat="54.403440" lon="21.733710"><ele>75.4</ele><time>2020-09-01T10:38:25Z</time></trkpt>
			<trkpt lat="54.403740" lon="21.733740"><ele>74.7</ele><time>2020-09-01T10:38:48Z</time></trkpt>
			<trkpt lat="54.404030" lon="21.733720"><ele>73.8</ele><time>2020-09-01T10:39:10Z</time></trkpt>
			<trkpt lat="54.404740" lon="21.733600"><ele>73.7</ele><time>2020-09-01T10:40:05Z</time></trkpt>
			<trkpt lat="54.405570" lon="21.733730"><ele>72.6</ele><time>2020-09-01T10:41:11Z</time></trkpt>
			<trkpt lat="54.406670" lon="21.734720"><ele>71.1</ele><time>2020-09-01T10:42:48Z</time></trkpt>
			<trkpt lat="54.407550" lon="21.735870"><ele>68.6</ele><time>2020-09-01T10:44:16Z</time></trkpt>
			<trkpt lat="54.409500" lon="21.738930"><ele>71.7</ele><time>2020-09-01T10:47:48Z</time></trkpt>
			<trkpt lat="54.414080" lon="21.734030"><ele>80.2</ele><time>2020-09-01T10:55:47Z</time></trkpt>
			<trkpt lat="54.414990" lon="21.732400"><ele>78.6</ele><time>2020-09-01T10:57:28Z</time></trkpt>
			<trkpt lat="54.415350" lon="21.731880"><ele>76.3</ele><time>2020-09-01T10:58:04Z</time></trkpt>
			<trkpt lat="54.428990" lon="21.719460"><ele>54.6</ele><time>2020-09-01T11:18:03Z</time></trkpt>
			<trkpt lat="54.430240" lon="21.718360"><ele>54.7</ele><time>2020-09-01T11:19:56Z</time></trkpt>
			<trkpt lat="54.433060" lon="21.716070"><ele>57.2</ele><time>2020-09-01T11:24:06Z</time></trkpt>
			<trkpt lat="54.433600" lon="21.715500"><ele>58.3</ele><time>2020-09-01T11:24:56Z</time></trkpt>
			<trkpt lat="54.434070" lon="21.714940"><ele>59.0</ele><time>2020-09-01T11:25:41Z</time></trkpt>
			<trkpt lat="54.434260" lon="21.714780"><ele>59.2</ele><time>2020-09-01T11:25:58Z</time></trkpt>
			<trkpt lat="54.445070" lon="21.711100"><ele>47.9</ele><time>2020-09-01T11:40:27Z</time></trkpt>
			<trkpt lat="54.447860" lon="21.710100"><ele>47.0</ele><time>2020-09-01T11:44:14Z</time></trkpt>
			<trkpt lat="54.448820" lon="21.709800"><ele>47.5</ele><time>2020-09-01T11:45:32Z</time></trkpt>
			<trkpt lat="54.457020" lon="21.706960"><ele>48.5</ele><time>2020-09-01T11:56:48Z</time></trkpt>
			<trkpt lat="54.459110" lon="21.699750"><ele>47.0</ele><time>2020-09-01T12:03:02Z</time></trkpt>
			<trkpt lat="54.462200" lon="21.688790"><ele>40.7</ele><time>2020-09-01T12:12:19Z</time></trkpt>
			<trkpt lat="54.462240" lon="21.688430"><ele>40.9</ele><time>2020-09-01T12:12:35Z</time></trkpt>
			<trkpt lat="54.462130" lon="21.684630"><ele>43.0</ele><time>2020-09-01T12:15:40Z</time></trkpt>
			<trkpt lat="54.463580" lon="21.654420"><ele>44.5</ele><time>2020-09-01T12:39:28Z</time></trkpt>
			<trkpt lat="54.463790" lon="21.651280"><ele>44.7</ele><time>2020-09-01T12:41:55Z</time></trkpt>
			<trkpt lat="54.464140" lon="21.649050"><ele>42.8</ele><time>2020-09-01T12:43:42Z</time></trkpt>
			<trkpt lat="54.465000" lon="21.644470"><ele>42.0</ele><time>2020-09-01T12:47:24Z</time></trkpt>
			<trkpt lat="54.468580" lon="21.624790"><ele>39.8</ele><time>2020-09-01T13:03:19Z</time></trkpt>
			<trkpt lat="54.468760" lon="21.623580"><ele>38.8</ele><time>2020-09-01T13:04:18Z</time></trkpt>
			<trkpt lat="54.468740" lon="21.622970"><ele>38.5</ele><time>2020-09-01T13:04:47Z</time></trkpt>
			<trkpt lat="54.468590" lon="21.622030"><ele>39.1</ele><time>2020-09-01T13:05:35Z</time></trkpt>
			<trkpt lat="54.468800" lon="21.620630"><ele>40.1</ele><time>2020-09-01T13:06:45Z</time></trkpt>
			<trkpt lat="54.471460" lon="21.604910"><ele>42.8</ele><time>2020-09-01T13:19:35Z</time></trkpt>
			<trkpt lat="54.471620" lon="21.603670"><ele>43.3</ele><time>2020-09-01T13:20:33Z</time></trkpt>
			<trkpt lat="54.471760" lon="21.602970"><ele>41.6</ele><time>2020-09-01T13:21:07Z</time></trkpt>
			<trkpt lat="54.471790" lon="21.601870"><ele>40.1</ele><time>2020-09-01T13:21:57Z</time></trkpt>
			<trkpt lat="54.470940" lon="21.582100"><ele>37.9</ele><time>2020-09-01T13:37:40Z</time></trkpt>
			<trkpt lat="54.470940" lon="21.580650"><ele>39.2</ele><time>2020-09-01T13:38:46Z</time></trkpt>
			<trkpt lat="54.471050" lon="21.579970"><ele>39.8</ele><time>2020-09-01T13:39:19Z</time></trkpt>
			<trkpt lat="54.471370" lon="21.579380"><ele>38.9</ele><time>2020-09-01T13:39:56Z</time></trkpt>
			<trkpt lat="54.471840" lon="21.578680"><ele>38.1</ele><time>2020-09-01T13:40:45Z</time></trkpt>
			<trkpt lat="54.485730" lon="21.560190"><ele>39.5</ele><time>2020-09-01T14:04:29Z</time></trkpt>
			<trkpt lat="54.485780" lon="21.559300"><ele>40.6</ele><time>2020-09-01T14:05:12Z</time></trkpt>
			<trkpt lat="54.486240" lon="21.554680"><ele>41.0</ele><time>2020-09-01T14:09:02Z</time></trkpt>
			<trkpt lat="54.486350" lon="21.552420"><ele>38.6</ele><time>2020-09-01T14:10:48Z</time></trkpt>
			<trkpt lat="54.486430" lon="21.551780"><ele>37.9</ele><time>2020-09-01T14:11:17Z</time></trkpt>
			<trkpt lat="54.487260" lon="21.549400"><ele>35.4</ele><time>2020-09-01T14:13:22Z</time></trkpt>
			<trkpt lat="54.487890" lon="21.547830"><ele>33.0</ele><time>2020-09-01T14:14:48Z</time></trkpt>
			<trkpt lat="54.488490" lon="21.546090"><ele>33.9</ele><time>2020-09-01T14:16:20Z</time></trkpt>
			<trkpt lat="54.490290" lon="21.531350"><ele>35.1</ele><time>2020-09-01T14:28:14Z</time></trkpt>
			<trkpt lat="54.490550" lon="21.530120"><ele>36.3</ele><time>2020-09-01T14:29:19Z</time></trkpt>
			<trkpt lat="54.493080" lon="21.519570"><ele>33.5</ele><time>2020-09-01T14:38:10Z</time></trkpt>
			<trkpt lat="54.493280" lon="21.518950"><ele>32.4</ele><time>2020-09-01T14:38:42Z</time></trkpt>
			<trkpt lat="54.493620" lon="21.518450"><ele>31.5</ele><time>2020-09-01T14:39:18Z</time></trkpt>
			<trkpt lat="54.494120" lon="21.517960"><ele>31.5</ele><time>2020-09-01T14:40:03Z</time></trkpt>
			<trkpt lat="54.494810" lon="21.517190"><ele>31.1</ele><time>2020-09-01T14:41:09Z</time></trkpt>
			<trkpt lat="54.495250" lon="21.516820"><ele>30.6</ele><time>2020-09-01T14:41:48Z</time></trkpt>
			<trkpt lat="54.497790" lon="21.514940"><ele>31.1</ele><time>2020-09-01T14:45:27Z</time></trkpt>
			<trkpt lat="54.498290" lon="21.514370"><ele>30.4</ele><time>2020-09-01T14:46:15Z</time></trkpt>
			<trkpt lat="54.498760" lon="21.513330"><ele>29.1</ele><time>2020-09-01T14:47:16Z</time></trkpt>
			<trkpt lat="54.498830" lon="21.512750"><ele>29.0</ele><time>2020-09-01T14:47:43Z</time></trkpt>
			<trkpt lat="54.498990" lon="21.512230"><ele>29.3</ele><time>2020-09-01T14:48:11Z</time></trkpt>
			<trkpt lat="54.499450" lon="21.511840"><ele>29.8</ele><time>2020-09-01T14:48:52Z</time></trkpt>
			<trkpt lat="54.499940" lon="21.511240"><ele>30.0</ele><time>2020-09-01T14:49:40Z</time></trkpt>
			<trkpt lat="54.499990" lon="21.510850"><ele>30.0</ele><time>2020-09-01T14:49:58Z</time></trkpt>
			<trkpt lat="54.499640" lon="21.509820"><ele>29.6</ele><time>2020-09-01T14:50:53Z</time></trkpt>
			<trkpt lat="54.499520" lon="21.508220"><ele>30.4</ele><time>2020-09-01T14:52:08Z</time></trkpt>
			<trkpt lat="54.499570" lon="21.506790"><ele>30.5</ele><time>2020-09-01T14:53:16Z</time></trkpt>
			<trkpt lat="54.500010" lon="21.505000"><ele>31.0</ele><time>2020-09-01T14:54:51Z</time></trkpt>
			<trkpt lat="54.501030" lon="21.501920"><ele>32.5</ele><time>2020-09-01T14:57:45Z</time></trkpt>
			<trkpt lat="54.502890" lon="21.493580"><ele>33.5</ele><time>2020-09-01T15:04:48Z</time></trkpt>
			<trkpt lat="54.503370" lon="21.488600"><ele>31.9</ele><time>2020-09-01T15:08:41Z</time></trkpt>
			<trkpt lat="54.503320" lon="21.485540"><ele>31.0</ele><time>2020-09-01T15:11:00Z</time></trkpt>
			<trkpt lat="54.502920" lon="21.474260"><ele>30.4</ele><time>2020-09-01T15:19:46Z</time></trkpt>
			<trkpt lat="54.502380" lon="21.456310"><ele>30.4</ele><time>2020-09-01T15:33:53Z</time></trkpt>
			<trkpt lat="54.501820" lon="21.436260"><ele>27.9</ele><time>2020-09-01T15:49:20Z</time></trkpt>
			<trkpt lat="54.501730" lon="21.435000"><ele>27.0</ele><time>2020-09-01T15:50:18Z</time></trkpt>
			<trkpt lat="54.501400" lon="21.433900"><ele>26.0</ele><time>2020-09-01T15:51:16Z</time></trkpt>
			<trkpt lat="54.500780" lon="21.433390"><ele>26.0</ele><time>2020-09-01T15:52:13Z</time></trkpt>
			<trkpt lat="54.500570" lon="21.433080"><ele>25.8</ele><time>2020-09-01T15:52:37Z</time></trkpt>
			<trkpt lat="54.500340" lon="21.430910"><ele>26.2</ele><time>2020-09-01T15:54:23Z</time></trkpt>
			<trkpt lat="54.500000" lon="21.428590"><ele>29.6</ele><time>2020-09-01T15:56:19Z</time></trkpt>
			<trkpt lat="54.499660" lon="21.427510"><ele>28.8</ele><time>2020-09-01T15:57:18Z</time></trkpt>
			<trkpt lat="54.499430" lon="21.426040"><ele>29.8</ele><time>2020-09-01T15:58:31Z</time></trkpt>
			<trkpt lat="54.499340" lon="21.423900"><ele>30.5</ele><time>2020-09-01T16:00:11Z</time></trkpt>
			<trkpt lat="54.499340" lon="21.422000"><ele>29.3</ele><time>2020-09-01T16:01:39Z</time></trkpt>
			<trkpt lat="54.499500" lon="21.421380"><ele>28.2</ele><time>2020-09-01T16:02:10Z</time></trkpt>
			<trkpt lat="54.502840" lon="21.413350"><ele>26.2</ele><time>2020-09-01T16:09:48Z</time></trkpt>
			<trkpt lat="54.503950" lon="21.410340"><ele>26.6</ele><time>2020-09-01T16:12:34Z</time></trkpt>
			<trkpt lat="54.504880" lon="21.407460"><ele>25.5</ele><time>2020-09-01T16:15:07Z</time></trkpt>
			<trkpt lat="54.505420" lon="21.405400"><ele>26.0</ele><time>2020-09-01T16:16:52Z</time></trkpt>
			<trkpt lat="54.505530" lon="21.404300"><ele>26.9</ele><time>2020-09-01T16:17:43Z</time></trkpt>
			<trkpt lat="54.505500" lon="21.399720"><ele>27.9</ele><time>2020-09-01T16:21:23Z</time></trkpt>
			<trkpt lat="54.505480" lon="21.380870"><ele>29.1</ele><time>2020-09-01T16:36:24Z</time></trkpt>
			<trkpt lat="54.506840" lon="21.336490"><ele>25.9</ele><time>2020-09-01T17:10:57Z</time></trkpt>
			<trkpt lat="54.507100" lon="21.335860"><ele>25.1</ele><time>2020-09-01T17:11:34Z</time></trkpt>
			<trkpt lat="54.507390" lon="21.334670"><ele>24.5</ele><time>2020-09-01T17:12:34Z</time></trkpt>
			<trkpt lat="54.507530" lon="21.333230"><ele>26.1</ele><time>2020-09-01T17:13:45Z</time></trkpt>
			<trkpt lat="54.508190" lon="21.329670"><ele>25.4</ele><time>2020-09-01T17:16:41Z</time></trkpt>
			<trkpt lat="54.509070" lon="21.329710"><ele>27.5</ele><time>2020-09-01T17:17:52Z</time></trkpt>
			<trkpt lat="54.513900" lon="21.329530"><ele>21.4</ele><time>2020-09-01T17:24:11Z</time></trkpt>
			<trkpt lat="54.514390" lon="21.328870"><ele>23.2</ele><time>2020-09-01T17:25:00Z</time></trkpt>
			<trkpt lat="54.518620" lon="21.318660"><ele>30.0</ele><time>2020-09-01T17:35:05Z</time></trkpt>
			<trkpt lat="54.519110" lon="21.318220"><ele>34.8</ele><time>2020-09-01T17:35:56Z</time></trkpt>
			<trkpt lat="54.528670" lon="21.311920"><ele>23.2</ele><time>2020-09-01T17:49:54Z</time></trkpt>
			<trkpt lat="54.534070" lon="21.308260"><ele>24.2</ele><time>2020-09-01T17:57:42Z</time></trkpt>
			<trkpt lat="54.543420" lon="21.302430"><ele>28.0</ele><time>2020-09-01T18:11:31Z</time></trkpt>
			<trkpt lat="54.547370" lon="21.300370"><ele>31.6</ele><time>2020-09-01T18:17:14Z</time></trkpt>
			<trkpt lat="54.548300" lon="21.298960"><ele>32.3</ele><time>2020-09-01T18:18:49Z</time></trkpt>
			<trkpt lat="54.552430" lon="21.290860"><ele>31.1</ele><time>2020-09-01T18:27:16Z</time></trkpt>
			<trkpt lat="54.554930" lon="21.287390"><ele>31.2</ele><time>2020-09-01T18:31:56Z</time></trkpt>
			<trkpt lat="54.560000" lon="21.281940"><ele>20.6</ele><time>2020-09-01T18:39:33Z</time></trkpt>
			<trkpt lat="54.564030" lon="21.279100"><ele>23.1</ele><time>2020-09-01T18:45:36Z</time></trkpt>
			<trkpt lat="54.569800" lon="21.274870"><ele>19.8</ele><time>2020-09-01T18:53:55Z</time></trkpt>
			<trkpt lat="54.572610" lon="21.272640"><ele>17.0</ele><time>2020-09-01T18:57:55Z</time></trkpt>
			<trkpt lat="54.574780" lon="21.271580"><ele>12.2</ele><time>2020-09-01T19:00:55Z</time></trkpt>
			<trkpt lat="54.575210" lon="21.271530"><ele>12.6</ele><time>2020-09-01T19:01:33Z</time></trkpt>
			<trkpt lat="54.576240" lon="21.272920"><ele>17.8</ele><time>2020-09-01T19:03:27Z</time></trkpt>
			<trkpt lat="54.577400" lon="21.273280"><ele>19.9</ele><time>2020-09-01T19:05:10Z</time></trkpt>
			<trkpt lat="54.578380" lon="21.273410"><ele>20.9</ele><time>2020-09-01T19:06:37Z</time></trkpt>
			<trkpt lat="54.579480" lon="21.273140"><ele>20.5</ele><time>2020-09-01T19:08:13Z</time></trkpt>
			<trkpt lat="54.580780" lon="21.272650"><ele>20.1</ele><time>2020-09-01T19:10:01Z</time></trkpt>
			<trkpt lat="54.583660" lon="21.271060"><ele>20.9</ele><time>2020-09-01T19:14:07Z</time></trkpt>
			<trkpt lat="54.591210" lon="21.267050"><ele>19.2</ele><time>2020-09-01T19:24:41Z</time></trkpt>
			<trkpt lat="54.591970" lon="21.266370"><ele>18.5</ele><time>2020-09-01T19:25:49Z</time></trkpt>
			<trkpt lat="54.593360" lon="21.264880"><ele>18.7</ele><time>2020-09-01T19:27:59Z</time></trkpt>
			<trkpt lat="54.601210" lon="21.255190"><ele>23.6</ele><time>2020-09-01T19:41:14Z</time></trkpt>
			<trkpt lat="54.604790" lon="21.250910"><ele>23.9</ele><time>2020-09-01T19:47:12Z</time></trkpt>
			<trkpt lat="54.605240" lon="21.250350"><ele>22.6</ele><time>2020-09-01T19:47:56Z</time></trkpt>
			<trkpt lat="54.605590" lon="21.249820"><ele>21.9</ele><time>2020-09-01T19:48:32Z</time></trkpt>
			<trkpt lat="54.605830" lon="21.249390"><ele>21.4</ele><time>2020-09-01T19:48:59Z</time></trkpt>
			<trkpt lat="54.606330" lon="21.248230"><ele>20.7</ele><time>2020-09-01T19:50:05Z</time></trkpt>
			<trkpt lat="54.606770" lon="21.247360"><ele>21.7</ele><time>2020-09-01T19:50:57Z</time></trkpt>
			<trkpt lat="54.609010" lon="21.243240"><ele>17.9</ele><time>2020-09-01T19:55:14Z</time></trkpt>
			<trkpt lat="54.609350" lon="21.241760"><ele>19.4</ele><time>2020-09-01T19:56:26Z</time></trkpt>
			<trkpt lat="54.610300" lon="21.235450"><ele>16.5</ele><time>2020-09-01T20:01:23Z</time></trkpt>
			<trkpt lat="54.610640" lon="21.233330"><ele>12.0</ele><time>2020-09-01T20:03:04Z</time></trkpt>
			<trkpt lat="54.610780" lon="21.232720"><ele>12.0</ele><time>2020-09-01T20:03:35Z</time></trkpt>
			<trkpt lat="54.611320" lon="21.231400"><ele>10.5</ele><time>2020-09-01T20:04:49Z</time></trkpt>
			<trkpt lat="54.611530" lon="21.231030"><ele>11.8</ele><time>2020-09-01T20:05:13Z</time></trkpt>
			<trkpt lat="54.611790" lon="21.230760"><ele>12.8</ele><time>2020-09-01T20:05:37Z</time></trkpt>
			<trkpt lat="54.612150" lon="21.230580"><ele>12.8</ele><time>2020-09-01T20:06:06Z</time></trkpt>
			<trkpt lat="54.613290" lon="21.229830"><ele>11.1</ele><time>2020-09-01T20:07:39Z</time></trkpt>
			<trkpt lat="54.613470" lon="21.229680"><ele>10.3</ele><time>2020-09-01T20:07:54Z</time></trkpt>
			<trkpt lat="54.613600" lon="21.229510"><ele>9.8</ele><time>2020-09-01T20:08:07Z</time></trkpt>
			<trkpt lat="54.613830" lon="21.229010"><ele>8.8</ele><time>2020-09-01T20:08:35Z</time></trkpt>
			<trkpt lat="54.616410" lon="21.227140"><ele>3.5</ele><time>2020-09-01T20:12:09Z</time></trkpt>
			<trkpt lat="54.616770" lon="21.226950"><ele>2.9</ele><time>2020-09-01T20:12:38Z</time></trkpt>
			<trkpt lat="54.617200" lon="21.226930"><ele>2.4</ele><time>2020-09-01T20:13:13Z</time></trkpt>
			<trkpt lat="54.617600" lon="21.227030"><ele>2.1</ele><time>2020-09-01T20:13:45Z</time></trkpt>
			<trkpt lat="54.618280" lon="21.227360"><ele>2.9</ele><time>2020-09-01T20:14:43Z</time></trkpt>
			<trkpt lat="54.618785" lon="21.227844"><ele>3.8</ele><time>2020-09-01T20:15:58Z</time></trkpt>
			<trkpt lat="54.618767" lon="21.228799"><ele>3.5</ele><time>2020-09-01T20:16:56Z</time></trkpt>
			<trkpt lat="54.618770" lon="21.229620"><ele>3.8</ele><time>2020-09-01T20:17:21Z</time></trkpt>
			<trkpt lat="54.618750" lon="21.233920"><ele>4.4</ele><time>2020-09-01T20:20:44Z</time></trkpt>
			<trkpt lat="54.618800" lon="21.234170"><ele>4.5</ele><time>2020-09-01T20:20:56Z</time></trkpt>
			<trkpt lat="54.618930" lon="21.234300"><ele>4.7</ele><time>2020-09-01T20:21:09Z</time></trkpt>
			<trkpt lat="54.619240" lon="21.234430"><ele>4.8</ele><time>2020-09-01T20:21:35Z</time></trkpt>
			<trkpt lat="54.619930" lon="21.234360"><ele>3.4</ele><time>2020-09-01T20:22:32Z</time></trkpt>
			<trkpt lat="54.620230" lon="21.234390"><ele>2.1</ele><time>2020-09-01T20:22:56Z</time></trkpt>
			<trkpt lat="54.622090" lon="21.234010"><ele>0.3</ele><time>2020-09-01T20:25:30Z</time></trkpt>
			<trkpt lat="54.622630" lon="21.233960"><ele>1.4</ele><time>2020-09-01T20:26:15Z</time></trkpt>
			<trkpt lat="54.622780" lon="21.234050"><ele>2.2</ele><time>2020-09-01T20:26:28Z</time></trkpt>
			<trkpt lat="54.622930" lon="21.234270"><ele>3.2</ele><time>2020-09-01T20:26:44Z</time></trkpt>
			<trkpt lat="54.623250" lon="21.235040"><ele>5.6</ele><time>2020-09-01T20:27:29Z</time></trkpt>
			<trkpt lat="54.623360" lon="21.235040"><ele>5.8</ele><time>2020-09-01T20:27:38Z</time></trkpt>
			<trkpt lat="54.625780" lon="21.234640"><ele>1.8</ele><time>2020-09-01T20:30:50Z</time></trkpt>
			<trkpt lat="54.628980" lon="21.234210"><ele>3.7</ele><time>2020-09-01T20:35:08Z</time></trkpt>
			<trkpt lat="54.631380" lon="21.233780"><ele>5.2</ele><time>2020-09-01T20:38:41Z</time></trkpt>
			<trkpt lat="54.632270" lon="21.233570"><ele>7.9</ele><time>2020-09-01T20:40:01Z</time></trkpt>
			<trkpt lat="54.632720" lon="21.233330"><ele>9.2</ele><time>2020-09-01T20:40:43Z</time></trkpt>
			<trkpt lat="54.633160" lon="21.233010"><ele>10.0</ele><time>2020-09-01T20:41:25Z</time></trkpt>
			<trkpt lat="54.633800" lon="21.232410"><ele>11.1</ele><time>2020-09-01T20:42:30Z</time></trkpt>
			<trkpt lat="54.636410" lon="21.228710"><ele>12.4</ele><time>2020-09-01T20:47:11Z</time></trkpt>
			<trkpt lat="54.641100" lon="21.221940"><ele>12.7</ele><time>2020-09-01T20:55:27Z</time></trkpt>
			<trkpt lat="54.641670" lon="21.221180"><ele>12.6</ele><time>2020-09-01T20:56:25Z</time></trkpt>
			<trkpt lat="54.641950" lon="21.220920"><ele>13.5</ele><time>2020-09-01T20:56:51Z</time></trkpt>
			<trkpt lat="54.642250" lon="21.220720"><ele>14.3</ele><time>2020-09-01T20:57:16Z</time></trkpt>
			<trkpt lat="54.644340" lon="21.219700"><ele>15.7</ele><time>2020-09-01T21:00:17Z</time></trkpt>
			<trkpt lat="54.646260" lon="21.218480"><ele>16.1</ele><time>2020-09-01T21:03:08Z</time></trkpt>
			<trkpt lat="54.650440" lon="21.215740"><ele>15.9</ele><time>2020-09-01T21:09:09Z</time></trkpt>
			<trkpt lat="54.651680" lon="21.214980"><ele>16.9</ele><time>2020-09-01T21:10:54Z</time></trkpt>
			<trkpt lat="54.651370" lon="21.213530"><ele>15.4</ele><time>2020-09-01T21:12:05Z</time></trkpt>
			<trkpt lat="54.651270" lon="21.213210"><ele>15.1</ele><time>2020-09-01T21:12:22Z</time></trkpt>
			<trkpt lat="54.651070" lon="21.212870"><ele>14.9</ele><time>2020-09-01T21:12:45Z</time></trkpt>
			<trkpt lat="54.650870" lon="21.212760"><ele>14.7</ele><time>2020-09-01T21:13:02Z</time></trkpt>
			<trkpt lat="54.650710" lon="21.212730"><ele>14.7</ele><time>2020-09-01T21:13:15Z</time></trkpt>
			<trkpt lat="54.649530" lon="21.212660"><ele>14.6</ele><time>2020-09-01T21:14:51Z</time></trkpt>
			<trkpt lat="54.649400" lon="21.212530"><ele>14.7</ele><time>2020-09-01T21:15:04Z</time></trkpt>
			<trkpt lat="54.649260" lon="21.212220"><ele>15.2</ele><time>2020-09-01T21:15:22Z</time></trkpt>
			<trkpt lat="54.649260" lon="21.211310"><ele>15.9</ele><time>2020-09-01T21:16:05Z</time></trkpt>
			<trkpt lat="54.649220" lon="21.210830"><ele>15.9</ele><time>2020-09-01T21:16:28Z</time></trkpt>
			<trkpt lat="54.649890" lon="21.174810"><ele>28.2</ele><time>2020-09-01T21:45:43Z</time></trkpt>
			<trkpt lat="54.650030" lon="21.171410"><ele>26.5</ele><time>2020-09-01T21:48:23Z</time></trkpt>
			<trkpt lat="54.650180" lon="21.169430"><ele>27.5</ele><time>2020-09-01T21:49:59Z</time></trkpt>
			<trkpt lat="54.650390" lon="21.167200"><ele>29.3</ele><time>2020-09-01T21:51:53Z</time></trkpt>
			<trkpt lat="54.650660" lon="21.165080"><ele>31.8</ele><time>2020-09-01T21:53:41Z</time></trkpt>
			<trkpt lat="54.651010" lon="21.162750"><ele>32.8</ele><time>2020-09-01T21:55:42Z</time></trkpt>
			<trkpt lat="54.651620" lon="21.159570"><ele>32.1</ele><time>2020-09-01T21:58:24Z</time></trkpt>
			<trkpt lat="54.652030" lon="21.157850"><ele>35.3</ele><time>2020-09-01T21:59:50Z</time></trkpt>
			<trkpt lat="54.652640" lon="21.155560"><ele>35.8</ele><time>2020-09-01T22:01:47Z</time></trkpt>
			<trkpt lat="54.653430" lon="21.152940"><ele>33.6</ele><time>2020-09-01T22:04:04Z</time></trkpt>
			<trkpt lat="54.654380" lon="21.150250"><ele>31.6</ele><time>2020-09-01T22:06:26Z</time></trkpt>
			<trkpt lat="54.661930" lon="21.131280"><ele>18.5</ele><time>2020-09-01T22:23:52Z</time></trkpt>
			<trkpt lat="54.663730" lon="21.126840"><ele>21.5</ele><time>2020-09-01T22:27:55Z</time></trkpt>
			<trkpt lat="54.666510" lon="21.119770"><ele>9.7</ele><time>2020-09-01T22:34:22Z</time></trkpt>
			<trkpt lat="54.667290" lon="21.117670"><ele>10.3</ele><time>2020-09-01T22:36:20Z</time></trkpt>
			<trkpt lat="54.668260" lon="21.114900"><ele>14.3</ele><time>2020-09-01T22:38:52Z</time></trkpt>
			<trkpt lat="54.669080" lon="21.112220"><ele>2.2</ele><time>2020-09-01T22:41:08Z</time></trkpt>
			<trkpt lat="54.670220" lon="21.107960"><ele>-0.1</ele><time>2020-09-01T22:44:34Z</time></trkpt>
			<trkpt lat="54.670510" lon="21.106570"><ele>-0.4</ele><time>2020-09-01T22:45:38Z</time></trkpt>
			<trkpt lat="54.671110" lon="21.103430"><ele>-1.9</ele><time>2020-09-01T22:48:08Z</time></trkpt>
			<trkpt lat="54.671400" lon="21.101670"><ele>-2.0</ele><time>2020-09-01T22:49:32Z</time></trkpt>
			<trkpt lat="54.671790" lon="21.098960"><ele>-2.8</ele><time>2020-09-01T22:51:40Z</time></trkpt>
			<trkpt lat="54.672250" lon="21.095010"><ele>-1.0</ele><time>2020-09-01T22:54:58Z</time></trkpt>
			<trkpt lat="54.672560" lon="21.090700"><ele>7.0</ele><time>2020-09-01T22:58:57Z</time></trkpt>
			<trkpt lat="54.672690" lon="21.086200"><ele>12.5</ele><time>2020-09-01T23:02:59Z</time></trkpt>
			<trkpt lat="54.672690" lon="21.084240"><ele>14.8</ele><time>2020-09-01T23:04:36Z</time></trkpt>
			<trkpt lat="54.672670" lon="21.082360"><ele>18.1</ele><time>2020-09-01T23:06:08Z</time></trkpt>
			<trkpt lat="54.672110" lon="21.069770"><ele>13.2</ele><time>2020-09-01T23:15:59Z</time></trkpt>
			<trkpt lat="54.671740" lon="21.062340"><ele>10.7</ele><time>2020-09-01T23:21:51Z</time></trkpt>
			<trkpt lat="54.671510" lon="21.059600"><ele>13.3</ele><time>2020-09-01T23:24:03Z</time></trkpt>
			<trkpt lat="54.671150" lon="21.056200"><ele>17.0</ele><time>2020-09-01T23:26:40Z</time></trkpt>
			<trkpt lat="54.670910" lon="21.054260"><ele>17.2</ele><time>2020-09-01T23:28:10Z</time></trkpt>
			<trkpt lat="54.670640" lon="21.052350"><ele>13.5</ele><time>2020-09-01T23:29:39Z</time></trkpt>
			<trkpt lat="54.669950" lon="21.048340"><ele>7.1</ele><time>2020-09-01T23:32:55Z</time></trkpt>
			<trkpt lat="54.669950" lon="21.047810"><ele>7.0</ele><time>2020-09-01T23:33:21Z</time></trkpt>
			<trkpt lat="54.669990" lon="21.047660"><ele>7.0</ele><time>2020-09-01T23:33:29Z</time></trkpt>
			<trkpt lat="54.670090" lon="21.047490"><ele>6.9</ele><time>2020-09-01T23:33:41Z</time></trkpt>
			<trkpt lat="54.670200" lon="21.047450"><ele>6.8</ele><time>2020-09-01T23:33:51Z</time></trkpt>
			<trkpt lat="54.670350" lon="21.047470"><ele>6.6</ele><time>2020-09-01T23:34:03Z</time></trkpt>
			<trkpt lat="54.675590" lon="21.051590"><ele>11.5</ele><time>2020-09-01T23:41:58Z</time></trkpt>
			<trkpt lat="54.681110" lon="21.056010"><ele>14.9</ele><time>2020-09-01T23:50:08Z</time></trkpt>
			<trkpt lat="54.681360" lon="21.056050"><ele>14.9</ele><time>2020-09-01T23:50:28Z</time></trkpt>
			<trkpt lat="54.681610" lon="21.055980"><ele>15.0</ele><time>2020-09-01T23:50:49Z</time></trkpt>
			<trkpt lat="54.683410" lon="21.054630"><ele>13.0</ele><time>2020-09-01T23:53:29Z</time></trkpt>
			<trkpt lat="54.688840" lon="21.051680"><ele>18.7</ele><time>2020-09-02T00:01:38Z</time></trkpt>
			<trkpt lat="54.689550" lon="21.051410"><ele>18.1</ele><time>2020-09-02T00:02:36Z</time></trkpt>
			<trkpt lat="54.690970" lon="21.051110"><ele>17.9</ele><time>2020-09-02T00:04:31Z</time></trkpt>
			<trkpt lat="54.691620" lon="21.051050"><ele>17.6</ele><time>2020-09-02T00:05:23Z</time></trkpt>
			<trkpt lat="54.691860" lon="21.050930"><ele>17.8</ele><time>2020-09-02T00:05:42Z</time></trkpt>
			<trkpt lat="54.692400" lon="21.050480"><ele>18.4</ele><time>2020-09-02T00:06:30Z</time></trkpt>
			<trkpt lat="54.692600" lon="21.050090"><ele>18.7</ele><time>2020-09-02T00:06:54Z</time></trkpt>
			<trkpt lat="54.692660" lon="21.049660"><ele>18.7</ele><time>2020-09-02T00:07:15Z</time></trkpt>
			<trkpt lat="54.692620" lon="21.049380"><ele>18.7</ele><time>2020-09-02T00:07:28Z</time></trkpt>
			<trkpt lat="54.692170" lon="21.047690"><ele>16.8</ele><time>2020-09-02T00:08:53Z</time></trkpt>
			<trkpt lat="54.692040" lon="21.047030"><ele>15.9</ele><time>2020-09-02T00:09:24Z</time></trkpt>
			<trkpt lat="54.691950" lon="21.046160"><ele>15.4</ele><time>2020-09-02T00:10:04Z</time></trkpt>
			<trkpt lat="54.692050" lon="21.045330"><ele>14.8</ele><time>2020-09-02T00:10:42Z</time></trkpt>
			<trkpt lat="54.692060" lon="21.045010"><ele>14.5</ele><time>2020-09-02T00:10:56Z</time></trkpt>
			<trkpt lat="54.691930" lon="21.041490"><ele>10.1</ele><time>2020-09-02T00:13:35Z</time></trkpt>
			<trkpt lat="54.691900" lon="21.039850"><ele>10.1</ele><time>2020-09-02T00:14:48Z</time></trkpt>
			<trkpt lat="54.691950" lon="21.037710"><ele>16.8</ele><time>2020-09-02T00:16:37Z</time></trkpt>
			<trkpt lat="54.691700" lon="21.035030"><ele>21.9</ele><time>2020-09-02T00:19:01Z</time></trkpt>
			<trkpt lat="54.691020" lon="21.031340"><ele>21.9</ele><time>2020-09-02T00:22:27Z</time></trkpt>
			<trkpt lat="54.690370" lon="21.028820"><ele>22.0</ele><time>2020-09-02T00:24:39Z</time></trkpt>
			<trkpt lat="54.690340" lon="21.025990"><ele>22.1</ele><time>2020-09-02T00:26:44Z</time></trkpt>
			<trkpt lat="54.690400" lon="21.023000"><ele>13.3</ele><time>2020-09-02T00:28:56Z</time></trkpt>
			<trkpt lat="54.690750" lon="21.017710"><ele>13.9</ele><time>2020-09-02T00:32:56Z</time></trkpt>
			<trkpt lat="54.690870" lon="21.016780"><ele>13.9</ele><time>2020-09-02T00:33:39Z</time></trkpt>
			<trkpt lat="54.691720" lon="21.011390"><ele>8.4</ele><time>2020-09-02T00:37:56Z</time></trkpt>
			<trkpt lat="54.691910" lon="21.009490"><ele>9.9</ele><time>2020-09-02T00:39:30Z</time></trkpt>
			<trkpt lat="54.692530" lon="20.998510"><ele>14.7</ele><time>2020-09-02T00:48:23Z</time></trkpt>
			<trkpt lat="54.692500" lon="20.997870"><ele>15.0</ele><time>2020-09-02T00:48:54Z</time></trkpt>
			<trkpt lat="54.692400" lon="20.996950"><ele>13.8</ele><time>2020-09-02T00:49:38Z</time></trkpt>
			<trkpt lat="54.692380" lon="20.996180"><ele>13.1</ele><time>2020-09-02T00:50:15Z</time></trkpt>
			<trkpt lat="54.692670" lon="20.993520"><ele>14.3</ele><time>2020-09-02T00:52:24Z</time></trkpt>
			<trkpt lat="54.692640" lon="20.993350"><ele>14.5</ele><time>2020-09-02T00:52:32Z</time></trkpt>
			<trkpt lat="54.692570" lon="20.993240"><ele>14.8</ele><time>2020-09-02T00:52:39Z</time></trkpt>
			<trkpt lat="54.692410" lon="20.993130"><ele>14.9</ele><time>2020-09-02T00:52:52Z</time></trkpt>
			<trkpt lat="54.691840" lon="20.992920"><ele>14.3</ele><time>2020-09-02T00:53:38Z</time></trkpt>
			<trkpt lat="54.692240" lon="20.990600"><ele>10.9</ele><time>2020-09-02T00:55:26Z</time></trkpt>
			<trkpt lat="54.692670" lon="20.987470"><ele>9.4</ele><time>2020-09-02T00:57:51Z</time></trkpt>
			<trkpt lat="54.692700" lon="20.987000"><ele>9.0</ele><time>2020-09-02T00:58:12Z</time></trkpt>
			<trkpt lat="54.692310" lon="20.982920"><ele>4.7</ele><time>2020-09-02T01:01:20Z</time></trkpt>
			<trkpt lat="54.692360" lon="20.982190"><ele>4.0</ele><time>2020-09-02T01:01:54Z</time></trkpt>
			<trkpt lat="54.692420" lon="20.981660"><ele>3.1</ele><time>2020-09-02T01:02:19Z</time></trkpt>
			<trkpt lat="54.692580" lon="20.981160"><ele>3.0</ele><time>2020-09-02T01:02:45Z</time></trkpt>
			<trkpt lat="54.694050" lon="20.977150"><ele>5.1</ele><time>2020-09-02T01:06:23Z</time></trkpt>
			<trkpt lat="54.694550" lon="20.975890"><ele>4.5</ele><time>2020-09-02T01:07:37Z</time></trkpt>
			<trkpt lat="54.695000" lon="20.975030"><ele>5.9</ele><time>2020-09-02T01:08:34Z</time></trkpt>
			<trkpt lat="54.695440" lon="20.973920"><ele>7.8</ele><time>2020-09-02T01:09:39Z</time></trkpt>
			<trkpt lat="54.695590" lon="20.973280"><ele>8.8</ele><time>2020-09-02T01:10:13Z</time></trkpt>
			<trkpt lat="54.695690" lon="20.972330"><ele>9.8</ele><time>2020-09-02T01:11:00Z</time></trkpt>
			<trkpt lat="54.695760" lon="20.972140"><ele>10.2</ele><time>2020-09-02T01:11:11Z</time></trkpt>
			<trkpt lat="54.695980" lon="20.972040"><ele>10.4</ele><time>2020-09-02T01:11:30Z</time></trkpt>
			<trkpt lat="54.696720" lon="20.971910"><ele>9.7</ele><time>2020-09-02T01:12:33Z</time></trkpt>
			<trkpt lat="54.697140" lon="20.971910"><ele>9.3</ele><time>2020-09-02T01:13:08Z</time></trkpt>
			<trkpt lat="54.697590" lon="20.971990"><ele>8.9</ele><time>2020-09-02T01:13:47Z</time></trkpt>
			<trkpt lat="54.698690" lon="20.972290"><ele>7.5</ele><time>2020-09-02T01:15:17Z</time></trkpt>
			<trkpt lat="54.700700" lon="20.972610"><ele>9.7</ele><time>2020-09-02T01:17:59Z</time></trkpt>
			<trkpt lat="54.701620" lon="20.972720"><ele>8.8</ele><time>2020-09-02T01:19:13Z</time></trkpt>
			<trkpt lat="54.701730" lon="20.972710"><ele>8.8</ele><time>2020-09-02T01:19:21Z</time></trkpt>
			<trkpt lat="54.701800" lon="20.972650"><ele>8.9</ele><time>2020-09-02T01:19:28Z</time></trkpt>
			<trkpt lat="54.701850" lon="20.972530"><ele>8.9</ele><time>2020-09-02T01:19:34Z</time></trkpt>
			<trkpt lat="54.701930" lon="20.971920"><ele>8.8</ele><time>2020-09-02T01:20:03Z</time></trkpt>
			<trkpt lat="54.702290" lon="20.964250"><ele>11.0</ele><time>2020-09-02T01:26:07Z</time></trkpt>
			<trkpt lat="54.702410" lon="20.963570"><ele>12.2</ele><time>2020-09-02T01:26:41Z</time></trkpt>
			<trkpt lat="54.702710" lon="20.962350"><ele>12.0</ele><time>2020-09-02T01:27:44Z</time></trkpt>
			<trkpt lat="54.703470" lon="20.959590"><ele>13.4</ele><time>2020-09-02T01:30:08Z</time></trkpt>
			<trkpt lat="54.703530" lon="20.959210"><ele>14.4</ele><time>2020-09-02T01:30:27Z</time></trkpt>
			<trkpt lat="54.703630" lon="20.957520"><ele>14.4</ele><time>2020-09-02T01:31:47Z</time></trkpt>
			<trkpt lat="54.703710" lon="20.956970"><ele>14.0</ele><time>2020-09-02T01:32:13Z</time></trkpt>
			<trkpt lat="54.703820" lon="20.956500"><ele>13.1</ele><time>2020-09-02T01:32:37Z</time></trkpt>
			<trkpt lat="54.704030" lon="20.955840"><ele>11.2</ele><time>2020-09-02T01:33:12Z</time></trkpt>
			<trkpt lat="54.705560" lon="20.951870"><ele>12.6</ele><time>2020-09-02T01:36:56Z</time></trkpt>
			<trkpt lat="54.706230" lon="20.950050"><ele>13.0</ele><time>2020-09-02T01:38:37Z</time></trkpt>
			<trkpt lat="54.709810" lon="20.950820"><ele>13.0</ele><time>2020-09-02T01:43:30Z</time></trkpt>
			<trkpt lat="54.711290" lon="20.951640"><ele>15.4</ele><time>2020-09-02T01:45:34Z</time></trkpt>
			<trkpt lat="54.713250" lon="20.952800"><ele>15.9</ele><time>2020-09-02T01:48:19Z</time></trkpt>
			<trkpt lat="54.713990" lon="20.953370"><ele>14.4</ele><time>2020-09-02T01:49:24Z</time></trkpt>
			<trkpt lat="54.714320" lon="20.953770"><ele>12.9</ele><time>2020-09-02T01:49:56Z</time></trkpt>
			<trkpt lat="54.718830" lon="20.959750"><ele>13.0</ele><time>2020-09-02T01:57:37Z</time></trkpt>
			<trkpt lat="54.720460" lon="20.962000"><ele>15.7</ele><time>2020-09-02T02:00:23Z</time></trkpt>
			<trkpt lat="54.725440" lon="20.968040"><ele>11.1</ele><time>2020-09-02T02:08:27Z</time></trkpt>
			<trkpt lat="54.728860" lon="20.971890"><ele>11.0</ele><time>2020-09-02T02:13:57Z</time></trkpt>
			<trkpt lat="54.729410" lon="20.972620"><ele>10.3</ele><time>2020-09-02T02:14:55Z</time></trkpt>
			<trkpt lat="54.730750" lon="20.975140"><ele>12.1</ele><time>2020-09-02T02:17:40Z</time></trkpt>
			<trkpt lat="54.731420" lon="20.976190"><ele>12.9</ele><time>2020-09-02T02:18:55Z</time></trkpt>
			<trkpt lat="54.732560" lon="20.976870"><ele>13.9</ele><time>2020-09-02T02:20:33Z</time></trkpt>
			<trkpt lat="54.732950" lon="20.977470"><ele>13.5</ele><time>2020-09-02T02:21:15Z</time></trkpt>
			<trkpt lat="54.733370" lon="20.978310"><ele>13.0</ele><time>2020-09-02T02:22:06Z</time></trkpt>
			<trkpt lat="54.734340" lon="20.980000"><ele>13.8</ele><time>2020-09-02T02:23:56Z</time></trkpt>
			<trkpt lat="54.735100" lon="20.978180"><ele>12.0</ele><time>2020-09-02T02:25:39Z</time></trkpt>
			<trkpt lat="54.737720" lon="20.971650"><ele>17.3</ele><time>2020-09-02T02:32:31Z</time></trkpt>
			<trkpt lat="54.738020" lon="20.971060"><ele>19.9</ele><time>2020-09-02T02:33:13Z</time></trkpt>
			<trkpt lat="54.741850" lon="20.964500"><ele>18.2</ele><time>2020-09-02T02:40:32Z</time></trkpt>
			<trkpt lat="54.748270" lon="20.953860"><ele>17.8</ele><time>2020-09-02T02:52:19Z</time></trkpt>
			<trkpt lat="54.749320" lon="20.952010"><ele>18.2</ele><time>2020-09-02T02:54:18Z</time></trkpt>
			<trkpt lat="54.749550" lon="20.951460"><ele>18.0</ele><time>2020-09-02T02:54:49Z</time></trkpt>
			<trkpt lat="54.750230" lon="20.946480"><ele>16.8</ele><time>2020-09-02T02:58:42Z</time></trkpt>
			<trkpt lat="54.750770" lon="20.943260"><ele>16.3</ele><time>2020-09-02T03:01:15Z</time></trkpt>
			<trkpt lat="54.757940" lon="20.917270"><ele>8.1</ele><time>2020-09-02T03:23:32Z</time></trkpt>
			<trkpt lat="54.758060" lon="20.916960"><ele>8.2</ele><time>2020-09-02T03:23:50Z</time></trkpt>
			<trkpt lat="54.758210" lon="20.916690"><ele>8.1</ele><time>2020-09-02T03:24:07Z</time></trkpt>
			<trkpt lat="54.766970" lon="20.902380"><ele>8.2</ele><time>2020-09-02T03:40:14Z</time></trkpt>
			<trkpt lat="54.767080" lon="20.902120"><ele>8.5</ele><time>2020-09-02T03:40:29Z</time></trkpt>
			<trkpt lat="54.767140" lon="20.901830"><ele>8.8</ele><time>2020-09-02T03:40:43Z</time></trkpt>
			<trkpt lat="54.767150" lon="20.901590"><ele>8.9</ele><time>2020-09-02T03:40:54Z</time></trkpt>
			<trkpt lat="54.766640" lon="20.899630"><ele>7.6</ele><time>2020-09-02T03:42:35Z</time></trkpt>
			<trkpt lat="54.766580" lon="20.899240"><ele>7.2</ele><time>2020-09-02T03:42:54Z</time></trkpt>
			<trkpt lat="54.766570" lon="20.898750"><ele>7.0</ele><time>2020-09-02T03:43:17Z</time></trkpt>
			<trkpt lat="54.766650" lon="20.898440"><ele>7.0</ele><time>2020-09-02T03:43:33Z</time></trkpt>
			<trkpt lat="54.766890" lon="20.897830"><ele>7.4</ele><time>2020-09-02T03:44:08Z</time></trkpt>
			<trkpt lat="54.767070" lon="20.897580"><ele>7.9</ele><time>2020-09-02T03:44:26Z</time></trkpt>
			<trkpt lat="54.770610" lon="20.895040"><ele>8.7</ele><time>2020-09-02T03:49:41Z</time></trkpt>
			<trkpt lat="54.780160" lon="20.887970"><ele>8.8</ele><time>2020-09-02T04:03:40Z</time></trkpt>
			<trkpt lat="54.780330" lon="20.887960"><ele>8.6</ele><time>2020-09-02T04:03:54Z</time></trkpt>
			<trkpt lat="54.782550" lon="20.888870"><ele>8.1</ele><time>2020-09-02T04:06:57Z</time></trkpt>
			<trkpt lat="54.782720" lon="20.888900"><ele>8.3</ele><time>2020-09-02T04:07:10Z</time></trkpt>
			<trkpt lat="54.782920" lon="20.888840"><ele>8.5</ele><time>2020-09-02T04:07:27Z</time></trkpt>
			<trkpt lat="54.785030" lon="20.887520"><ele>8.9</ele><time>2020-09-02T04:10:26Z</time></trkpt>
			<trkpt lat="54.785512" lon="20.886847"><ele>7.5</ele><time>2020-09-02T04:11:15Z</time></trkpt>
			<trkpt lat="54.785728" lon="20.886681"><ele>7.9</ele><time>2020-09-02T04:11:34Z</time></trkpt>
			<trkpt lat="54.786058" lon="20.886554"><ele>8.0</ele><time>2020-09-02T04:12:00Z</time></trkpt>
			<trkpt lat="54.786534" lon="20.886189"><ele>8.5</ele><time>2020-09-02T04:12:42Z</time></trkpt>
			<trkpt lat="54.786772" lon="20.885803"><ele>8.8</ele><time>2020-09-02T04:13:08Z</time></trkpt>
			<trkpt lat="54.787061" lon="20.885227"><ele>8.6</ele><time>2020-09-02T04:13:43Z</time></trkpt>
			<trkpt lat="54.786755" lon="20.883687"><ele>8.9</ele><time>2020-09-02T04:14:57Z</time></trkpt>
			<trkpt lat="54.786523" lon="20.882765"><ele>8.3</ele><time>2020-09-02T04:15:43Z</time></trkpt>
			<trkpt lat="54.783170" lon="20.871470"><ele>8.6</ele><time>2020-09-02T04:25:38Z</time></trkpt>
			<trkpt lat="54.781120" lon="20.865540"><ele>9.7</ele><time>2020-09-02T04:31:01Z</time></trkpt>
			<trkpt lat="54.780570" lon="20.863860"><ele>8.8</ele><time>2020-09-02T04:32:31Z</time></trkpt>
			<trkpt lat="54.780150" lon="20.862280"><ele>9.5</ele><time>2020-09-02T04:33:51Z</time></trkpt>
			<trkpt lat="54.779170" lon="20.856530"><ele>10.0</ele><time>2020-09-02T04:38:28Z</time></trkpt>
			<trkpt lat="54.776760" lon="20.836900"><ele>8.9</ele><time>2020-09-02T04:53:52Z</time></trkpt>
			<trkpt lat="54.776520" lon="20.835770"><ele>8.1</ele><time>2020-09-02T04:54:48Z</time></trkpt>
			<trkpt lat="54.775540" lon="20.834290"><ele>9.0</ele><time>2020-09-02T04:56:34Z</time></trkpt>
			<trkpt lat="54.774370" lon="20.832970"><ele>8.5</ele><time>2020-09-02T04:58:27Z</time></trkpt>
			<trkpt lat="54.774170" lon="20.832060"><ele>8.5</ele><time>2020-09-02T04:59:13Z</time></trkpt>
			<trkpt lat="54.773640" lon="20.826090"><ele>9.3</ele><time>2020-09-02T05:04:03Z</time></trkpt>
			<trkpt lat="54.773430" lon="20.824940"><ele>9.9</ele><time>2020-09-02T05:05:01Z</time></trkpt>
			<trkpt lat="54.770810" lon="20.816390"><ele>12.0</ele><time>2020-09-02T05:12:37Z</time></trkpt>
			<trkpt lat="54.769990" lon="20.813370"><ele>13.0</ele><time>2020-09-02T05:15:13Z</time></trkpt>
			<trkpt lat="54.769760" lon="20.812250"><ele>12.7</ele><time>2020-09-02T05:16:09Z</time></trkpt>
			<trkpt lat="54.769140" lon="20.808650"><ele>12.0</ele><time>2020-09-02T05:19:05Z</time></trkpt>
			<trkpt lat="54.768910" lon="20.808150"><ele>12.3</ele><time>2020-09-02T05:19:35Z</time></trkpt>
			<trkpt lat="54.761230" lon="20.799140"><ele>18.0</ele><time>2020-09-02T05:32:25Z</time></trkpt>
			<trkpt lat="54.755080" lon="20.798970"><ele>25.0</ele><time>2020-09-02T05:41:08Z</time></trkpt>
			<trkpt lat="54.749210" lon="20.788000"><ele>20.8</ele><time>2020-09-02T05:52:36Z</time></trkpt>
			<trkpt lat="54.748990" lon="20.787390"><ele>18.2</ele><time>2020-09-02T05:53:08Z</time></trkpt>
			<trkpt lat="54.748790" lon="20.781090"><ele>12.1</ele><time>2020-09-02T05:57:45Z</time></trkpt>
			<trkpt lat="54.748830" lon="20.774530"><ele>14.4</ele><time>2020-09-02T06:02:57Z</time></trkpt>
			<trkpt lat="54.749280" lon="20.765640"><ele>14.8</ele><time>2020-09-02T06:09:53Z</time></trkpt>
			<trkpt lat="54.749440" lon="20.761820"><ele>14.9</ele><time>2020-09-02T06:12:50Z</time></trkpt>
			<trkpt lat="54.749430" lon="20.759110"><ele>16.9</ele><time>2020-09-02T06:14:55Z</time></trkpt>
			<trkpt lat="54.748740" lon="20.756550"><ele>15.9</ele><time>2020-09-02T06:17:06Z</time></trkpt>
			<trkpt lat="54.746440" lon="20.749580"><ele>16.2</ele><time>2020-09-02T06:23:18Z</time></trkpt>
			<trkpt lat="54.746240" lon="20.748740"><ele>15.7</ele><time>2020-09-02T06:24:00Z</time></trkpt>
			<trkpt lat="54.746230" lon="20.748740"><ele>15.7</ele><time>2020-09-02T06:24:00Z</time></trkpt>
			<trkpt lat="54.746210" lon="20.748390"><ele>15.1</ele><time>2020-09-02T06:25:15Z</time></trkpt>
			<trkpt lat="54.746120" lon="20.747440"><ele>13.0</ele><time>2020-09-02T06:26:31Z</time></trkpt>
			<trkpt lat="54.745990" lon="20.742440"><ele>13.7</ele><time>2020-09-02T06:27:46Z</time></trkpt>
			<trkpt lat="54.745980" lon="20.741980"><ele>13.3</ele><time>2020-09-02T06:29:02Z</time></trkpt>
			<trkpt lat="54.745870" lon="20.741090"><ele>13.0</ele><time>2020-09-02T06:30:17Z</time></trkpt>
			<trkpt lat="54.744670" lon="20.734960"><ele>16.3</ele><time>2020-09-02T06:31:33Z</time></trkpt>
			<trkpt lat="54.739200" lon="20.706930"><ele>16.2</ele><time>2020-09-02T06:32:49Z</time></trkpt>
			<trkpt lat="54.735610" lon="20.686400"><ele>17.4</ele><time>2020-09-02T06:34:04Z</time></trkpt>
			<trkpt lat="54.735470" lon="20.685640"><ele>17.6</ele><time>2020-09-02T06:35:20Z</time></trkpt>
			<trkpt lat="54.734840" lon="20.681850"><ele>22.0</ele><time>2020-09-02T06:36:35Z</time></trkpt>
			<trkpt lat="54.734700" lon="20.681000"><ele>21.6</ele><time>2020-09-02T06:37:51Z</time></trkpt>
			<trkpt lat="54.734110" lon="20.677290"><ele>25.4</ele><time>2020-09-02T06:39:07Z</time></trkpt>
			<trkpt lat="54.733950" lon="20.676260"><ele>26.6</ele><time>2020-09-02T06:40:22Z</time></trkpt>
			<trkpt lat="54.733590" lon="20.673660"><ele>29.4</ele><time>2020-09-02T06:41:38Z</time></trkpt>
			<trkpt lat="54.733500" lon="20.673040"><ele>29.4</ele><time>2020-09-02T06:42:53Z</time></trkpt>
			<trkpt lat="54.733320" lon="20.672230"><ele>28.0</ele><time>2020-09-02T06:44:09Z</time></trkpt>
			<trkpt lat="54.731950" lon="20.667880"><ele>25.1</ele><time>2020-09-02T06:45:25Z</time></trkpt>
			<trkpt lat="54.730740" lon="20.664360"><ele>20.2</ele><time>2020-09-02T06:46:40Z</time></trkpt>
			<trkpt lat="54.730250" lon="20.662820"><ele>18.8</ele><time>2020-09-02T06:47:56Z</time></trkpt>
			<trkpt lat="54.729980" lon="20.662180"><ele>17.9</ele><time>2020-09-02T06:49:11Z</time></trkpt>
			<trkpt lat="54.729240" lon="20.660770"><ele>19.4</ele><time>2020-09-02T06:50:27Z</time></trkpt>
			<trkpt lat="54.727640" lon="20.657990"><ele>19.4</ele><time>2020-09-02T06:51:43Z</time></trkpt>
			<trkpt lat="54.727220" lon="20.657280"><ele>19.2</ele><time>2020-09-02T06:52:58Z</time></trkpt>
			<trkpt lat="54.724870" lon="20.653210"><ele>20.8</ele><time>2020-09-02T06:54:14Z</time></trkpt>
			<trkpt lat="54.723990" lon="20.651730"><ele>19.4</ele><time>2020-09-02T06:55:29Z</time></trkpt>
			<trkpt lat="54.723590" lon="20.650940"><ele>18.8</ele><time>2020-09-02T06:56:45Z</time></trkpt>
			<trkpt lat="54.723500" lon="20.650790"><ele>18.7</ele><time>2020-09-02T06:58:01Z</time></trkpt>
			<trkpt lat="54.723080" lon="20.649920"><ele>18.2</ele><time>2020-09-02T06:59:16Z</time></trkpt>
			<trkpt lat="54.722770" lon="20.649060"><ele>17.8</ele><time>2020-09-02T07:00:32Z</time></trkpt>
			<trkpt lat="54.722540" lon="20.648200"><ele>18.9</ele><time>2020-09-02T07:01:47Z</time></trkpt>
			<trkpt lat="54.722160" lon="20.646720"><ele>17.5</ele><time>2020-09-02T07:03:03Z</time></trkpt>
			<trkpt lat="54.721000" lon="20.642300"><ele>16.9</ele><time>2020-09-02T07:04:19Z</time></trkpt>
			<trkpt lat="54.720730" lon="20.641190"><ele>15.8</ele><time>2020-09-02T07:05:34Z</time></trkpt>
			<trkpt lat="54.720540" lon="20.640740"><ele>15.2</ele><time>2020-09-02T07:06:50Z</time></trkpt>
			<trkpt lat="54.719710" lon="20.639450"><ele>15.7</ele><time>2020-09-02T07:08:05Z</time></trkpt>
			<trkpt lat="54.716510" lon="20.634800"><ele>16.4</ele><time>2020-09-02T07:09:21Z</time></trkpt>
			<trkpt lat="54.715580" lon="20.633490"><ele>14.7</ele><time>2020-09-02T07:10:36Z</time></trkpt>
			<trkpt lat="54.714110" lon="20.631140"><ele>13.8</ele><time>2020-09-02T07:11:52Z</time></trkpt>
			<trkpt lat="54.713720" lon="20.630110"><ele>12.9</ele><time>2020-09-02T07:13:08Z</time></trkpt>
			<trkpt lat="54.713660" lon="20.629950"><ele>12.7</ele><time>2020-09-02T07:14:23Z</time></trkpt>
			<trkpt lat="54.713410" lon="20.628940"><ele>11.8</ele><time>2020-09-02T07:15:39Z</time></trkpt>
			<trkpt lat="54.713210" lon="20.628100"><ele>10.3</ele><time>2020-09-02T07:16:54Z</time></trkpt>
			<trkpt lat="54.713150" lon="20.627850"><ele>9.8</ele><time>2020-09-02T07:18:10Z</time></trkpt>
			<trkpt lat="54.712890" lon="20.626610"><ele>9.5</ele><time>2020-09-02T07:19:26Z</time></trkpt>
			<trkpt lat="54.712480" lon="20.624650"><ele>8.9</ele><time>2020-09-02T07:20:41Z</time></trkpt>
			<trkpt lat="54.711930" lon="20.623060"><ele>8.2</ele><time>2020-09-02T07:21:57Z</time></trkpt>
			<trkpt lat="54.711870" lon="20.622950"><ele>8.3</ele><time>2020-09-02T07:23:12Z</time></trkpt>
			<trkpt lat="54.711770" lon="20.622830"><ele>8.6</ele><time>2020-09-02T07:24:28Z</time></trkpt>
			<trkpt lat="54.711620" lon="20.622750"><ele>8.9</ele><time>2020-09-02T07:25:44Z</time></trkpt>
			<trkpt lat="54.711040" lon="20.622560"><ele>9.0</ele><time>2020-09-02T07:26:59Z</time></trkpt>
			<trkpt lat="54.710760" lon="20.622500"><ele>9.0</ele><time>2020-09-02T07:28:15Z</time></trkpt>
			<trkpt lat="54.710350" lon="20.622510"><ele>9.0</ele><time>2020-09-02T07:29:30Z</time></trkpt>
			<trkpt lat="54.710180" lon="20.622530"><ele>9.0</ele><time>2020-09-02T07:30:46Z</time></trkpt>
			<trkpt lat="54.708810" lon="20.622560"><ele>6.8</ele><time>2020-09-02T07:32:02Z</time></trkpt>
			<trkpt lat="54.708730" lon="20.622280"><ele>6.2</ele><time>2020-09-02T07:33:17Z</time></trkpt>
			<trkpt lat="54.708600" lon="20.621280"><ele>5.0</ele><time>2020-09-02T07:34:33Z</time></trkpt>
			<trkpt lat="54.708510" lon="20.621010"><ele>4.7</ele><time>2020-09-02T07:35:48Z</time></trkpt>
			<trkpt lat="54.708310" lon="20.620780"><ele>3.9</ele><time>2020-09-02T07:37:04Z</time></trkpt>
			<trkpt lat="54.708040" lon="20.620640"><ele>3.2</ele><time>2020-09-02T07:38:20Z</time></trkpt>
			<trkpt lat="54.707570" lon="20.620270"><ele>2.8</ele><time>2020-09-02T07:39:35Z</time></trkpt>
			<trkpt lat="54.707340" lon="20.619880"><ele>2.6</ele><time>2020-09-02T07:40:51Z</time></trkpt>
			<trkpt lat="54.707230" lon="20.619580"><ele>2.4</ele><time>2020-09-02T07:42:06Z</time></trkpt>
			<trkpt lat="54.706990" lon="20.618380"><ele>3.4</ele><time>2020-09-02T07:43:22Z</time></trkpt>
			<trkpt lat="54.706970" lon="20.618250"><ele>3.6</ele><time>2020-09-02T07:44:38Z</time></trkpt>
			<trkpt lat="54.706810" lon="20.616960"><ele>6.0</ele><time>2020-09-02T07:45:53Z</time></trkpt>
			<trkpt lat="54.706680" lon="20.615630"><ele>5.0</ele><time>2020-09-02T07:47:09Z</time></trkpt>
			<trkpt lat="54.706430" lon="20.613380"><ele>3.9</ele><time>2020-09-02T07:48:24Z</time></trkpt>
			<trkpt lat="54.706300" lon="20.612340"><ele>3.1</ele><time>2020-09-02T07:49:40Z</time></trkpt>
			<trkpt lat="54.706280" lon="20.612140"><ele>2.9</ele><time>2020-09-02T07:50:56Z</time></trkpt>
			<trkpt lat="54.706070" lon="20.610190"><ele>3.1</ele><time>2020-09-02T07:52:11Z</time></trkpt>
			<trkpt lat="54.706040" lon="20.609900"><ele>3.5</ele><time>2020-09-02T07:53:27Z</time></trkpt>
			<trkpt lat="54.705940" lon="20.609460"><ele>3.8</ele><time>2020-09-02T07:54:42Z</time></trkpt>
			<trkpt lat="54.705760" lon="20.608960"><ele>3.7</ele><time>2020-09-02T07:55:58Z</time></trkpt>
			<trkpt lat="54.705560" lon="20.608540"><ele>3.4</ele><time>2020-09-02T07:57:13Z</time></trkpt>
			<trkpt lat="54.705360" lon="20.608280"><ele>3.6</ele><time>2020-09-02T07:58:29Z</time></trkpt>
			<trkpt lat="54.705220" lon="20.608190"><ele>3.9</ele><time>2020-09-02T07:59:45Z</time></trkpt>
			<trkpt lat="54.705100" lon="20.608140"><ele>4.1</ele><time>2020-09-02T08:01:00Z</time></trkpt>
			<trkpt lat="54.704970" lon="20.608050"><ele>4.3</ele><time>2020-09-02T08:02:16Z</time></trkpt>
			<trkpt lat="54.704780" lon="20.607750"><ele>4.2</ele><time>2020-09-02T08:03:31Z</time></trkpt>
			<trkpt lat="54.704540" lon="20.606760"><ele>3.9</ele><time>2020-09-02T08:04:47Z</time></trkpt>
			<trkpt lat="54.704470" lon="20.606440"><ele>4.3</ele><time>2020-09-02T08:06:03Z</time></trkpt>
			<trkpt lat="54.704290" lon="20.605410"><ele>5.7</ele><time>2020-09-02T08:07:18Z</time></trkpt>
			<trkpt lat="54.704190" lon="20.604640"><ele>5.6</ele><time>2020-09-02T08:08:34Z</time></trkpt>
			<trkpt lat="54.704120" lon="20.603900"><ele>4.2</ele><time>2020-09-02T08:09:49Z</time></trkpt>
			<trkpt lat="54.704060" lon="20.603100"><ele>2.3</ele><time>2020-09-02T08:11:05Z</time></trkpt>
			<trkpt lat="54.704030" lon="20.602250"><ele>1.0</ele><time>2020-09-02T08:12:21Z</time></trkpt>
			<trkpt lat="54.704020" lon="20.601490"><ele>0.9</ele><time>2020-09-02T08:13:36Z</time></trkpt>
			<trkpt lat="54.704020" lon="20.601090"><ele>0.9</ele><time>2020-09-02T08:14:52Z</time></trkpt>
			<trkpt lat="54.704040" lon="20.600450"><ele>1.1</ele><time>2020-09-02T08:16:07Z</time></trkpt>
			<trkpt lat="54.704080" lon="20.599700"><ele>1.4</ele><time>2020-09-02T08:17:23Z</time></trkpt>
			<trkpt lat="54.704210" lon="20.598480"><ele>2.1</ele><time>2020-09-02T08:18:39Z</time></trkpt>
			<trkpt lat="54.704370" lon="20.596920"><ele>2.2</ele><time>2020-09-02T08:19:54Z</time></trkpt>
			<trkpt lat="54.704670" lon="20.594310"><ele>3.6</ele><time>2020-09-02T08:21:10Z</time></trkpt>
			<trkpt lat="54.704750" lon="20.593680"><ele>4.1</ele><time>2020-09-02T08:22:25Z</time></trkpt>
			<trkpt lat="54.704860" lon="20.592930"><ele>4.4</ele><time>2020-09-02T08:23:41Z</time></trkpt>
			<trkpt lat="54.704940" lon="20.592390"><ele>4.6</ele><time>2020-09-02T08:24:57Z</time></trkpt>
			<trkpt lat="54.705200" lon="20.591160"><ele>4.3</ele><time>2020-09-02T08:26:12Z</time></trkpt>
			<trkpt lat="54.705330" lon="20.590560"><ele>4.2</ele><time>2020-09-02T08:27:28Z</time></trkpt>
			<trkpt lat="54.705390" lon="20.590310"><ele>4.1</ele><time>2020-09-02T08:28:43Z</time></trkpt>
			<trkpt lat="54.705700" lon="20.589140"><ele>4.6</ele><time>2020-09-02T08:29:59Z</time></trkpt>
			<trkpt lat="54.706030" lon="20.588050"><ele>4.3</ele><time>2020-09-02T08:31:15Z</time></trkpt>
			<trkpt lat="54.706290" lon="20.587150"><ele>5.4</ele><time>2020-09-02T08:32:30Z</time></trkpt>
			<trkpt lat="54.706330" lon="20.587010"><ele>5.6</ele><time>2020-09-02T08:33:46Z</time></trkpt>
			<trkpt lat="54.706410" lon="20.586770"><ele>6.0</ele><time>2020-09-02T08:35:01Z</time></trkpt>
			<trkpt lat="54.706520" lon="20.586380"><ele>6.6</ele><time>2020-09-02T08:36:17Z</time></trkpt>
			<trkpt lat="54.706750" lon="20.585570"><ele>7.2</ele><time>2020-09-02T08:37:32Z</time></trkpt>
			<trkpt lat="54.706830" lon="20.585140"><ele>7.6</ele><time>2020-09-02T08:38:48Z</time></trkpt>
			<trkpt lat="54.706890" lon="20.584820"><ele>7.9</ele><time>2020-09-02T08:40:04Z</time></trkpt>
			<trkpt lat="54.707000" lon="20.584140"><ele>8.4</ele><time>2020-09-02T08:41:19Z</time></trkpt>
			<trkpt lat="54.707060" lon="20.583700"><ele>8.2</ele><time>2020-09-02T08:42:35Z</time></trkpt>
			<trkpt lat="54.707140" lon="20.583150"><ele>7.9</ele><time>2020-09-02T08:43:50Z</time></trkpt>
			<trkpt lat="54.707320" lon="20.581770"><ele>7.2</ele><time>2020-09-02T08:45:06Z</time></trkpt>
			<trkpt lat="54.707390" lon="20.581190"><ele>7.6</ele><time>2020-09-02T08:46:22Z</time></trkpt>
			<trkpt lat="54.707810" lon="20.577660"><ele>7.4</ele><time>2020-09-02T08:47:37Z</time></trkpt>
			<trkpt lat="54.708080" lon="20.575390"><ele>8.2</ele><time>2020-09-02T08:48:53Z</time></trkpt>
			<trkpt lat="54.708110" lon="20.575160"><ele>7.9</ele><time>2020-09-02T08:50:08Z</time></trkpt>
			<trkpt lat="54.708260" lon="20.573770"><ele>7.0</ele><time>2020-09-02T08:51:24Z</time></trkpt>
			<trkpt lat="54.708430" lon="20.572350"><ele>7.9</ele><time>2020-09-02T08:52:40Z</time></trkpt>
			<trkpt lat="54.708600" lon="20.570920"><ele>7.6</ele><time>2020-09-02T08:53:55Z</time></trkpt>
			<trkpt lat="54.708610" lon="20.570820"><ele>7.7</ele><time>2020-09-02T08:55:11Z</time></trkpt>
			<trkpt lat="54.708710" lon="20.569990"><ele>7.9</ele><time>2020-09-02T08:56:26Z</time></trkpt>
			<trkpt lat="54.708810" lon="20.569090"><ele>8.1</ele><time>2020-09-02T08:57:42Z</time></trkpt>
			<trkpt lat="54.708840" lon="20.568790"><ele>7.9</ele><time>2020-09-02T08:58:58Z</time></trkpt>
			<trkpt lat="54.708840" lon="20.568340"><ele>7.6</ele><time>2020-09-02T09:00:13Z</time></trkpt>
			<trkpt lat="54.708870" lon="20.567600"><ele>7.1</ele><time>2020-09-02T09:01:29Z</time></trkpt>
			<trkpt lat="54.708870" lon="20.567370"><ele>7.1</ele><time>2020-09-02T09:02:44Z</time></trkpt>
			<trkpt lat="54.708890" lon="20.566780"><ele>7.6</ele><time>2020-09-02T09:04:00Z</time></trkpt>
			<trkpt lat="54.708910" lon="20.566500"><ele>7.7</ele><time>2020-09-02T09:05:16Z</time></trkpt>
			<trkpt lat="54.708930" lon="20.564930"><ele>8.6</ele><time>2020-09-02T09:06:31Z</time></trkpt>
			<trkpt lat="54.709000" lon="20.563230"><ele>7.1</ele><time>2020-09-02T09:07:47Z</time></trkpt>
			<trkpt lat="54.709070" lon="20.561830"><ele>8.4</ele><time>2020-09-02T09:09:02Z</time></trkpt>
			<trkpt lat="54.709190" lon="20.559880"><ele>8.0</ele><time>2020-09-02T09:10:18Z</time></trkpt>
			<trkpt lat="54.709260" lon="20.558180"><ele>6.9</ele><time>2020-09-02T09:11:34Z</time></trkpt>
			<trkpt lat="54.709330" lon="20.557150"><ele>6.0</ele><time>2020-09-02T09:12:49Z</time></trkpt>
			<trkpt lat="54.709440" lon="20.555830"><ele>6.0</ele><time>2020-09-02T09:14:05Z</time></trkpt>
			<trkpt lat="54.709500" lon="20.554650"><ele>7.0</ele><time>2020-09-02T09:15:20Z</time></trkpt>
			<trkpt lat="54.709570" lon="20.553530"><ele>7.0</ele><time>2020-09-02T09:16:36Z</time></trkpt>
			<trkpt lat="54.709670" lon="20.551240"><ele>5.8</ele><time>2020-09-02T09:17:52Z</time></trkpt>
			<trkpt lat="54.709670" lon="20.551240"><ele>5.8</ele><time>2020-09-02T09:17:52Z</time></trkpt>
			<trkpt lat="54.709670" lon="20.551150"><ele>5.8</ele><time>2020-09-02T09:18:15Z</time></trkpt>
			<trkpt lat="54.709710" lon="20.550150"><ele>5.9</ele><time>2020-09-02T09:18:38Z</time></trkpt>
			<trkpt lat="54.709760" lon="20.549110"><ele>6.3</ele><time>2020-09-02T09:19:02Z</time></trkpt>
			<trkpt lat="54.709780" lon="20.548630"><ele>6.2</ele><time>2020-09-02T09:19:25Z</time></trkpt>
			<trkpt lat="54.709780" lon="20.548510"><ele>6.1</ele><time>2020-09-02T09:19:49Z</time></trkpt>
			<trkpt lat="54.709780" lon="20.548510"><ele>6.1</ele><time>2020-09-02T09:19:49Z</time></trkpt>
			<trkpt lat="54.709830" lon="20.546820"><ele>6.7</ele><time>2020-09-02T09:21:10Z</time></trkpt>
			<trkpt lat="54.709850" lon="20.545820"><ele>7.5</ele><time>2020-09-02T09:22:31Z</time></trkpt>
			<trkpt lat="54.709850" lon="20.545820"><ele>7.5</ele><time>2020-09-02T09:22:31Z</time></trkpt>
			<trkpt lat="54.709850" lon="20.545690"><ele>7.5</ele><time>2020-09-02T09:22:34Z</time></trkpt>
			<trkpt lat="54.709860" lon="20.545130"><ele>7.1</ele><time>2020-09-02T09:22:37Z</time></trkpt>
			<trkpt lat="54.709950" lon="20.545060"><ele>7.1</ele><time>2020-09-02T09:22:40Z</time></trkpt>
			<trkpt lat="54.710000" lon="20.545030"><ele>7.2</ele><time>2020-09-02T09:22:43Z</time></trkpt>
			<trkpt lat="54.710965" lon="20.545065"><ele>9.3</ele><time>2020-09-02T09:24:00Z</time></trkpt>
			<trkpt lat="54.711005" lon="20.544521"><ele>9.3</ele><time>2020-09-02T09:24:52Z</time></trkpt>
			<trkpt lat="54.711046" lon="20.543819"><ele>9.0</ele><time>2020-09-02T09:26:04Z</time></trkpt>
		</trkseg>
	</trk>
</gpx>